     2              OBSERVATION DATA                        RINEX VERSION / TYPE
DAT2RIN 1.01d Dan Johnson 14SEP96 5:27:29 GMT               PGM / RUN BY / DATE
Mojave '96 team Central Washington U                        OBSERVER / AGENCY
14856 TRIMBLE 4000SSI Nav 7.12 Sig 3.04                     REC # / TYPE / VERS
UW-03 TRIMBLE CHOKE                                         ANT # / TYPE
FUNE FUNERAL                                                MARKER NAME
 -2291701.0000 -4601402.0000  3764185.0000                  APPROX POSITION XYZ
        0.9276        0.0000        0.0000                  ANTENNA: DELTA H/E/N
     1     1     0                                          WAVELENGTH FACT L1/2
     5    L1    C1    P1    L2    P2                        # / TYPES OF OBSERV
    30                                                      INTERVAL
  1996     9    11     0     0   30.000000                  TIME OF FIRST OBS
  1996     9    11    23    59    0.000000                  TIME OF LAST OBS
                                                            COMMENT
PANGA GPS Data Analysis Center                              COMMENT
Department of Geology                                       COMMENT
Central Washington University                               COMMENT
Ellensburg, WA 98926                                        COMMENT
                                                            COMMENT
http://www.panga.cwu.edu                                    COMMENT
ftp://panga.cwu.edu                                         COMMENT
                                                            COMMENT
    25                                                      # OF SATELLITES
           1   745   746     0   741   741                  PRN / # OF OBS
           2   846   846     0   844   844                  PRN / # OF OBS
           3   920   920     0   914   914                  PRN / # OF OBS
           4   770   771     0   762   762                  PRN / # OF OBS
           5   711   711     0   709   709                  PRN / # OF OBS
           6   772   772     0   763   763                  PRN / # OF OBS
           7   740   740     0   737   737                  PRN / # OF OBS
           9   883   884     0   875   875                  PRN / # OF OBS
          10   883   884     0   873   873                  PRN / # OF OBS
          14   693   703     0   687   687                  PRN / # OF OBS
          15   892   892     0   885   885                  PRN / # OF OBS
          16   900   901     0   890   890                  PRN / # OF OBS
          17   848   849     0   844   844                  PRN / # OF OBS
          18   758   758     0   755   755                  PRN / # OF OBS
          19   841   841     0   839   839                  PRN / # OF OBS
          21   854   854     0   845   845                  PRN / # OF OBS
          22   890   891     0   878   878                  PRN / # OF OBS
          23   799   800     0   798   798                  PRN / # OF OBS
          24   703   703     0   695   695                  PRN / # OF OBS
          25   663   663     0   661   661                  PRN / # OF OBS
          26   938   938     0   930   930                  PRN / # OF OBS
          27   810   810     0   805   805                  PRN / # OF OBS
          28   744     0   746   742   742                  PRN / # OF OBS
          29   843   843     0   840   840                  PRN / # OF OBS
          31   930   930     0   923   923                  PRN / # OF OBS
                                                            END OF HEADER
 96  9 11  0  0 30.0000000  0  6  1 14 15 21 25 29
  -6747838.51810  22777409.00800                  -4925921.39150  22777414.03540
 -10023821.53510  22726362.74200                  -7649398.79650  22726368.03940
 -18341011.69310  20795736.06300                 -14084001.57550  20795741.14840
  -3385188.44710  23489959.68000                   6005842.34550  23489965.50440
 -20660334.65310  20612273.91400                 -15953633.38350  20612277.54740
  -8408748.53910  22959718.57000                  -6288414.29850  22959722.43840
 96  9 11  0  1  0.0000000  0  6  1 14 15 21 25 29
  -6669909.67800  22792238.24200                  -4865197.63940  22792242.83640
 -10102457.34700  22711399.15600                  -7710673.42740  22711404.67640
 -18333171.06500  20797228.20300                 -14077891.99840  20797233.28940
  -3292387.86700  23507619.07800                   6078154.43440  23507623.01640
 -20655812.02400  20613134.36700                 -15950109.25040  20613137.97740
  -8467988.61200  22948445.50000                  -6334575.36340  22948449.32040
 96  9 11  0  1 30.0000000  0  6  1 14 15 21 25 29
  -6591868.56700  22807089.11700                  -4804386.39640  22807094.20340
 -10181001.22800  22696453.14800                  -7771876.43040  22696457.95340
 -18324676.73300  20798844.86700                 -14071273.04840  20798849.81340
  -3199297.41300  23525333.28100                   6150692.39340  23525338.76640
 -20650746.28900  20614098.51600                 -15946161.91940  20614102.12540
  -8527076.12400  22937201.11700                  -6380617.56440  22937205.88740
 96  9 11  0  2  0.0000000  0  6  1 14 15 21 25 29
  -6513709.74900  22821962.03900                  -4743483.43440  22821966.92640
 -10259447.99200  22681525.03100                  -7833003.75740  22681529.74240
 -18315521.25700  20800586.97700                 -14064138.91140  20800591.87540
  -3105928.46300  23543101.17200                   6223447.39540  23543106.85540
 -20645149.28800  20615163.50800                 -15941800.61040  20615167.02340
  -8585991.80200  22925990.10200                  -6426525.85040  22925994.37940
 96  9 11  0  2 30.0000000  0  6  1 14 15 21 25 29
  -6435456.83800  22836853.50000                  -4682507.16240  22836857.98840
 -10337804.02100  22666614.11700                  -7894060.38340  22666619.05140
 -18305720.88800  20802451.78100                 -14056502.26540  20802456.89140
  -3012315.22900  23560915.11700                   6296392.72340  23560920.43840
 -20639041.32000  20616325.66400                 -15937041.14640  20616329.35540
  -8644737.42400  22914811.00000                  -6472301.63140  22914815.07840
 96  9 11  0  3  0.0000000  0  6  1 14 15 21 25 29
  -6357111.34700  22851762.06300                  -4621458.73240  22851767.18440
 -10416044.61200  22651725.65600                  -7955027.05940  22651731.02340
 -18295265.65900  20804441.37500                 -14048355.33940  20804446.42640
  -2918459.26500  23578775.52300                   6369527.20040  23578779.77740
 -20632407.73400  20617588.18800                 -15931872.11740  20617591.99640
  -8703290.02600  22903668.96100                  -6517927.00140  22903673.25040
 96  9 11  0  3 30.0000000  0  6  1 14 15 21 25 29
  -6278683.43800  22866686.42200                  -4560346.09840  22866691.01640
 -10494164.55400  22636859.38300                  -8015899.72040  22636864.09440
 -18284155.51300  20806555.64800                 -14039698.09140  20806560.75840
  -2824376.62200  23596678.85200                   6442838.31940  23596684.24240
 -20625228.26400  20618954.46100                 -15926277.72240  20618958.18840
  -8761644.15100  22892564.64100                  -6563397.71840  22892569.35240
 96  9 11  0  4  0.0000000  0  6  1 14 15 21 25 29
  -6200194.73700  22881622.11700                  -4499186.07640  22881626.88740
 -10572162.51000  22622017.46900                  -8076677.32240  22622022.73040
 -18272388.98800  20808794.76600                 -14030529.37340  20808799.68840
  -2730069.90300  23614624.92200                   6516324.06340  23614631.79340
 -20617474.74700  20620429.82000                 -15920236.01440  20620433.38340
  -8819784.61800  22881500.89800                  -6608701.94840  22881504.93040
 96  9 11  0  4 30.0000000  0  6  1 14 15 21 25 29
  -6121657.87400  22896567.57800                  -4437988.53640  22896571.90240
 -10650040.20600  22607197.61700                  -8137361.22940  22607203.12540
 -18259969.05900  20811158.28100                 -14020851.51240  20811163.29740
  -2635546.80900  23632612.10900                   6589978.31640  23632618.21540
 -20609148.90300  20622014.04700                 -15913748.33740  20622017.77340
  -8877713.18100  22870477.18800                  -6653841.07440  22870481.65240
 96  9 11  0  5  0.0000000  0  6  1 14 15 21 25 29
  -6043096.07700  22911517.10900                  -4376771.56840  22911522.54740
 -10727834.60600  22592393.43800                  -8197980.21340  22592398.59440
 -18246909.31300  20813643.34400                 -14010675.09040  20813648.26640
  -2540809.23900  23650639.92200                   6663799.79040  23650644.57440
 -20600272.84500  20623703.26600                 -15906831.92040  20623707.02740
  -8935459.39600  22859488.32800                  -6698838.09440  22859492.32440
 96  9 11  0  5 30.0000000  0  6  1 14 15 21 25 29
  -5964479.33000  22926477.41400                  -4315511.77540  22926482.40640
 -10805532.22100  22577608.56300                  -8258523.80040  22577613.27340
 -18233186.77100  20816254.48400                 -13999982.20940  20816259.39540
  -2445829.30500  23668713.83600                   6737810.06440  23668719.61340
 -20590825.88300  20625500.75000                 -15899470.64240  20625504.55940
  -8993007.83300  22848537.25800                  -6743680.99840  22848542.08640
 96  9 11  0  6  0.0000000  0  6  1 14 15 21 25 29
  -5885820.44400  22941445.37500                  -4254219.14840  22941449.96940
 -10883133.62700  22562841.42200                  -8318992.39340  22562846.61340
 -18218811.70900  20818990.25000                 -13988780.86740  20818995.39540
  -2350601.40400  23686835.52300                   6812013.55940  23686841.19540
 -20580835.13500  20627401.83600                 -15891685.64140  20627405.66840
  -9050380.40400  22837619.07000                  -6788386.87740  22837623.26640
 96  9 11  0  6 30.0000000  0  6  1 14 15 21 25 29
  -5807099.87800  22956425.45300                  -4192878.47140  22956430.48040
 -10960639.56400  22548092.46900                  -8379386.61740  22548098.08240
 -18203790.24600  20821848.42200                 -13977075.83540  20821853.69540
  -2255121.95400  23705004.92200                   6886413.08140  23705011.00440
 -20570325.35000  20629401.85200                 -15883496.19540  20629405.66040
  -9107607.59800  22826729.42200                  -6832979.46640  22826734.47340
 96  9 11  0  7  0.0000000  0  6  1 14 15 21 25 29
  -5728308.55400  22971418.93000                  -4131482.64040  22971424.05140
 -11038047.92000  22533362.13300                  -8439704.78840  22533367.32440
 -18188126.99700  20824829.07800                 -13964870.71340  20824834.08240
  -2159379.89200  23723224.07800                   6961017.22340  23723230.31340
 -20559297.01500  20631500.48400                 -15874902.68240  20631504.08240
  -9164700.68600  22815865.09400                  -6877467.55340  22815869.64140
 96  9 11  0  7 30.0000000  0  6  1 14 15 21 25 29
  -5649424.64500  22986430.06300                  -4070014.66640  22986435.02040
 -11115321.80000  22518657.50800                  -8499918.18340  22518662.60540
 -18171815.15300  20827933.40600                 -13952160.19440  20827938.44540
  -2063375.09200  23741493.58600                   7035826.10440  23741499.84440
 -20547743.02800  20633699.26600                 -15865899.57440  20633702.93440
  -9221640.31000  22805029.95300                  -6921836.05940  22805034.55940
 96  9 11  0  8  0.0000000  0  6  1 14 15 21 25 29
  -5570453.27400  23001457.82000                  -4008478.54140  23001463.71540
 -11192450.01300  22503980.37500                  -8560018.06140  22503985.53140
 -18154848.59400  20831162.09400                 -13938939.50940  20831167.08640
  -1967103.03200  23759812.93800                   7110843.23240  23759820.55940
 -20535658.86000  20635998.70300                 -15856483.33440  20636002.25440
  -9278407.67100  22794227.49200                  -6966070.34640  22794231.96940
 96  9 11  0  8 30.0000000  0  6  1 14 15 21 25 29
  -5491404.11200  23016500.39100                  -3946881.79640  23016505.41840
 -11269451.59900  22489327.38300                  -8620019.26640  22489332.14140
 -18137226.83600  20834515.45300                 -13925208.27540  20834520.34040
  -1870575.25400  23778181.88300                   7186059.59040  23778186.10240
 -20523030.21800  20638401.84400                 -15846642.82640  20638405.51240
  -9334978.80500  22783462.25800                  -7010151.72540  22783466.84040
 96  9 11  0  9  0.0000000  0  6  1 14 15 21 25 29
  -5412297.26300  23031554.18000                  -3885240.10940  23031559.09040
 -11346311.18200  22474701.67200                  -8679909.84240  22474706.55940
 -18118942.29500  20837994.85200                 -13910960.59040  20837999.66840
  -1773790.98400  23796599.27300                   7261475.88340  23796606.32040
 -20509834.12000  20640913.09400                 -15836360.14940  20640916.73840
  -9391319.04700  22772741.10200                  -7054053.18540  22772746.07040
 96  9 11  0  9 30.0000000  0  6  1 14 15 21 25 29
  -5333145.77600  23046616.18800                  -3823563.62640  23046620.78140
 -11423029.58300  22460102.64100                  -8739690.39440  22460107.34040
 -18099992.84200  20841600.73400                 -13896194.79740  20841605.83240
  -1676758.28100  23815063.54700                   7337085.67740  23815068.44540
 -20496066.74300  20643532.82000                 -15825632.32340  20643536.48840
  -9447422.11300  22762064.32800                  -7097769.82340  22762069.19140
 96  9 11  0 10  0.0000000  0  6  1 14 15 21 25 29
  -5253978.75600  23061680.89100                  -3761875.05040  23061686.02340
 -11499636.31400  22445524.82000                  -8799383.93740  22445529.78940
 -18080399.26300  20845329.10900                 -13880927.07940  20845334.52340
  -1579503.45200  23833571.06300                   7412868.68940  23833575.75040
 -20481740.85900  20646259.13300                 -15814469.28540  20646262.78940
  -9503318.95100  22751427.59400                  -7141325.77540  22751432.68040
 96  9 11  0 10 30.0000000  0  6  1 14 15 21 25 29
  -5174760.78500  23076755.49200                  -3700146.77040  23076760.82440
 -11576098.77800  22430974.49200                  -8858965.05740  22430979.47340
 -18060138.87800  20849184.52300                 -13865139.77240  20849189.63340
  -1482000.56500  23852125.60900                   7488844.91240  23852130.54340
 -20466833.00400  20649095.78100                 -15802852.76840  20649099.41440
  -9559003.43100  22740831.36700                  -7184716.25040  22740835.85540
 96  9 11  0 11  0.0000000  0  6  1 14 15 21 25 29
  -5095494.18000  23091839.91400                  -3638380.60240  23091844.57840
 -11652408.29800  22416453.23400                  -8918427.00740  22416458.25040
 -18039229.15200  20853163.69500                 -13848846.48640  20853168.78140
  -1384277.81800  23870721.43800                   7564992.47140  23870726.28940
 -20451372.46100  20652037.83600                 -15790805.58940  20652041.46940
  -9614515.29800  22730268.09400                  -7227972.20540  22730272.72340
 96  9 11  0 11 30.0000000  0  6  1 14 15 21 25 29
  -5016154.04500  23106937.80500                  -3576557.12540  23106942.10540
 -11728563.11400  22401961.29700                  -8977768.40740  22401965.65640
 -18017666.03600  20857267.11700                 -13832044.06940  20857272.22740
  -1286343.26300  23889357.76600                   7641305.09940  23889363.32040
 -20435364.76400  20655084.02300                 -15778332.05240  20655087.62140
  -9669867.36900  22719734.88300                  -7271103.66240  22719739.23040
 96  9 11  0 12  0.0000000  0  6  1 14 15 21 25 29
  -4936751.08100  23122047.70300                  -3514684.70340  23122053.03540
 -11804579.48200  22387495.85900                  -9037001.93040  22387500.96940
 -17995469.70400  20861490.98400                 -13814748.23740  20861495.84840
  -1188214.77300  23908030.85200                   7717768.80840  23908036.54740
 -20418829.42100  20658230.70300                 -15765447.36440  20658234.28940
  -9725076.07400  22709228.98400                  -7314123.39240  22709233.44940
 96  9 11  0 12 30.0000000  0  6  1 14 15 21 25 29
  -4857285.38300  23137169.24200                  -3452763.40540  23137174.69140
 -11880461.50400  22373055.86700                  -9096130.75540  22373061.30540
 -17972637.42200  20865835.82800                 -13796956.85540  20865840.78540
  -1089883.10500  23926742.30500                   7794390.84740  23926747.54340
 -20401772.18900  20661476.56300                 -15752156.00940  20661480.19540
  -9780127.58800  22698752.84400                  -7357020.64540  22698757.21540
 96  9 11  0 13  0.0000000  0  6  1 14 15 21 25 29
  -4777740.29400  23152306.53900                  -3390780.23540  23152311.28540
 -11956203.72700  22358642.68000                  -9155150.65740  22358647.69540
 -17949153.01000  20870304.54700                 -13778657.32540  20870309.72740
   -991338.20400  23945495.06300                   7871179.06140  23945500.86340
 -20384173.64500  20664825.28100                 -15738442.85940  20664829.07840
  -9834994.57000  22688312.03900                  -7399774.11340  22688316.89140
 96  9 11  0 13 30.0000000  0  6  1 14 15 21 25 29
  -4698130.93700  23167455.14800                  -3328746.99240  23167460.18840
 -12031830.63000  22344251.34400                  -9214080.68840  22344256.43040
 -17925031.62100  20874894.78900                 -13759861.44840  20874899.94540
   -892568.38900  23964290.07800                   7948142.45840  23964296.61740
 -20366046.30200  20668275.00000                 -15724317.65940  20668278.82040
  -9889695.10100  22677902.91400                  -7442397.87840  22677906.98040
 96  9 11  0 14  0.0000000  0  6  1 14 15 21 25 29
  -4618451.42400  23182617.89100                  -3266659.07540  23182622.89540
 -12107335.61900  22329883.38300                  -9272915.74040  22329888.07040
 -17900255.02000  20879609.61700                 -13740555.01340  20879614.82040
   -793530.67300  23983137.09400                   8025314.63740  23983142.43840
 -20347367.87000  20671829.19500                 -15709763.03240  20671832.96940
  -9944204.61800  22667530.07800                  -7484872.80140  22667534.05140
 96  9 11  0 14 30.0000000  0  6  1 14 15 21 25 29
  -4538714.96300  23197791.56300                  -3204526.79240  23197796.68440
 -12182724.74700  22315537.31300                  -9331660.49740  22315542.05940
 -17874834.04000  20884447.28100                 -13720746.46640  20884452.43840
   -694232.60000  24002033.22700                   8102689.72540  24002039.97740
 -20328165.74300  20675483.25800                 -15694800.33540  20675487.05540
  -9998532.08900  22657192.09400                  -7527205.87540  22657196.48840
 96  9 11  0 15  0.0000000  0  6  1 14 15 21 25 29
  -4458927.55400  23212974.08600                  -3142354.80040  23212979.54740
 -12257982.41300  22301216.09400                  -9390302.82040  22301220.71140
 -17848773.52800  20889406.31300                 -13700439.57840  20889411.01240
   -594679.39700  24020976.25000                   8180263.59040  24020982.75440
 -20308450.63700  20679235.00800                 -15679437.90740  20679238.81640
 -10052685.83500  22646887.06300                  -7569403.58240  22646891.03540
 96  9 11  0 15 30.0000000  0  6  1 14 15 21 25 29
  -4379095.36200  23228165.61700                  -3080147.92440  23228171.45340
 -12333093.81300  22286922.78900                  -9448831.17340  22286927.62940
 -17822066.69600  20894488.49200                 -13679629.06740  20894493.37940
   -494865.74400  24039970.03100                   8258040.37640  24039975.48040
 -20288219.58100  20683084.68800                 -15663673.44840  20683088.53140
 -10106648.60300  22636618.07000                  -7611452.46440  22636622.23040
 96  9 11  0 16  0.0000000  0  6  1 14 15 21 25 29
  -4299212.21700  23243367.07000                  -3017901.34340  23243371.99240
 -12408038.08600  22272661.35900                  -9507229.29240  22272666.05940
 -17794705.59200  20899694.84400                 -13658308.73340  20899699.85940
   -394804.90900  24059011.27300                   8336009.79040  24059019.42240
 -20267456.10800  20687035.74200                 -15647494.12040  20687039.65640
 -10160387.54200  22626391.78900                  -7653326.94640  22626395.89140
 96  9 11  0 16 30.0000000  0  6  1 14 15 21 25 29
  -4219288.73900  23258576.39100                  -2955623.32740  23258582.14540
 -12482812.95200  22258432.27300                  -9565495.40040  22258437.13740
 -17766714.84800  20905021.46100                 -13636497.77440  20905026.54740
   -294548.22200  24078089.85900                   8414131.81740  24078093.16440
 -20246188.74300  20691082.96100                 -15630922.14740  20691086.62940
 -10213935.04100  22616201.93800                  -7695052.24640  22616206.42640
 96  9 11  0 17  0.0000000  0  6  1 14 15 21 25 29
  -4139303.30700  23273796.69500                  -2893297.02740  23273802.50840
 -12557411.56700  22244236.83600                  -9623624.17840  22244241.89840
 -17738080.48600  20910470.36700                 -13614185.29840  20910475.37140
   -194092.47700  24097206.00000                   8492408.88440  24097212.82040
 -20224375.42800  20695233.96900                 -15613924.75440  20695237.67240
 -10267286.15300  22606049.67200                  -7736624.51840  22606054.19540
 96  9 11  0 17 30.0000000  0  6  1 14 15 21 25 29
  -4059241.64500  23289032.18000                  -2830911.34140  23289038.09840
 -12631848.55400  22230071.82000                  -9681627.00340  22230076.82440
 -17708802.05700  20916041.82000                 -13591370.94140  20916046.84840
    -93443.38600  24116359.09400                   8570836.70540  24116365.48040
 -20201997.46100  20699492.44500                 -15596487.37340  20699496.23040
 -10320454.71400  22595931.93000                  -7778054.54440  22595936.57040
 96  9 11  0 18  0.0000000  0  6  1 14 15 21 25 29
  -3979100.34600  23304282.71100                  -2768463.58840  23304287.58640
 -12706123.67400  22215937.49200                  -9739503.70440  22215941.93440
 -17678885.92800  20921734.82000                 -13568059.68140  20921739.84840
      7393.86900  24135547.86700                   8649411.10640  24135554.61740
 -20179058.03400  20703857.39800                 -15578612.49140  20703861.16040
 -10373465.81900  22585844.51600                  -7819361.87740  22585848.82840
 96  9 11  0 18 30.0000000  0  6  1 14 15 21 25 29
  -3898905.82500  23319542.88300                  -2705974.36940  23319548.08640
 -12780267.10300  22201828.37500                  -9797277.78640  22201833.55540
 -17648353.73000  20927545.07000                 -13544268.36340  20927549.80540
    108408.64200  24154770.72700                   8728123.82040  24154776.30540
 -20155594.07700  20708322.57000                 -15560328.88940  20708326.29740
 -10426347.31700  22575781.43000                  -7860568.21540  22575785.71940
 96  9 11  0 19  0.0000000  0  6  1 14 15 21 25 29
  -3818646.80800  23334816.00000                  -2643434.87940  23334821.27340
 -12854262.78000  22187747.57000                  -9854936.74540  22187752.53940
 -17617180.51600  20933477.28100                 -13519977.56240  20933482.10940
    209641.59700  24174034.71100                   8807006.58140  24174040.85240
 -20131582.66300  20712891.80500                 -15541618.69340  20712895.52040
 -10479058.77100  22565750.74200                  -7901642.05540  22565754.71540
 96  9 11  0 19 30.0000000  0  6  1 14 15 21 25 29
  -3738331.02100  23350099.79700                  -2580851.16440  23350105.39840
 -12928099.05400  22173697.10200                  -9912471.49940  22173701.46140
 -17585369.68400  20939530.43800                 -13495189.91040  20939535.44140
    311106.66800  24193342.78900                   8886070.24340  24193348.32040
 -20107051.99200  20717559.89100                 -15522503.88440  20717563.54740
 -10531588.68900  22555754.64800                  -7942574.44240  22555759.12540
 96  9 11  0 20  0.0000000  0  6  1 14 15 21 25 29
  -3657960.25200  23365393.95300                  -2518224.61840  23365398.96940
 -13001748.15200  22159682.31300                  -9969860.39840  22159686.62540
 -17552913.52000  20945706.41400                 -13469899.40640  20945711.59440
    412829.74000  24212700.50000                   8965334.90940  24212705.28140
 -20082010.52800  20722325.07800                 -15502991.05340  20722328.57040
 -10583907.36400  22545798.60200                  -7983342.22640  22545802.48040
 96  9 11  0 20 30.0000000  0  6  1 14 15 21 25 29
  -3577535.08500  23380698.21100                  -2455555.67940  23380702.99240
 -13075224.17800  22145700.10900                 -10027114.43040  22145704.65640
 -17519814.60700  20952005.02300                 -13444108.05840  20952010.21540
    514809.20400  24232106.18800                   9044799.38740  24232112.05940
 -20056467.60900  20727185.78900                 -15483087.47540  20727189.46940
 -10636011.47000  22535883.29700                  -8023942.81040  22535887.77340
 96  9 11  0 21  0.0000000  0  6  1 14 15 21 25 29
  -3497052.14400  23396013.57800                  -2392841.71240  23396018.48840
 -13148535.88300  22131749.42200                 -10084240.41640  22131753.94540
 -17486081.61100  20958424.23400                 -13417822.61540  20958429.40240
    617029.71300  24251558.05500                   9124451.69540  24251565.72340
 -20030421.95000  20732142.09400                 -15462792.15440  20732145.83240
 -10687922.60400  22526004.81300                  -8064393.01440  22526009.61740
 96  9 11  0 21 30.0000000  0  6  1 14 15 21 25 29
  -3416517.95700  23411338.94500                  -2330087.82040  23411344.43040
 -13221684.37000  22117829.60900                 -10141239.22240  22117834.05140
 -17451726.43900  20964961.97700                 -13391052.36640  20964967.06340
    719478.59400  24271053.46100                   9204281.92540  24271059.98840
 -20003874.47500  20737193.88300                 -15442105.81240  20737197.71540
 -10739661.72100  22516159.14100                  -8104709.18940  22516163.53540
 96  9 11  0 22  0.0000000  0  6  1 14 15 21 25 29
  -3335946.46400  23426671.08600                  -2267304.86840  23426675.78540
 -13294669.92300  22103940.73400                 -10198111.06340  22103945.34040
 -17416754.33700  20971616.91400                 -13363801.38840  20971621.95340
    822132.13100  24290587.91400                   9284271.63740  24290595.77040
 -19976821.82000  20742341.71100                 -15421025.82240  20742345.48440
 -10791243.12300  22506343.68800                  -8144902.47940  22506347.68440
 96  9 11  0 22 30.0000000  0  6  1 14 15 21 25 29
  -3255321.35400  23442013.60200                  -2204480.10940  23442018.33640
 -13367487.85100  22090084.36700                 -10254852.29240  22090089.16040
 -17381154.36600  20978391.46100                 -13336061.16640  20978396.55940
    924986.60500  24310160.59400                   9364417.98440  24310168.37940
 -19949245.02200  20747589.59400                 -15399537.40340  20747593.29740
 -10842655.99600  22496560.23400                  -8184964.42940  22496564.71140
 96  9 11  0 23  0.0000000  0  7  1 14 15 21 22 25 29
  -3174648.16700  23457364.96900                  -2141617.89040  23457369.84440
 -13440105.57300  22076265.42200                 -10311437.51440  22076270.27340
 -17344923.65500  20985285.87500                 -13307829.45940  20985291.07840
   1028047.35200  24329771.68000                   9444725.03040  24329778.58640
    -51393.52610  24478632.10900
 -19921127.81800  20752940.00800                 -15377627.89440  20752943.72340
 -10893886.43200  22486811.33600                  -8224884.23440  22486815.87140
 96  9 11  0 23 30.0000000  0  7  1 14 15 21 22 25 29
  -3093947.46400  23472721.96900                  -2078734.24340  23472727.31340
 -13512523.29000  22062484.77300                 -10367866.88740  22062489.37940
 -17308078.07300  20992297.22700                 -13279118.62740  20992302.28940
   1131304.92500  24349421.88300                   9525185.39540  24349427.10940
   -142143.71000  24461362.89800
 -19892488.78600  20758389.89100                 -15355311.76240  20758393.61740
 -10944940.08500  22477096.16400                  -8264666.27340  22477100.51240
 96  9 11  0 24  0.0000000  0  7  1 14 15 21 22 25 29
  -3013216.37800  23488084.49200                  -2015826.92640  23488089.03940
 -13584748.80500  22048740.80500                 -10424146.49340  22048745.48040
 -17270611.74500  20999426.87500                 -13249924.10340  20999432.26640
   1234761.06900  24369109.07000                   9605800.55540  24369117.57040
   -232932.16100  24444087.02300                     -2356.51250  24444093.16440
 -19863328.27100  20763938.84400                 -15332589.28340  20763942.41840
 -10995804.20200  22467416.89800                  -8304300.62640  22467420.82440
 96  9 11  0 24 30.0000000  0  7  1 14 15 21 22 25 29
  -2932450.21100  23503453.99200                  -1952892.25340  23503457.61340
 -13656789.71700  22035031.57000                 -10480282.25140  22035036.39840
 -17232521.56200  21006675.29700                 -13220243.45240  21006680.35940
   1338425.05900  24388835.34400                   9686577.69940  24388843.07040
   -323751.02600  24426804.18000                    -73124.36840  24426810.77740
 -19833637.86000  20769588.78100                 -15309453.89540  20769592.48440
 -11046473.69800  22457774.95300                  -8343783.32340  22457778.99640
 96  9 11  0 25  0.0000000  0  7  1 14 15 21 22 25 29
  -2851655.05800  23518828.67200                  -1889935.02140  23518833.21940
 -13728645.55100  22021358.01600                 -10536273.79840  22021362.97340
 -17193807.87300  21014042.17200                 -13190076.95440  21014047.22340
   1442294.49200  24408601.81300                   9767514.83740  24408607.63740
   -414588.63100  24409518.43000                   -143906.82440  24409525.33640
 -19803417.61100  20775339.50000                 -15285905.65140  20775343.18040
 -11096965.73000  22448166.80500                  -8383127.75640  22448171.03540
 96  9 11  0 25 30.0000000  0  7  1 14 15 21 22 25 29
  -2770821.05500  23534211.18800                  -1826947.49440  23534215.78140
 -13800331.18900  22007716.62500                 -10592132.72440  22007721.66440
 -17154464.66300  21021529.12500                 -13159419.92040  21021534.28140
   1546372.20700  24428406.88300                   9848614.21540  24428415.04340
   -505441.71300  24392229.92200                   -214701.40840  24392235.77040
 -19772669.82800  20781190.60900                 -15261946.33640  20781194.25440
 -11147282.57700  22438591.55500                  -8422335.66240  22438595.84440
 96  9 11  0 26  0.0000000  0  7  1 14 15 21 22 25 29
  -2689978.28800  23549594.95300                  -1763953.14440  23549600.18040
 -13871879.28200  21994101.29700                 -10647884.47940  21994106.12540
 -17114521.77600  21029129.93800                 -13128295.60240  21029134.93040
   1650620.69300  24448243.99200                   9929846.81340  24448248.89140
   -596354.66600  24374929.37500                   -285542.56140  24374936.07840
 -19741423.40200  20787136.69500                 -15237598.47340  20787140.37540
 -11197453.68100  22429044.34400                  -8461430.00840  22429048.57440
 96  9 11  0 26 30.0000000  0  7  1 14 15 21 22 25 29
  -2609089.26500  23564987.43000                  -1700922.74940  23564991.35540
 -13943256.60800  21980518.57000                 -10703503.16240  21980523.55140
 -17073963.87000  21036847.96900                 -13096692.04340  21036853.06640
   1755064.51100  24468119.13300                  10011231.52740  24468123.15240
   -687329.00400  24357617.46900                   -356431.53940  24357622.57840
 -19709664.71600  20793180.10900                 -15212851.44040  20793183.97740
 -11247466.46600  22419527.48400                  -8500400.99140  22419531.45740
 96  9 11  0 27  0.0000000  0  7  1 14 15 21 22 25 29
  -2528131.55500  23580393.22700                  -1637838.82440  23580398.21940
 -14014440.68900  21966972.86700                 -10758971.27740  21966978.09440
 -17032785.74300  21044683.81300                 -13064605.20140  21044688.86340
   1859716.48900  24488033.89100                  10092778.44240  24488041.75840
   -778352.25400  24340296.76600                   -427358.62540  24340302.40240
 -19677394.76500  20799321.03100                 -15187706.02540  20799324.69940
 -11297313.07400  22410041.95300                  -8539242.48940  22410045.66840
 96  9 11  0 27 30.0000000  0  6  1 14 15 22 25 29
  -2447115.18100  23595809.52300                  -1574709.18240  23595815.17240
 -14085437.06400  21953462.74200                 -10814293.12340  21953467.40640
 -16991006.86100  21052634.14100                 -13032050.24440  21052639.05140
   -869442.02700  24322961.93800                   -498337.60240  24322968.66440
 -19644640.36800  20805553.93000                 -15162183.11840  20805557.60940
 -11346992.99700  22400588.08600                  -8577954.09740  22400592.04740
 96  9 11  0 28  0.0000000  0  6  1 14 15 22 25 29
  -2366028.97900  23611239.89100                  -1511525.16040  23611245.69140
 -14156217.24400  21939993.71100                 -10869446.49440  21939998.55140
 -16948618.55200  21060700.24200                 -12999020.40640  21060705.29340
   -960582.89400  24305619.03100                   -569356.39440  24305625.57040
 -19611395.65100  20811880.00000                 -15136278.14340  20811883.70340
 -11396487.70000  22391169.25000                  -8616521.38640  22391173.62140
 96  9 11  0 28 30.0000000  0  6  1 14 15 22 25 29
  -2284888.57800  23626681.09400                  -1448298.90040  23626687.39840
 -14226778.08100  21926566.19500                 -10924428.95940  21926571.53940
 -16905629.44100  21068880.68000                 -12965522.41040  21068885.71940
  -1051749.60800  24288270.35200                   -640395.30440  24288275.25040
 -19577662.76800  20818299.22700                 -15109992.77940  20818302.96540
 -11445805.27500  22381784.35900                  -8654950.64540  22381788.48440
 96  9 11  0 29  0.0000000  0  6  1 14 15 22 25 29
  -2203712.85500  23642127.06300                  -1385045.11740  23642132.94540
 -14297113.02300  21913182.04700                 -10979235.39240  21913187.21540
 -16862033.39700  21077176.85200                 -12931551.48440  21077181.87940
  -1142921.52900  24270920.71900                   -711438.26940  24270926.71940
 -19543421.10900  20824815.42200                 -15083310.96640  20824819.12540
 -11494942.25100  22372433.88300                  -8693239.18340  22372438.40640
 96  9 11  0 29 30.0000000  0  6  1 14 15 22 25 29
  -2122517.83200  23657578.56300                  -1321776.28540  23657583.85940
 -14367230.04600  21899839.34400                 -11033872.02140  21899844.34840
 -16817832.95000  21085587.80500                 -12897109.58640  21085592.84440
  -1234099.65600  24253569.84400                   -782486.01940  24253575.66840
 -19508674.60300  20831427.42200                 -15056235.76740  20831431.17240
 -11543906.32300  22363116.26600                  -8731392.98440  22363120.32040
 96  9 11  0 30  0.0000000  0  6  1 14 15 22 25 29
  -2041294.34000  23673034.94500                  -1258485.26940  23673040.85240
 -14437139.70700  21886535.84400                 -11088347.06740  21886540.97740
 -16773022.65800  21094114.92200                 -12862192.49040  21094119.94940
  -1325272.72900  24236219.94500                   -853529.85640  24236224.76240
 -19473398.65800  20838140.25800                 -15028748.01840  20838143.86740
 -11592704.67200  22353830.42200                  -8769417.66040  22353834.74640
 96  9 11  0 30 30.0000000  0  6  1 14 15 22 25 29
  -1960063.29900  23688492.44500                  -1195188.35640  23688498.57440
 -14506884.61800  21873264.03900                 -11142693.74040  21873269.04340
 -16727625.69100  21102753.91400                 -12826818.24340  21102759.02340
  -1416459.59400  24218867.79700                   -924584.50340  24218874.85540
 -19437611.30700  20844950.21900                 -15000861.76940  20844953.84040
 -11641367.56100  22344570.18000                  -8807336.76340  22344574.51640
 96  9 11  0 31  0.0000000  0  6  1 14 15 22 25 29
  -1878784.63000  23703959.56300                  -1131854.35240  23703965.04740
 -14576460.02000  21860024.11700                 -11196908.32940  21860028.99240
 -16681620.45500  21111508.43000                 -12790970.02240  21111513.39840
  -1507648.93800  24201515.47700                   -995641.04740  24201520.82040
 -19401308.28700  20851858.50000                 -14972573.69540  20851862.05140
 -11689870.75600  22335340.32800                  -8845131.44840  22335344.35940
 96  9 11  0 31 30.0000000  0  6  1 14 15 22 25 29
  -1797454.85900  23719436.16400                  -1068480.51940  23719441.55540
 -14645875.62200  21846814.72700                 -11250998.40440  21846819.64840
 -16635019.39500  21120376.44500                 -12754657.51540  21120381.50840
  -1598842.81800  24184161.28100                  -1066701.09740  24184166.56640
 -19364519.91300  20858859.00800                 -14943907.42640  20858862.69940
 -11738207.97800  22326142.32800                  -8882796.79940  22326146.75840
 96  9 11  0 32  0.0000000  0  6  1 14 15 22 25 29
  -1716057.42300  23734925.96100                  -1005054.00440  23734932.00840
 -14715113.58000  21833639.29700                 -11304950.05140  21833644.23040
 -16587811.37600  21129359.61700                 -12717872.06440  21129364.84440
  -1690022.17100  24166810.75800                  -1137749.82840  24166816.28940
 -19327236.40100  20865953.86700                 -14914855.34440  20865957.57040
 -11786352.85600  22316980.48400                  -8920312.27540  22316984.31640
 96  9 11  0 32 30.0000000  0  6  1 14 15 22 25 29
  -1634619.69400  23750422.83600                   -941596.03240  23750428.39140
 -14784163.12600  21820499.78900                 -11358754.87940  21820504.43040
 -16540013.54700  21138455.03100                 -12680627.01140  21138460.19940
  -1781202.74000  24149458.61700                  -1208799.53940  24149464.51240
 -19289491.60900  20873136.43000                 -14885443.81540  20873140.10940
 -11834306.01900  22307855.18000                  -8957678.34740  22307859.00040
 96  9 11  0 33  0.0000000  0  6  1 14 15 22 25 29
  -1553151.22400  23765925.75000                   -878114.12440  23765930.87140
 -14852998.00700  21807400.63300                 -11412392.44740  21807405.19140
 -16491633.73700  21147661.60900                 -12642928.47540  21147666.93040
  -1872400.13100  24132105.18000                  -1279862.30540  24132111.34440
 -19251294.08300  20880405.19500                 -14855679.50940  20880408.93440
 -11882066.02900  22298766.82800                  -8994893.92440  22298770.80140
 96  9 11  0 33 30.0000000  0  6  1 14 15 22 25 29
  -1471661.64900  23781433.12500                   -814615.77340  23781437.71940
 -14921596.76900  21794346.57800                 -11465846.01640  21794351.38340
 -16442678.98200  21156977.45300                 -12604781.92640  21156982.52740
  -1963620.64100  24114745.93800                  -1350943.16140  24114752.05540
 -19212639.57100  20887760.93000                 -14825559.11240  20887764.60940
 -11929634.82500  22289715.00000                  -9031960.49440  22289718.77340
 96  9 11  0 34  0.0000000  0  6  1 14 15 22 25 29
  -1390126.97900  23796948.46900                   -751082.26940  23796954.15240
 -14989920.33600  21781345.19500                 -11519085.15140  21781350.05940
 -16393119.80400  21166408.28100                 -12566164.40340  21166413.42640
  -2054834.45000  24097389.02300                  -1422018.80140  24097395.01240
 -19173487.52700  20895211.23400                 -14795051.02540  20895214.87940
 -11976990.83200  22280703.15600                  -9068861.25640  22280707.00040
 96  9 11  0 34 30.0000000  0  6  1 14 15 22 25 29
  -1308558.26000  23812470.25800                   -687522.26240  23812475.59040
 -15057971.51000  21768395.46100                 -11572112.02140  21768400.33640
 -16342966.05200  21175952.12500                 -12527083.56840  21175957.32840
  -2146047.35800  24080031.11700                  -1493093.66540  24080035.34840
 -19133846.23900  20902754.82800                 -14764161.70840  20902758.36740
 -12024148.63200  22271729.43000                  -9105607.56040  22271733.28540
 96  9 11  0 35  0.0000000  0  6  1 14 15 22 25 29
  -1226948.72000  23828000.45300                   -623930.41040  23828005.03540
 -15125767.88800  21755494.35200                 -11624940.35640  21755499.06340
 -16292226.03100  21185607.64100                 -12487545.90640  21185612.75040
  -2237255.99400  24062674.88300                  -1564165.27640  24062680.03940
 -19093726.81400  20910389.20300                 -14732899.81840  20910392.83640
 -12071132.06300  22262788.67200                  -9142218.00840  22262792.98440
 96  9 11  0 35 30.0000000  0  6  1 14 15 22 25 29
  -1145298.30700  23843537.78100                   -560306.73640  23843542.02340
 -15193329.25900  21742637.75800                 -11677585.57240  21742642.38740
 -16240905.20700  21195373.69500                 -12447555.66540  21195378.84040
  -2328445.90200  24045322.16400                  -1635222.27140  24045329.77340
 -19053136.80500  20918113.28100                 -14701271.23940  20918116.82040
 -12117947.95200  22253879.79700                  -9178697.89840  22253883.62940
 96  9 11  0 36  0.0000000  0  6  1 14 15 22 25 29
  -1063613.38900  23859081.86700                   -496656.18740  23859087.09440
 -15260666.83500  21729823.96900                 -11730056.39340  21729828.71540
 -16188999.67500  21205251.11700                 -12407109.81140  21205256.07440
  -2419609.17300  24027974.12500                  -1706258.44340  24027980.62940
 -19012075.72800  20925926.98400                 -14669275.59340  20925930.55940
 -12164601.57800  22245001.96900                  -9215051.34440  22245005.91840
 96  9 11  0 36 30.0000000  0  6  1 14 15 22 25 29
   -981880.15800  23874635.28900                   -432967.97340  23874639.97740
 -15327780.22900  21717052.81300                 -11782352.53040  21717057.64140
 -16136503.82400  21215240.60900                 -12366203.96740  21215245.68440
  -2510742.60200  24010631.71100                  -1777271.40440  24010637.71140
 -18970544.07900  20933830.07800                 -14636913.26740  20933833.68840
 -12211095.03600  22236154.66400                  -9251279.99140  22236158.78940
 96  9 11  0 37  0.0000000  0  6  1 14 15 22 25 29
   -900103.02700  23890197.07800                   -369245.58240  23890201.34440
 -15394683.69500  21704321.22700                 -11834485.09640  21704326.23040
 -16083429.79300  21225340.32800                 -12324847.60140  21225345.48440
  -2601854.32300  23993293.55500                  -1848267.48740  23993299.27340
 -18928545.65200  20941822.30500                 -14604187.22140  20941825.82040
 -12257438.68600  22227335.63300                  -9287391.90240  22227339.93440
 96  9 11  0 37 30.0000000  0  6  1 14 15 22 25 29
   -818290.79900  23905765.68000                   -305495.79140  23905770.27340
 -15461363.53600  21691632.53900                 -11886443.40040  21691637.15640
 -16029773.02600  21235550.99200                 -12283037.14340  21235556.11340
  -2692934.91200  23975961.78900                  -1919239.27840  23975967.10940
 -18886064.97100  20949905.99200                 -14571085.39240  20949909.64840
 -12303613.32200  22218548.82800                  -9323372.12440  22218553.23440
 96  9 11  0 38  0.0000000  0  6  1 14 15 22 25 29
   -736459.65700  23921337.11700                   -241731.30540  23921340.38740
 -15527824.84700  21678985.22700                 -11938231.42640  21678989.86740
 -15975545.75000  21245870.25800                 -12240782.14240  21245875.30940
  -2783986.89500  23958635.14100                  -1990188.82040  23958641.73840
 -18843099.24300  20958082.15600                 -14537605.60640  20958085.66040
 -12349628.14900  22209792.60900                  -9359227.81040  22209796.79340
 96  9 11  0 38 30.0000000  0  6  1 14 15 22 25 29
   -654588.21900  23936916.99200                   -177935.39440  23936921.70340
 -15594056.07000  21666381.87500                 -11989840.15940  21666386.46940
 -15920746.18300  21256298.20300                 -12198081.19740  21256303.23040
  -2874986.69600  23941317.99200                  -2061097.67040  23941323.59440
 -18799639.65000  20966352.21100                 -14503740.99040  20966355.75040
 -12395465.97600  22201069.84400                  -9394945.57840  22201073.80540
 96  9 11  0 39  0.0000000  0  6  1 14 15 22 25 29
   -572687.42600  23952502.07800                   -114116.61840  23952507.78540
 -15660050.27100  21653823.36700                 -12041264.20540  21653828.23040
 -15865379.78000  21266833.78900                 -12154938.56340  21266838.88740
  -2965926.84100  23924013.21100                  -2131960.07140  23924019.65640
 -18755678.77600  20974717.77300                 -14469485.76240  20974721.39540
 -12441116.25800  22192383.00000                  -9430517.21340  22192386.85540
 96  9 11  0 39 30.0000000  0  6  1 14 15 22 25 29
   -490755.28700  23968093.34400                    -50273.40040  23968098.93440
 -15725804.21900  21641311.19500                 -12092501.04040  21641315.94140
 -15809440.63000  21277478.78100                 -12111349.62840  21277484.04340
  -3056796.88500  23906721.14800                  -2202767.82440  23906728.20740
 -18711210.03600  20983179.79700                 -14434834.79640  20983183.35940
 -12486577.33100  22183731.87500                  -9465941.41540  22183735.70740
 96  9 11  0 40  0.0000000  0  6  1 14 15 22 25 29
   -408790.91400  23983690.18800                     13594.90940  23983696.92640
 -15791339.91400  21628840.21100                 -12143567.80840  21628844.86340
 -15752943.25600  21288229.79700                 -12067325.71840  21288235.01240
  -3147615.70000  23889439.02300                  -2273535.66540  23889445.53940
 -18666249.08000  20991735.30500                 -14399800.28340  20991738.87940
 -12531862.93400  22175114.47700                  -9501228.88040  22175118.75440
 96  9 11  0 40 30.0000000  0  6  1 14 15 22 25 29
   -326776.10300  23999297.87500                     77502.54640  23999301.60240
 -15856634.04800  21616415.28100                 -12194446.34940  21616419.91040
 -15695869.94000  21299090.57000                 -12022853.01840  21299096.12540
  -3238376.85100  23872167.28900                  -2344258.57940  23872173.71140
 -18620790.94200  21000385.95300                 -14364378.35740  21000389.68040
 -12576951.72600  22166534.32000                  -9536362.98340  22166538.22340
 96  9 11  0 41  0.0000000  0  6  1 14 15 22 25 29
   -244746.35900  24014907.21100                    141421.81840  24014912.26240
 -15921697.53400  21604033.89800                 -12245145.16140  21604038.71540
 -15638240.41700  21310057.32800                 -11977946.91240  21310062.48440
  -3329105.57900  23854901.94500                  -2414956.19540  23854906.46940
 -18574864.58100  21009125.46900                 -14328591.57940  21009129.23040
 -12621870.51500  22157986.43800                  -9571364.62340  22157990.30540
 96  9 11  0 41 30.0000000  0  6  1 14 15 22 25 29
   -162675.38700  24030525.25800                    205373.19140  24030530.47340
 -15986513.85800  21591700.00800                 -12295651.37740  21591704.41440
 -15580047.31100  21321131.02300                 -11932601.65240  21321136.15640
  -3419781.08100  23837647.26600                  -2485612.39940  23837653.37140
 -18528481.93700  21017951.71900                 -14292449.25740  21017955.23440
 -12666618.07600  22149471.05500                  -9606232.83340  22149474.87540
 96  9 11  0 42  0.0000000  0  6  1 14 15 22 25 29
    -80563.57700  24046150.40600                    269356.35240  24046156.52340
 -16051062.85700  21579416.62500                 -12345949.28640  21579421.33640
 -15521299.88700  21332310.09400                 -11886824.45540  21332315.01640
  -3510400.89500  23820402.41400                  -2556225.14540  23820408.28540
 -18481672.78800  21026859.30500                 -14255974.59240  21026862.87940
 -12711195.45200  22140988.32000                  -9640968.42940  22140992.28140
 96  9 11  0 42 30.0000000  0  6  1 14 15 22 25 29
      1577.43000  24061781.54700                    333362.35640  24061788.10940
 -16115320.33100  21567188.36700                 -12396020.03840  21567192.93840
 -15461995.95200  21343595.30500                 -11840613.61040  21343600.50840
  -3600944.27100  23803172.80500                  -2626778.34240  23803178.44140
 -18434444.18900  21035846.71900                 -14219173.08740  21035850.24640
 -12755605.63600  22132537.63300                  -9675573.75740  22132541.50040
 96  9 11  0 43  0.0000000  0  6  1 14 15 22 25 29
     83746.90100  24077417.50800                    397390.47140  24077422.33640
 -16179285.51700  21555016.40600                 -12445863.03240  21555021.00040
 -15402144.04800  21354984.84400                 -11793975.77740  21354990.21140
  -3691396.48100  23785960.14100                  -2697260.51940  23785966.52740
 -18386803.55800  21044912.30500                 -14182050.51640  21044915.78540
 -12799862.34200  22124116.00000                  -9710059.48440  22124119.90240
 96  9 11  0 43 30.0000000  0  6  1 14 15 22 25 29
    165957.11500  24093061.90600                    461450.37040  24093067.68440
 -16242954.94000  21542900.82800                 -12495475.56340  21542905.45740
 -15341741.01900  21366479.14800                 -11746908.49940  21366484.62140
  -3781758.27600  23768764.65600                  -2767672.22040  23768770.23440
 -18338736.75000  21054058.90600                 -14144595.85640  21054062.37540
 -12843944.99300  22115727.00800                  -9744409.59540  22115730.69940
 96  9 11  0 44  0.0000000  0  6  1 14 15 22 25 29
    248184.82500  24108708.82800                    525523.87540  24108715.05140
 -16306336.82100  21530839.28900                 -12544864.03340  21530843.90640
 -15280788.22500  21378078.10200                 -11699412.82540  21378083.44540
  -3872050.77400  23751582.75800                  -2838029.92440  23751589.05140
 -18290223.84200  21063290.72700                 -14106793.59440  21063294.37140
 -12887846.40400  22107372.96900                  -9778618.47440  22107376.73040
 96  9 11  0 44 30.0000000  0  6  1 14 15 22 25 29
    330412.52800  24124356.68000                    589597.38940  24124361.64840
 -16369455.08500  21518828.48400                 -12594047.09140  21518833.06640
 -15219296.47700  21389779.62500                 -11651497.19240  21389784.85240
  -3962294.02600  23734409.82000                  -2908349.28640  23734415.35240
 -18241244.39200  21072611.05500                 -14068627.78740  21072614.81640
 -12931581.09800  22099050.28100                  -9812697.44440  22099054.07840
 96  9 11  0 45  0.0000000  0  6  1 14 15 22 25 29
    412662.51700  24140008.13300                    653688.29040  24140013.58240
 -16432313.80800  21506866.75000                 -12643027.91140  21506871.35540
 -15157262.06100  21401584.45300                 -11603158.69640  21401589.82040
  -4052502.36200  23717243.56300                  -2978641.44340  23717250.02040
 -18191784.22800  21082023.16400                 -14030087.40240  21082026.96140
 -12975133.37000  22090762.76600                  -9846634.25840  22090766.77340
 96  9 11  0 45 30.0000000  0  6  1 14 15 22 25 29
    494943.32600  24155666.00000                    717803.14540  24155671.64840
 -16494912.77800  21494954.48400                 -12691806.32140  21494959.24240
 -15094680.93900  21413493.09400                 -11554394.20440  21413498.42640
  -4142685.71900  23700083.36700                  -3048914.09240  23700089.33240
 -18141839.62100  21091527.32800                 -13991169.52840  21091531.14840
 -13018490.43800  22082512.24200                  -9880418.97240  22082516.12140
 96  9 11  0 46  0.0000000  0  6  1 14 15 22 25 29
    577247.66200  24171327.55500                    781936.37640  24171333.53140
 -16557257.10200  21483090.93000                 -12740386.30140  21483095.62940
 -15031561.88700  21425504.28100                 -11505210.53940  21425509.61340
  -4232830.42100  23682928.49200                  -3119156.65740  23682935.07840
 -18091415.75500  21101122.65600                 -13951878.20140  21101126.28940
 -13061679.14900  22074293.58600                  -9914072.50040  22074297.51240
 96  9 11  0 46 30.0000000  0  6  1 14 15 22 25 29
    659582.62700  24186995.93000                    846093.48040  24187001.80140
 -16619346.63600  21471275.38300                 -12788767.74340  21471280.42240
 -14967911.07700  21437616.83600                 -11455612.51940  21437622.10940
  -4322908.71100  23665787.25800                  -3189347.45140  23665793.08240
 -18040527.45300  21110806.50000                 -13912224.97540  21110810.12140
 -13104704.16300  22066106.03900                  -9947598.46540  22066109.62540
 96  9 11  0 47  0.0000000  0  6  1 14 15 22 25 29
    741948.61300  24202669.11700                    910274.74740  24202673.89840
 -16681184.53800  21459508.00000                 -12836953.10740  21459512.84040
 -14903739.59900  21449828.19500                 -11405608.78840  21449833.31640
  -4412903.62900  23648661.64100                  -3259473.29440  23648666.17640
 -17989205.67400  21120572.70300                 -13872233.97840  21120576.40640
 -13147567.61800  22057949.55500                  -9980998.54040  22057953.53940
 96  9 11  0 47 30.0000000  0  6  1 14 15 22 25 29
    824369.47200  24218353.73400                    974498.75840  24218359.34840
 -16742734.89700  21447795.35900                 -12884914.41840  21447800.08240
 -14839017.07400  21462144.34400                 -11355175.67140  21462149.67640
  -4502752.09200  23631563.61700                  -3329485.05240  23631568.73840
 -17937422.35800  21130426.87500                 -13831883.33940  21130430.33240
 -13190249.20500  22049827.46100                 -10014256.90740  22049831.29340
 96  9 11  0 48  0.0000000  0  6  1 14 15 22 25 29
    906824.71900  24234044.44500                   1038749.60340  24234049.18040
 -16804013.26100  21436134.43000                 -12932663.77740  21436139.09440
 -14773768.55800  21474560.82000                 -11304332.69040  21474566.09440
  -4592464.66600  23614492.54700                  -3399390.81740  23614498.06640
 -17885198.82600  21140364.53100                 -13791189.67640  21140367.97740
 -13232776.82600  22041734.58600                 -10047395.30240  22041738.30140
 96  9 11  0 48 30.0000000  0  6  1 14 15 22 25 29
    989331.13400  24249745.12500                   1103040.26940  24249750.44540
 -16865012.75400  21424526.84400                 -12980195.84640  21424531.61340
 -14707985.03100  21487078.84400                 -11253072.81840  21487084.21140
  -4682035.26300  23597447.70300                  -3469186.09240  23597453.77340
 -17832553.48700  21150382.68000                 -13750167.33240  21150386.04340
 -13275136.89300  22033673.96100                 -10080403.13040  22033677.57040
 96  9 11  0 49  0.0000000  0  6  1 14 15 22 25 29
   1071888.35100  24265455.24200                   1167370.53740  24265460.80940
 -16925741.25400  21412970.64100                 -13027516.75240  21412975.25840
 -14641675.77600  21499697.43800                 -11201403.28840  21499702.53540
  -4771488.57700  23580424.73400                  -3538889.86940  23580430.41840
 -17779510.20800  21160476.28100                 -13708834.90940  21160479.84440
 -13317333.72400  22025644.15600                 -10113283.76140  22025647.94140
 96  9 11  0 49 30.0000000  0  6  1 14 15 22 25 29
   1154498.47300  24281175.48400                   1231742.06740  24281180.10240
 -16986195.28800  21401466.78100                 -13074623.78140  21401471.39840
 -14574835.34900  21512416.58600                 -11149319.85440  21512421.52040
  -4860832.10200  23563423.62500                  -3608508.17540  23563429.35540
 -17726062.51800  21170647.10900                 -13667187.35640  21170650.84840
 -13359371.98000  22017644.35200                 -10146040.82640  22017648.07840
 96  9 11  0 50  0.0000000  0  6  1 14 15 22 25 29
   1237149.26200  24296903.15600                   1296145.24940  24296908.94540
 -17046378.07100  21390014.32000                 -13121519.45640  21390018.69140
 -14507472.04000  21525235.54700                 -11096828.98640  21525240.62140
  -4950078.17900  23546440.70300                  -3678050.49740  23546447.06640
 -17672215.77300  21180893.66400                 -13625228.85540  21180897.29740
 -13401245.37400  22009676.18800                 -10178669.42440  22009680.25440
 96  9 11  0 50 30.0000000  0  6  1 14 15 22 25 29
   1319831.90800  24312636.93000                   1360573.28140  24312642.73040
 -17106282.87600  21378614.71900                 -13168198.52040  21378619.34840
 -14439590.29000  21538153.00800                 -11043934.13140  21538158.28140
  -5039221.16600  23529477.22700                  -3747512.54640  23529481.77340
 -17617969.64400  21191216.46100                 -13582959.14440  21191220.02340
 -13442944.38900  22001741.01600                 -10211162.15140  22001745.11740
 96  9 11  0 51  0.0000000  0  6  1 14 15 22 25 29
   1402550.95300  24328377.68000                   1425029.64740  24328382.29740
 -17165882.63600  21367273.07800                 -13214639.88240  21367277.91840
 -14371187.19200  21551169.34400                 -10990633.03740  21551174.62940
  -5128250.75000  23512535.43800                  -3816886.19140  23512540.09040
 -17563287.44800  21201622.20300                 -13540349.63740  21201625.70740
 -13484456.33400  21993841.51600                 -10243509.10040  21993845.88740
 96  9 11  0 51 30.0000000  0  6  1 14 15 22 25 29
   1485283.22500  24344121.62500                   1489496.28740  24344127.12140
 -17225185.23700  21355988.17200                 -13260849.69240  21355992.85940
 -14302284.52300  21564281.24200                 -10936942.66640  21564286.83240
  -5217171.50300  23495614.56300                  -3886175.04040  23495620.59840
 -17508163.10800  21212112.00800                 -13497395.60440  21212115.46540
 -13525803.37100  21985973.21900                 -10275727.55140  21985977.35540
 96  9 11  0 52  0.0000000  0  6  1 14 15 22 25 29
   1568036.70400  24359868.33600                   1553979.51640  24359875.47740
 -17284176.16400  21344762.50800                 -13306816.63840  21344767.27740
 -14232881.51000  21577488.33600                 -10882862.40340  21577493.68040
  -5305976.40800  23478715.68000                  -3955373.64340  23478720.61340
 -17452586.00500  21222687.90600                 -13454088.76840  21222691.39840
 -13566957.63000  21978142.08600                 -10307795.78340  21978145.87140
 96  9 11  0 52 30.0000000  0  6  1 14 15 22 25 29
   1650847.93300  24375626.93800                   1618507.76540  24375633.59440
 -17342830.32000  21333601.17200                 -13352521.17040  21333605.70740
 -14162959.22000  21590794.13300                 -10828377.51740  21590799.54740
  -5394641.48700  23461842.57000                  -4024463.24940  23461848.53540
 -17396537.54000  21233353.35900                 -13410414.64140  21233357.09840
 -13607904.34900  21970350.11700                 -10339702.31040  21970354.03140
 96  9 11  0 53  0.0000000  0  6  1 14 15 22 25 29
   1733711.37700  24391395.88300                   1683076.61540  24391401.16840
 -17401148.17500  21322503.60900                 -13397963.65040  21322508.30940
 -14092519.35400  21604198.55500                 -10773489.32940  21604203.64140
  -5483163.76100  23444997.71100                  -4093441.63840  23445003.60540
 -17340023.39400  21244107.78900                 -13366377.64540  21244111.64540
 -13648653.66000  21962595.93800                 -10371455.00540  21962599.68840
 96  9 11  0 53 30.0000000  0  6  1 14 15 22 25 29
   1816587.36600  24407165.84400                   1747655.26740  24407170.08640
 -17459166.27600  21311463.38300                 -13443172.55640  21311467.94140
 -14021584.67700  21617697.07000                 -10718215.57740  21617702.35540
  -5571553.77200  23428177.43800                  -4162316.91340  23428183.25040
 -17283075.61500  21254944.75800                 -13322002.75640  21254948.54340
 -13689230.44900  21954874.18000                 -10403073.27340  21954878.18840
 96  9 11  0 54  0.0000000  0  6  1 14 15 22 25 29
   1899477.70200  24422939.57000                   1812245.14240  24422942.93440
 -17516867.86000  21300482.99200                 -13488134.83140  21300487.53940
 -13950143.11200  21631291.93800                 -10662546.84740  21631296.97740
  -5659795.71100  23411385.10900                  -4231076.86240  23411391.75440
 -17225697.15800  21265863.36700                 -13277292.27940  21265867.08240
 -13729624.55700  21947187.68800                 -10434549.19240  21947191.76640
 96  9 11  0 54 30.0000000  0  6  1 14 15 22 25 29
   1982364.36600  24438712.96100                   1876832.10340  24438717.95340
 -17574261.27800  21289561.36700                 -13532856.97040  21289565.86740
 -13878205.06600  21644981.35200                 -10606491.24640  21644986.35540
  -5747882.62200  23394622.83600                  -4299715.98840  23394627.84040
 -17167910.83200  21276859.90600                 -13232263.97240  21276863.55140
 -13769871.95300  21939528.69500                 -10465910.78040  21939532.84440
 96  9 11  0 55  0.0000000  0  6  1 14 15 22 25 29
   2065237.16800  24454482.25000                   1941408.31340  24454485.74240
 -17631345.03700  21278698.62500                 -13577337.81840  21278703.24240
 -13805772.38400  21658764.68800                 -10550050.21140  21658769.93840
  -5835806.09100  23377892.28900                  -4368227.71840  23377898.00840
 -17109725.94200  21287932.14100                 -13186925.09840  21287935.65640
 -13809969.34700  21931898.36700                 -10497155.49140  21931902.18840
 96  9 11  0 55 30.0000000  0  6  1 14 15 22 25 29
   2148102.83600  24470252.11700                   2005978.87940  24470258.16440
 -17688136.56100  21267891.67200                 -13621590.94740  21267896.37140
 -13732855.77200  21672640.23400                 -10493232.08240  21672645.55540
  -5923581.80100  23361188.44500                  -4436624.31940  23361193.48440
 -17051153.69400  21299077.96100                 -13141284.38740  21299081.51240
 -13849919.03800  21924296.21900                 -10528285.10840  21924300.00440
 96  9 11  0 56  0.0000000  0  6  1 14 15 22 25 29
   2230996.35300  24486025.42200                   2070571.21940  24486034.12140
 -17744625.13100  21257142.25800                 -13665608.00740  21257147.01640
 -13659452.98100  21686607.99200                 -10436035.11640  21686613.19540
  -6011213.32300  23344511.97700                  -4504908.60440  23344516.75840
 -16992193.00200  21310297.85900                 -13095340.99240  21310301.53940
 -13889707.08800  21916724.73400                 -10559288.76240  21916728.80140
 96  9 11  0 56 30.0000000  0  6  1 14 15 22 25 29
   2313942.84800  24501809.96100                   2135204.84640  24501816.91440
 -17800805.44600  21246451.47700                 -13709384.87440  21246456.37540
 -13585557.83000  21700669.95300                 -10378454.50640  21700675.55540
  -6098689.39700  23327866.47700                  -4573071.73140  23327871.03540
 -16932827.07400  21321594.85900                 -13049081.83340  21321598.28140
 -13929317.32100  21909187.13300                 -10590153.87340  21909191.18840
 96  9 11  0 57  0.0000000  0  6  1 14 15 22 25 29
   2396939.81500  24517603.84400                   2199877.75040  24517610.14840
 -17856684.44700  21235817.61700                 -13752926.94740  21235822.36340
 -13511181.23400  21714823.33600                 -10320498.74040  21714828.89140
  -6186030.28500  23311246.47700                  -4641129.50640  23311252.92240
 -16873044.48200  21332970.96900                 -13002497.99740  21332974.54340
 -13968739.66400  21901685.28900                 -10620872.57140  21901689.22740
 96  9 11  0 57 30.0000000  0  6  1 14 15 22 25 29
   2480006.45900  24533410.71900                   2264605.04040  24533413.28540
 -17912246.13100  21225244.75000                 -13796221.75340  21225249.56640
 -13436310.50000  21729071.02300                 -10262157.93840  21729076.48440
  -6273219.52900  23294654.39100                  -4709069.12440  23294660.30940
 -16812819.71600  21344431.43000                 -12955569.61440  21344435.12140
 -14007961.68500  21894221.80500                 -10651435.16940  21894225.95340
 96  9 11  0 58  0.0000000  0  6  1 14 15 22 25 29
   2563107.64200  24549224.98400                   2329359.16540  24549230.58640
 -17967498.74500  21214730.46100                 -13839275.73340  21214735.28940
 -13360979.92000  21743405.84400                 -10203458.80340  21743411.37540
  -6360267.88100  23278089.65600                  -4776898.95440  23278095.58640
 -16752190.00800  21355968.87500                 -12908325.69340  21355972.56640
 -14047014.13200  21886790.60900                 -10681865.64540  21886794.45340
 96  9 11  0 58 30.0000000  0  6  1 14 15 22 25 29
   2646250.33100  24565046.39800                   2394145.71540  24565054.18440
 -18022405.45500  21204282.14800                 -13882060.17640  21204287.16440
 -13285169.82300  21757832.14800                 -10144386.01640  21757837.62140
  -6447151.89600  23261556.16400                  -4844600.73640  23261561.87140
 -16691139.62400  21367586.39800                 -12860753.96740  21367590.11340
 -14085879.66700  21879394.55500                 -10712150.46540  21879398.43440
 96  9 11  0 59  0.0000000  0  6  1 14 15 22 25 29
   2729432.14700  24580875.07800                   2458962.69040  24580880.15240
 -18076954.12000  21193901.90600                 -13924565.61340  21193906.82840
 -13208876.65300  21772350.21900                 -10084936.81440  21772355.86740
  -6533858.79500  23245056.31300                  -4912164.49340  23245061.37540
 -16629684.10500  21379280.86700                 -12812866.55340  21379284.61740
 -14124551.79900  21872035.61700                 -10742284.58440  21872039.32040
 96  9 11  0 59 30.0000000  0  6  1 14 15 22 25 29
   2812640.42200  24596709.34400                   2523800.23240  24596713.08240
 -18131146.90800  21183589.42200                 -13966793.75140  21183594.12140
 -13132113.60800  21786957.66400                 -10025121.47040  21786963.24240
  -6620386.64600  23228591.00800                  -4979588.72140  23228595.90640
 -16567858.60700  21391046.10900                 -12764690.84240  21391049.56640
 -14163043.11700  21864710.57000                 -10772277.81240  21864714.29740
 96  9 11  1  0  0.0000000  0  6  1 14 15 22 25 29
   2895872.53500  24612548.01600                   2588656.45940  24612553.88740
 -18184971.12300  21173347.03900                 -14008734.68840  21173351.78540
 -13054880.12600  21801654.96100                  -9964939.55940  21801660.38740
  -6706739.55600  23212157.75800                  -5046876.66640  23212163.48840
 -16505665.06900  21402881.35200                 -12716228.35040  21402884.99640
 -14201345.75400  21857421.99200                 -10802124.01740  21857425.61340
 96  9 11  1  0 30.0000000  0  6  1 14 15 22 25 29
   2979099.59500  24628385.72700                   2653508.66140  24628390.88340
 -18238461.17300  21163168.04700                 -14050415.23940  21163172.55940
 -12977189.16600  21816438.78100                  -9904401.17240  21816444.03140
  -6792936.71400  23195755.43000                  -5114043.22740  23195760.82040
 -16443108.37500  21414785.25800                 -12667482.87840  21414788.85540
 -14239476.18300  21850165.92200                 -10831836.02840  21850169.89540
 96  9 11  1  1  0.0000000  0  6  1 14 15 22 25 29
   3062329.50800  24644223.75800                   2718363.14540  24644230.02740
 -18291626.83600  21153050.89800                 -14091843.02140  21153055.62140
 -12899035.63900  21831311.21900                  -9843502.33640  21831316.39840
  -6878962.99400  23179384.89800                  -5181076.63640  23179391.27340
 -16380173.22800  21426761.27300                 -12618442.50840  21426765.05940
 -14277438.80100  21842942.02300                 -10861417.27840  21842946.04340
 96  9 11  1  1 30.0000000  0  6  1 14 15 22 25 29
   3145580.54300  24660065.99200                   2783234.03940  24660071.75840
 -18344464.86800  21142996.53900                 -14133015.50240  21143001.07440
 -12820415.13500  21846272.42200                  -9782239.62440  21846277.70740
  -6964813.71600  23163048.13300                  -5247973.26840  23163053.24240
 -16316826.97700  21438815.90600                 -12569081.79440  21438819.45740
 -14315234.07000  21835749.48400                 -10890868.13340  21835753.51640
 96  9 11  1  2  0.0000000  0  6  1 14 15 22 25 29
   3228852.78000  24675911.94500                   2848121.49440  24675916.96140
 -18396987.19300  21133001.62500                 -14173941.97640  21133006.21940
 -12741340.62800  21861319.54700                  -9720623.13640  21861324.41040
  -7050493.73500  23146743.74200                  -5314736.86340  23146749.01640
 -16253070.70400  21450948.29700                 -12519401.58540  21450951.87140
 -14352878.61600  21828586.40600                 -10920201.53340  21828590.22740
 96  9 11  1  2 30.0000000  0  6  1 14 15 22 25 29
   3312165.79100  24691766.37500                   2913040.68240  24691772.83240
 -18449185.95800  21123068.69500                 -14214616.33040  21123073.19540
 -12661809.37300  21876453.72700                  -9658650.74340  21876459.03540
  -7135986.06000  23130475.43000                  -5381354.22140  23130481.18440
 -16188907.11400  21463158.35900                 -12469403.98740  21463162.01640
 -14390380.65800  21821449.91400                 -10949423.89240  21821453.82840
 96  9 11  1  3  0.0000000  0  6  1 14 15 22 25 29
   3395538.54800  24707631.42200                   2978006.45140  24707636.77740
 -18501048.24500  21113199.67200                 -14255028.49340  21113204.07840
 -12581834.81600  21891672.58600                  -9596332.92740  21891677.81340
  -7221287.88700  23114242.51600                  -5447823.13140  23114248.34040
 -16124351.32500  21475442.77300                 -12419100.77440  21475446.50040
 -14427750.73700  21814338.43800                 -10978543.42440  21814342.19940
 96  9 11  1  3 30.0000000  0  6  1 14 15 22 25 29
   3478988.91500  24723511.78100                   3043032.66740  24723517.45340
 -18552539.21600  21103401.07000                 -14295151.32140  21103405.66440
 -12501404.94700  21906977.70300                  -9533660.32540  21906983.22340
  -7306373.11900  23098052.10200                  -5514123.27540  23098057.72740
 -16059408.28200  21487800.67200                 -12368495.81140  21487804.25840
 -14464954.42700  21807258.84400                 -11007533.30440  21807262.64140
 96  9 11  1  4  0.0000000  0  6  1 14 15 22 25 29
   3562490.02800  24739401.25000                   3108098.44640  24739405.15240
 -18603666.60300  21093671.78900                 -14334990.84040  21093676.37140
 -12420538.80400  21922366.06300                  -9470647.76940  21922371.38340
  -7391248.71900  23081900.21100                  -5580260.08240  23081905.36740
 -15994124.01800  21500223.95300                 -12317624.96440  21500227.45740
 -14502001.36500  21800209.04700                 -11036401.03440  21800213.10240
 96  9 11  1  4 30.0000000  0  6  1 14 15 22 25 29
   3646043.95800  24755301.96900                   3173205.37540  24755307.12540
 -18654427.84400  21084012.50000                 -14374545.04740  21084017.08240
 -12339234.68500  21937838.32000                  -9407293.93540  21937843.73440
  -7475907.47000  23065790.60200                  -5646227.90140  23065795.86340
 -15928489.97900  21512713.68000                 -12266481.56240  21512717.18440
 -14538880.24700  21793190.98400                 -11065137.80640  21793195.06340
 96  9 11  1  5  0.0000000  0  6  1 14 15 22 25 29
   3729636.29800  24771207.83600                   3238342.27840  24771213.48440
 -18704826.95700  21074421.70300                 -14413817.08040  21074426.20340
 -12257496.66700  21953391.84400                  -9343601.98740  21953397.07040
  -7560344.10000  23049722.56300                  -5712022.64540  23049727.40240
 -15862504.71200  21525270.40600                 -12215064.47340  21525273.93440
 -14575572.58000  21786208.53100                 -11093729.21640  21786212.72740
 96  9 11  1  5 30.0000000  0  6  1 14 15 22 25 29
   3813247.95000  24787118.68000                   3303494.17340  24787122.46540
 -18754870.67800  21064898.86700                 -14452812.18240  21064903.33240
 -12175321.33100  21969029.32800                  -9279569.27440  21969034.82440
  -7644558.85500  23033696.79700                  -5777644.49240  23033700.98040
 -15796165.39700  21537894.26600                 -12163371.50440  21537897.80540
 -14612063.48500  21779264.79700                 -11122163.67440  21779268.54740
 96  9 11  1  6  0.0000000  0  6  1 14 15 22 25 29
   3896870.08900  24803031.83600                   3368654.23740  24803038.09440
 -18804572.73000  21055440.93800                 -14491541.04840  21055445.46140
 -12092714.55300  21984749.18000                  -9215200.37140  21984754.64140
  -7728565.57000  23017710.75000                  -5843104.25940  23017717.32440
 -15729457.61800  21550588.34400                 -12111391.41640  21550592.09440
 -14648368.07300  21772356.21900                 -11150452.95040  21772360.21540
 96  9 11  1  6 30.0000000  0  6  1 14 15 22 25 29
   3980508.25300  24818947.45300                   3433826.81440  24818951.09840
 -18853922.63300  21046049.66400                 -14529995.51340  21046054.31640
 -12009670.27600  22000551.58600                  -9150490.56540  22000557.00040
  -7812356.97100  23001766.03100                  -5908396.22040  23001770.63740
 -15662355.74500  21563357.42200                 -12059104.24640  21563360.90240
 -14684481.04800  21765484.23400                 -11178592.91840  21765487.97340
 96  9 11  1  7  0.0000000  0  6  1 14 15 22 25 29
   4064149.32300  24834863.44500                   3499001.79040  24834873.51640
 -18902918.43000  21036726.09400                 -14568174.04940  21036730.81640
 -11926194.44100  22016436.91400                  -9085444.48840  22016442.48040
  -7895928.66100  22985863.02300                  -5973516.95940  22985867.04340
 -15594871.84100  21576199.00000                 -12006519.39440  21576202.84440
 -14720410.18600  21758647.25800                 -11206589.63840  21758650.91440
 96  9 11  1  7 30.0000000  0  6  1 14 15 22 25 29
   4147803.09100  24850783.29700                   3564186.39840  24850788.00840
 -18951540.64900  21027473.68800                 -14606061.48840  21027478.27040
 -11842282.77500  22032404.80500                  -9020058.79640  22032409.96140
  -7979268.79500  22970003.35200                  -6038457.28440  22970009.43440
 -15526994.26400  21589115.61700                 -11953627.77940  21589119.75440
 -14756156.84500  21751844.80500                 -11234444.17040  21751848.60240
 96  9 11  1  8  0.0000000  0  6  1 14 15 22 25 29
   4231476.09800  24866704.74200                   3629386.19340  24866708.62140
 -18999769.46900  21018296.20300                 -14643642.38240  21018300.89140
 -11757943.66600  22048454.00800                  -8954340.02640  22048459.19940
  -8062371.21400  22954189.75800                  -6103212.36540  22954194.58640
 -15458726.77200  21602106.75800                 -11900432.33440  21602110.62540
 -14791735.87200  21745074.36700                 -11262168.07740  21745077.97740
 96  9 11  1  8 30.0000000  0  6  1 14 15 22 25 29
   4315165.57800  24882630.42200                   3694598.70740  24882637.32840
 -19047608.49200  21009192.36700                 -14680919.53640  21009196.86740
 -11673194.22700  22064581.34400                  -8888301.53140  22064586.40640
  -8145225.42500  22938422.48400                  -6167774.03840  22938428.15640
 -15390088.51500  21615168.21100                 -11846947.98740  21615171.93840
 -14827163.33000  21738332.77300                 -11289773.87040  21738336.44140
 96  9 11  1  9  0.0000000  0  5 14 15 22 25 29
 -19095059.70200  21000162.87500                 -14717894.50240  21000167.43440
 -11588039.81300  22080785.75000                  -8821947.46540  22080791.35240
  -8227824.19400  22922705.10900                  -6232136.67140  22922710.39540
 -15321092.86200  21628297.64800                 -11793185.14640  21628301.41040
 -14862436.00100  21731620.48400                 -11317259.05440  21731624.34040
 96  9 11  1  9 30.0000000  0  5 14 15 22 25 29
 -19142112.32900  20991209.05500                 -14754558.88340  20991213.74240
 -11502473.28800  22097068.57000                  -8755272.26640  22097074.54740
  -8310165.32800  22907035.94500                  -6296298.53640  22907041.60540
 -15251728.89300  21641497.32000                 -11739135.30540  21641500.93040
 -14897538.82400  21724940.57000                 -11344611.89240  21724944.15640
 96  9 11  1 10  0.0000000  0  5 14 15 22 25 29
 -19188763.69400  20982331.50000                 -14790910.59240  20982336.08240
 -11416487.29600  22113431.09400                  -8688270.21740  22113436.60240
  -8392236.46000  22891418.09400                  -6360250.02540  22891423.14540
 -15181998.51500  21654766.62500                 -11684799.94840  21654770.16440
 -14932459.85800  21718295.51600                 -11371823.07840  21718299.14840
 96  9 11  1 10 30.0000000  0  5 14 15 22 25 29
 -19235033.38200  20973526.79700                 -14826964.89140  20973531.29740
 -11330091.84200  22129871.61700                  -8620949.09740  22129876.79740
  -8474054.51800  22875848.66400                  -6424004.30840  22875853.98440
 -15111920.35800  21668102.01600                 -11630193.59740  21668105.71940
 -14967193.86100  21711685.62500                 -11398888.52540  21711689.18840
 96  9 11  1 11  0.0000000  0  5 14 15 22 25 29
 -19280928.43900  20964793.25800                 -14862727.26840  20964797.84040
 -11243294.98400  22146388.34400                  -8553315.20040  22146393.81640
  -8555645.32100  22860322.28100                  -6487581.52140  22860328.04740
 -15041505.53300  21681501.46100                 -11575324.90140  21681504.98840
 -15001737.16100  21705112.40600                 -11425805.36740  21705116.25040
 96  9 11  1 11 30.0000000  0  5 14 15 22 25 29
 -19326427.78900  20956134.87500                 -14898181.30740  20956139.24640
 -11156089.19200  22162983.10900                  -8485362.65840  22162988.74640
  -8637002.53800  22844840.68000                  -6550976.73240  22844846.10540
 -14970747.15200  21694966.36700                 -11520188.50640  21694969.77740
 -15036079.57700  21698577.46900                 -11452565.68540  21698581.12540
 96  9 11  1 12  0.0000000  0  5 14 15 22 25 29
 -19371524.68100  20947553.28100                 -14933321.74040  20947557.80540
 -11068471.74200  22179656.25800                  -8417089.34940  22179661.89540
  -8718114.09500  22829405.31300                  -6614180.49140  22829410.56340
 -14899651.12300  21708495.51600                 -11464789.00740  21708498.99640
 -15070213.76400  21692081.78900                 -11479163.74440  21692085.45740
 96  9 11  1 12 30.0000000  0  5 14 15 22 25 29
 -19416233.02800  20939045.61700                 -14968159.40140  20939050.32840
 -10980453.91800  22196405.49200                  -8348504.05840  22196411.16440
  -8798985.43100  22814016.03100                  -6677197.06540  22814021.43440
 -14828216.37900  21722088.89800                 -11409125.57240  21722092.32040
 -15104155.30600  21685622.93800                 -11505611.68940  21685626.67640
 96  9 11  1 13  0.0000000  0  5 14 15 22 25 29
 -19460546.48100  20930612.85900                 -15002689.35940  20930617.39540
 -10892036.28800  22213231.21100                  -8279607.24040  22213236.74240
  -8879591.67400  22798677.50800                  -6740007.07340  22798682.52340
 -14756431.76100  21735749.09400                 -11353189.51240  21735752.77340
 -15137921.33200  21679197.30500                 -11531922.86840  21679200.91440
 96  9 11  1 13 30.0000000  0  5 14 15 22 25 29
 -19504459.45800  20922256.72700                 -15036907.26140  20922261.14540
 -10803224.77800  22230130.82000                  -8210403.48740  22230136.48040
  -8959918.59200  22783391.75800                  -6802599.42740  22783396.39840
 -14684300.38600  21749475.23400                 -11296983.24640  21749478.75040
 -15171528.19100  21672802.15600                 -11558110.01740  21672805.69540
 96  9 11  1 14  0.0000000  0  5 14 15 22 25 29
 -19547986.20100  20913973.77300                 -15070824.19540  20913977.98040
 -10714026.71900  22247104.93800                  -8140898.52540  22247110.45740
  -9039965.65200  22768158.85200                  -6864973.70440  22768164.91040
 -14611817.86500  21763268.30500                 -11240503.36740  21763271.99640
 -15204991.72200  21666434.40600                 -11584185.49140  21666438.01640
 96  9 11  1 14 30.0000000  0  5 14 15 22 25 29
 -19591104.89100  20905768.58600                 -15104423.16740  20905772.92240
 -10624429.14100  22264154.46100                  -8071082.24440  22264160.10940
  -9119703.23200  22752985.97700                  -6927106.84840  22752990.54740
 -14538955.72800  21777133.43800                 -11183727.68140  21777137.09440
 -15238305.14100  21660094.84400                 -11610143.99440  21660098.64140
 96  9 11  1 15  0.0000000  0  5 14 15 22 25 29
 -19633815.79600  20897640.95300                 -15137704.38140  20897645.47740
 -10534440.50200  22281279.00000                  -8000961.24940  22281284.96540
  -9199142.56200  22737868.94500                  -6989007.57140  22737873.84440
 -14465734.27100  21791066.89800                 -11126672.00440  21791070.62540
 -15271464.28300  21653784.85200                 -11635982.27140  21653788.61340
 96  9 11  1 15 30.0000000  0  5 14 15 22 25 29
 -19676134.76400  20889587.82800                 -15170680.18640  20889592.35240
 -10444064.24200  22298477.00800                  -7930538.21240  22298482.63340
  -9278296.94600  22722806.28100                  -7050686.29340  22722811.55540
 -14392166.23700  21805066.58600                 -11069346.26340  21805070.26640
 -15304448.66800  21647508.35900                 -11661684.37540  21647512.19140
 96  9 11  1 16  0.0000000  0  5 14 15 22 25 29
 -19718070.54000  20881607.72700                 -15203357.40240  20881612.26240
 -10353312.59300  22315746.82800                  -7859822.65940  22315752.25440
  -9357172.17700  22707796.56300                  -7112147.46240  22707801.83640
 -14318263.68900  21819129.67200                 -11011759.86640  21819133.39840
 -15337249.05700  21641266.50000                 -11687243.11140  21641270.15640
 96  9 11  1 16 30.0000000  0  5 14 15 22 25 29
 -19759608.67600  20873703.39800                 -15235724.77840  20873707.91040
 -10262184.97400  22333087.71100                  -7788814.15340  22333093.37140
  -9435757.03800  22692842.53100                  -7173382.38440  22692847.85240
 -14244034.10400  21833255.14800                 -10953918.63840  21833258.95740
 -15369847.89000  21635063.20300                 -11712644.79240  21635066.88340
 96  9 11  1 17  0.0000000  0  5 14 15 22 25 29
 -19800727.93300  20865878.60900                 -15267765.75540  20865883.16840
 -10170678.76100  22350500.70300                  -7717510.62740  22350506.25840
  -9514045.38600  22677944.82800                  -7234386.25140  22677950.52340
 -14169484.59200  21847441.53100                 -10895828.11040  21847445.22340
 -15402224.56900  21628902.17200                 -11737873.36540  21628905.91040
 96  9 11  1 17 30.0000000  0  5 14 15 22 25 29
 -19841402.72100  20858138.60200                 -15299460.38840  20858142.99640
 -10078797.88000  22367985.14100                  -7645915.16840  22367990.85940
  -9592033.86200  22663103.93800                  -7295156.46240  22663108.96540
 -14094612.49100  21861689.10200                 -10837486.21740  21861692.71140
 -15434377.36700  21622783.56300                 -11762927.48340  21622787.11340
 96  9 11  1 18  0.0000000  0  5 14 15 22 25 29
 -19881613.76300  20850486.60200                 -15330793.66440  20850491.10240
  -9986548.50400  22385539.75800                  -7574032.56340  22385545.17240
  -9669714.45900  22648321.46900                  -7355686.74840  22648326.76640
 -14019409.03500  21876000.01600                 -10778886.13340  21876003.50840
 -15466319.05000  21616705.35200                 -11787817.09340  21616709.05540
 96  9 11  1 18 30.0000000  0  5 14 15 22 25 29
 -19921364.01600  20842922.43000                 -15361767.88340  20842926.83640
  -9893938.05100  22403162.53100                  -7501868.59340  22403168.35540
  -9747097.86800  22633596.12500                  -7415985.47640  22633601.24640
 -13943876.73400  21890373.29700                 -10720029.80040  21890377.04740
 -15498069.97900  21610663.19500                 -11812558.07140  21610667.07440
 96  9 11  1 19  0.0000000  0  5 14 15 22 25 29
 -19960658.09600  20835444.96900                 -15392386.64140  20835449.55140
  -9800974.73200  22420852.88300                  -7429429.67440  22420858.53140
  -9824195.28100  22618925.19500                  -7476061.33940  22618930.23440
 -13868019.28800  21904808.54700                 -10660920.10740  21904812.21540
 -15529642.63100  21604655.19500                 -11837160.12240  21604658.94540
 96  9 11  1 19 30.0000000  0  5 14 15 22 25 29
 -19999500.21700  20828053.48400                 -15422653.22640  20828058.03140
  -9707651.34900  22438611.73400                  -7356710.18340  22438617.38340
  -9900999.07400  22604309.73400                  -7535908.40440  22604315.19540
 -13791821.14800  21919308.75800                 -10601544.93640  21919312.34440
 -15561041.01200  21598680.33600                 -11861626.37740  21598684.05140
 96  9 11  1 20  0.0000000  0  5 14 15 22 25 29
 -20037906.21200  20820745.11700                 -15452579.97040  20820749.65240
  -9613967.17100  22456439.30500                  -7283709.55540  22456445.31640
  -9977493.29200  22589753.10200                  -7595514.24140  22589758.19940
 -13715284.97300  21933872.86700                 -10541906.36540  21933876.16040
 -15592274.11000  21592736.88300                 -11885963.84540  21592740.44540
 96  9 11  1 20 30.0000000  0  5 14 15 22 25 29
 -20075868.79100  20813520.95300                 -15482161.19940  20813525.60540
  -9519917.02700  22474336.46900                  -7210423.74740  22474341.68440
 -10053659.71700  22575259.03900                  -7654864.66640  22575264.14840
 -13638422.75700  21948499.19500                 -10482013.73640  21948502.95740
 -15623330.01200  21586827.04700                 -11910163.23640  21586830.52740
 96  9 11  1 21  0.0000000  0  6 14 15 18 22 25 29
 -20113412.24300  20806376.82000                 -15511415.83440  20806381.40240
  -9425523.99100  22492299.10200                  -7136870.76140  22492304.23440
    -27397.77510  24864829.28900
 -10129504.09300  22560826.39800                  -7713964.13640  22560831.88340
 -13561258.73600  21963182.95300                 -10421885.93740  21963186.52740
 -15654216.67400  21580949.61700                 -11934230.75640  21580953.22740
 96  9 11  1 21 30.0000000  0  6 14 15 18 22 25 29
 -20150547.82500  20799310.06300                 -15540352.64440  20799314.77340
  -9330802.30300  22510323.69500                  -7063061.68640  22510329.42640
   -102100.91000  24850613.07000
 -10205020.88800  22546456.03900                  -7772808.35440  22546460.50440
 -13483809.40300  21977921.09400                 -10361535.80540  21977924.52740
 -15684942.57100  21575102.57800                 -11958173.00440  21575106.09440
 96  9 11  1 22  0.0000000  0  6 14 15 18 22 25 29
 -20187236.57000  20792328.50800                 -15568941.27440  20792332.96140
  -9235716.42300  22528418.33600                  -6988968.82240  22528424.03140
   -176739.08800  24836410.37500                    -25195.48450  24836413.55140
 -10280160.64600  22532157.61700                  -7831358.77340  22532162.16440
 -13406038.65400  21992720.48400                 -10300935.22540  21992724.03540
 -15715453.27000  21569296.56300                 -11981947.56140  21569300.13740
 96  9 11  1 22 30.0000000  0  6 14 15 18 22 25 29
 -20223508.29800  20785426.30500                 -15597204.95140  20785430.77040
  -9140304.08700  22546574.68800                  -6914621.56540  22546580.03140
   -251348.85500  24822211.86700                    -83332.70140  24822213.41440
 -10354953.81400  22517924.72700                  -7889639.13240  22517929.90640
 -13327974.33000  22007575.52300                 -10240105.88440  22007579.40240
 -15745776.12000  21563526.34400                 -12005575.74640  21563529.89540
 96  9 11  1 23  0.0000000  0  6 14 15 18 22 25 29
 -20259350.01300  20778605.70300                 -15625133.55640  20778610.33240
  -9044561.06900  22564794.08600                  -6840016.64440  22564799.53540
   -325907.73600  24808024.24200
 -10429404.95800  22503757.05500                  -7947652.98240  22503762.32840
 -13249601.56400  22022489.52300                 -10179036.19640  22022493.26240
 -15775908.49400  21557792.28100                 -12029055.50940  21557795.92640
 96  9 11  1 23 30.0000000  0  6 14 15 18 22 25 29
 -20294729.78100  20771873.19500                 -15652702.19940  20771877.75440
  -8948474.94200  22583078.62500                  -6765144.35940  22583084.48440
   -400384.56200  24793851.43800                     -1932.56650  24793859.07040
 -10503497.51600  22489657.63300                  -8005387.41540  22489663.07040
 -13170910.82000  22037463.94500                 -10117718.73740  22037467.42640
 -15805832.55500  21552097.73400                 -12052372.95140  21552101.46140
 96  9 11  1 24  0.0000000  0  6 14 15 18 22 25 29
 -20329663.90600  20765225.49200                 -15679923.59040  20765229.94540
  -8852064.06600  22601424.60900                  -6690019.02440  22601430.09440
   -474790.24900  24779692.63300                    -59910.96340  24779697.76640
 -10577245.68900  22475624.21900                  -8062853.50240  22475629.44540
 -13091913.10000  22052496.60200                 -10056162.08240  22052499.93040
 -15835568.83700  21546439.31300                 -12075544.07140  21546443.02740
 96  9 11  1 24 30.0000000  0  6 14 15 18 22 25 29
 -20364140.76900  20758664.77300                 -15706788.67440  20758669.26240
  -8755334.13100  22619831.96900                  -6614645.07940  22619837.69940
   -549127.70200  24765546.14100                   -117836.23240  24765551.14540
 -10650660.99200  22461653.35200                  -8120060.21140  22461658.26240
 -13012626.64700  22067584.60200                  -9994380.43140  22067588.31640
 -15865123.34000  21540815.14800                 -12098573.55040  21540818.80540
 96  9 11  1 25  0.0000000  0  6 14 15 18 22 25 29
 -20398153.69100  20752192.24200                 -15733292.24640  20752196.62540
  -8658282.65000  22638300.15600                  -6539020.57840  22638305.67640
   -623392.48000  24751413.56300                   -175704.84840  24751418.67240
 -10723742.56000  22447746.45300                  -8177006.84040  22447751.42240
 -12933051.95100  22082727.03900                  -9932374.18040  22082730.68440
 -15894488.20200  21535227.35900                 -12121455.25440  21535231.05140
 96  9 11  1 25 30.0000000  0  6 14 15 18 22 25 29
 -20431714.54200  20745805.89800                 -15759443.54640  20745810.36340
  -8560921.09300  22656827.60200                  -6463154.46740  22656833.37940
   -697614.50200  24737290.75000                   -233540.14040  24737295.59040
 -10796486.68100  22433903.56300                  -8233690.52640  22433908.41440
 -12853195.28300  22097923.39100                  -9870148.20540  22097927.18840
 -15923675.27500  21529673.04700                 -12144198.41940  21529676.59840
 96  9 11  1 26  0.0000000  0  6 14 15 18 22 25 29
 -20464822.61200  20739505.61700                 -15785242.03640  20739510.11740
  -8463240.94300  22675415.65600                  -6387040.07440  22675421.28140
   -771804.28900  24723171.96100                   -291350.33340  24723177.11740
 -10868889.48500  22420125.93000                  -8290108.25540  22420130.72340
 -12773041.70600  22113175.81300                  -9807690.87840  22113179.30540
 -15952677.53600  21524154.10900                 -12166797.57340  21524157.76640
 96  9 11  1 26 30.0000000  0  6 14 15 18 22 25 29
 -20497467.61000  20733293.37500                 -15810679.68940  20733297.86340
  -8365250.41600  22694062.42200                  -6310683.84840  22694068.10540
   -845969.97200  24709059.39800                   -349141.72340  24709064.98840
 -10940953.64200  22406412.07800                  -8346262.10840  22406416.70740
 -12692601.52000  22128482.89100                  -9745010.21740  22128486.58240
 -15981497.87400  21518669.75000                 -12189254.97440  21518673.39540
 96  9 11  1 27  0.0000000  0  6 14 15 18 22 25 29
 -20529662.35900  20727166.68000                 -15835766.49540  20727171.23840
  -8266957.45700  22712767.06300                  -6234091.95240  22712772.32440
   -920107.23300  24694952.04700                   -406910.96340  24694958.34040
 -11012660.83000  22392767.14800                  -8402137.80840  22392771.89540
 -12611861.37000  22143847.20300                  -9682095.81640  22143851.34040
 -16010158.36900  21513215.80500                 -12211587.81740  21513219.47340
 96  9 11  1 27 30.0000000  0  6 14 15 18 22 25 29
 -20561404.49500  20721126.62500                 -15860500.62040  20721131.18440
  -8168360.46700  22731530.11700                  -6157263.15640  22731535.77740
   -994206.04300  24680850.56300                   -464650.26440  24680856.86740
 -11083998.70000  22379191.78900                  -8457725.73040  22379197.18040
 -12530818.17300  22159269.29700                  -9618945.28040  22159273.29340
 -16038654.61900  21507793.27300                 -12233792.68440  21507796.90640
 96  9 11  1 28  0.0000000  0  6 14 15 18 22 25 29
 -20592692.49000  20715172.70300                 -15884880.87040  20715177.08640
  -8069461.73500  22750349.43800                  -6080199.23040  22750355.35540
  -1068253.30800  24666758.70300                   -522349.39340  24666764.25840
 -11154959.95100  22365688.46100                  -8513020.18340  22365693.26640
 -12449473.23700  22174748.56300                  -9555559.61940  22174752.52340
 -16066984.78100  21502402.11700                 -12255868.12840  21502405.73840
 96  9 11  1 28 30.0000000  0  6 14 15 18 22 25 29
 -20623539.75300  20709302.71100                 -15908917.68940  20709307.07040
  -7970276.47200  22769223.50800                  -6002912.05040  22769229.41440
  -1142239.55600  24652680.93000                   -580000.93240  24652687.11740
 -11225543.38300  22352257.11700                  -8568020.24140  22352261.68840
 -12367833.41800  22190284.37500                  -9491944.17640  22190287.96140
 -16095168.09700  21497039.35900                 -12277829.14440  21497042.77040
 96  9 11  1 29  0.0000000  0  6 14 15 18 22 25 29
 -20653948.30600  20703515.98400                 -15932612.66040  20703520.46140
  -7870805.09400  22788152.38300                  -5925401.90240  22788158.04340
  -1216163.28100  24638613.54700                   -637603.84140  24638618.78540
 -11295753.98700  22338896.35200                  -8622729.77440  22338900.64140
 -12285894.41700  22205876.64800                  -9428095.61240  22205880.39840
 -16123196.74300  21491705.11700                 -12299669.63940  21491708.70340
 96  9 11  1 29 30.0000000  0  6 14 15 18 22 25 29
 -20683896.85800  20697817.04700                 -15955949.19040  20697821.43040
  -7771040.05000  22807137.31300                  -5847662.94140  22807143.25440
  -1290023.64300  24624557.94500                   -695157.32840  24624562.22340
 -11365602.50300  22325604.39800                  -8677157.17840  22325609.27340
 -12203658.66200  22221525.70300                  -9364015.80240  22221529.47740
 -16151030.25700  21486408.63300                 -12321358.08640  21486412.31340
 96  9 11  1 30  0.0000000  0  6 14 15 18 22 25 29
 -20713358.34700  20692210.76600                 -15978906.18940  20692215.37140
  -7670980.44500  22826178.17200                  -5769694.45740  22826183.90240
  -1363821.74100  24610515.20300                   -752662.25940  24610522.47340
 -11435084.23800  22312382.46900                  -8731298.76640  22312386.71140
 -12121131.37900  22237230.31300                  -9299708.83640  22237233.61740
 -16178654.67800  21481152.44500                 -12342883.60140  21481156.03140
 96  9 11  1 30 30.0000000  0  6 14 15 18 22 25 29
 -20742326.10900  20686698.27300                 -16001478.47040  20686702.82040
  -7570625.30100  22845274.60200                  -5691495.67040  22845279.95740
  -1437556.90500  24596483.69500                   -810118.22640  24596490.35240
 -11504199.79100  22299230.25800                  -8785155.02740  22299235.13340
 -12038326.47500  22252987.39800                  -9235185.54040  22252991.03140
 -16206046.07000  21475939.90600                 -12364227.53340  21475943.48040
 96  9 11  1 31  0.0000000  0  6 14 15 18 22 25 29
 -20770782.95300  20681283.25800                 -16023652.63140  20681287.85240
  -7469973.06500  22864427.88300                  -5613065.38740  22864433.26240
  -1511228.11600  24582464.66400                   -867524.29440  24582468.71940
 -11572951.36200  22286147.34400                  -8838727.65540  22286152.10240
 -11955265.23800  22268793.51600                  -9170462.49940  22268797.35940
 -16233185.77100  21470775.31300                 -12385375.34440  21470778.75840
 96  9 11  1 31 30.0000000  0  6 14 15 18 22 25 29
 -20798745.72800  20675962.07000                 -16045441.80340  20675966.60540
  -7369034.41600  22883636.48400                  -5534411.92940  22883641.64140
  -1584843.66300  24568456.32800                   -924887.00740  24568462.04740
 -11641328.18400  22273135.79700                  -8892008.27540  22273140.66040
 -11871967.73500  22284644.44500                  -9105555.36040  22284648.43040
 -16260086.56200  21465656.20300                 -12406336.98640  21465659.60240
 96  9 11  1 32  0.0000000  0  6 14 15 18 22 25 29
 -20826241.06200  20670729.93800                 -16066866.73940  20670734.44940
  -7267833.60400  22902894.80500                  -5455554.17440  22902900.31340
  -1658414.53500  24554456.30500                   -982214.89840  24554461.26240
 -11709323.47000  22260196.35200                  -8944991.58540  22260201.28540
 -11788456.33300  22300536.35900                  -9040481.54140  22300540.03940
 -16286796.87100  21460573.25000                 -12427150.20340  21460576.68440
 96  9 11  1 32 30.0000000  0  6 14 15 18 22 25 29
 -20853263.21000  20665587.78100                 -16087922.95840  20665592.21140
  -7166357.72100  22922204.77300                  -5376482.09440  22922210.28140
  -1731918.89000  24540468.70300                  -1039490.97340  24540475.77340
 -11776910.33900  22247335.30500                  -8997656.65240  22247340.55540
 -11704707.75300  22316472.81300                  -8975222.91440  22316476.37540
 -16313324.40100  21455525.23400                 -12447820.99440  21455529.00840
 96  9 11  1 33  0.0000000  0  6 14 15 18 22 25 29
 -20879813.26000  20660535.30500                 -16108611.31640  20660539.85240
  -7064617.59800  22941564.61700                  -5297204.10640  22941570.43040
  -1805362.15300  24526492.60200                  -1096719.52040  24526498.91840
 -11844082.03100  22234552.92200                  -9049998.20240  22234557.87940
 -11620710.86900  22332457.31300                  -8909770.79740  22332461.05140
 -16339704.45400  21450505.35900                 -12468376.85640  21450508.73440
 96  9 11  1 33 30.0000000  0  6 14 15 18 22 25 29
 -20905880.13900  20655575.05500                 -16128923.16040  20655579.39140
  -6962608.06400  22960976.89800                  -5217716.18340  22960982.68840
  -1878734.71500  24512529.55500                  -1153892.92240  24512534.74640
 -11910809.28700  22221854.92200                  -9101993.44140  22221859.92640
 -11536439.32800  22348493.55500                  -8844104.66140  22348497.43440
 -16365931.38900  21445514.78100                 -12488813.42640  21445518.37940
 96  9 11  1 34  0.0000000  0  6 14 15 18 22 25 29
 -20931445.26500  20650710.26600                 -16148844.04340  20650714.70740
  -6860327.93700  22980440.17200                  -5138017.41440  22980445.84440
  -1952018.30300  24498584.50800                  -1210996.95440  24498589.88740
 -11977093.46500  22209241.45300                  -9153643.42640  22209246.00040
 -11451875.96400  22364585.73400                  -8778211.13740  22364589.42640
 -16391996.23600  21440554.50800                 -12509123.68040  21440557.95340
 96  9 11  1 34 30.0000000  0  6 14 15 18 22 25 29
 -20956529.88000  20645936.75800                 -16168390.49140  20645941.22340
  -6757799.72000  22999950.64800                  -5058125.31140  22999956.15640
  -2025234.55900  24484652.08600                  -1268048.58240  24484654.11340
 -12042967.18400  22196705.92200                  -9204973.56240  22196710.76240
 -11367029.31800  22380731.18800                  -8712096.86740  22380735.04340
 -16417907.28800  21435624.01600                 -12529314.09540  21435627.56640
 96  9 11  1 35  0.0000000  0  6 14 15 18 22 25 29
 -20981135.83800  20641254.21900                 -16187563.96340  20641258.70740
  -6655032.47600  23019506.58600                  -4978046.97140  23019511.87140
  -2098395.60100  24470729.22700                  -1325057.10140  24470735.82440
 -12108440.59000  22184246.69500                  -9255991.77640  22184251.44140
 -11281904.00200  22396929.96900                  -8645765.46040  22396933.77740
 -16443650.53100  21430725.01600                 -12549373.76440  21430728.49640
 96  9 11  1 35 30.0000000  0  6 14 15 18 22 25 29
 -21005253.55600  20636665.00000                 -16206356.98640  20636669.53540
  -6552023.20600  23039108.92200                  -4897780.02740  23039114.91040
  -2171501.77100  24456818.17200                  -1382022.91340  24456823.73840
 -12173510.93500  22171864.28900                  -9306695.91140  22171869.16440
 -11196510.27400  22413179.72700                  -8579224.89940  22413183.35940
 -16469205.70300  21425862.18800                 -12569286.87140  21425865.60940
 96  9 11  1 36  0.0000000  0  6 14 15 18 22 25 29
 -21028883.07400  20632168.54700                 -16224769.59340  20632173.02340
  -6448771.27400  23058757.22700                  -4817324.02740  23058762.87540
  -2244560.34300  24442915.23400                  -1438951.65640  24442919.64140
 -12238185.72400  22159557.09400                  -9357091.81640  22159561.66440
 -11110852.49200  22429480.08600                  -8512478.57540  22429483.67240
 -16494581.57000  21421033.21100                 -12589060.26740  21421036.82040
 96  9 11  1 36 30.0000000  0  6 14 15 18 22 25 29
 -21052011.97100  20627767.08600                 -16242792.10340  20627771.56340
  -6345276.15500  23078451.50800                  -4736678.51240  23078457.27340
  -2317577.96700  24429020.57800                  -1495848.45640  24429024.60940
 -12302458.52900  22147326.31300                  -9407174.48440  22147331.39840
 -11024942.90300  22445828.31300                  -8445536.05040  22445831.69940
 -16519772.18300  21416239.46100                 -12608689.29840  21416242.90640
 96  9 11  1 37  0.0000000  0  6 14 15 18 22 25 29
 -21074626.95600  20623463.64100                 -16260414.16840  20623468.22340
  -6241535.46400  23098192.62500                  -4655841.63440  23098198.44940
  -2390546.05200  24415135.80500                  -1552706.69940  24415141.81640
 -12366322.06400  22135173.45300                  -9456938.23140  22135178.45740
 -10938809.86900  22462218.53100                  -8378419.39540  22462222.25840
 -16544767.21100  21411483.12500                 -12628165.93140  21411486.67640
 96  9 11  1 37 30.0000000  0  6 14 15 18 22 25 29
 -21096740.05300  20619255.46100                 -16277645.15240  20619260.09040
  -6137552.97500  23117979.22700                  -4574816.34540  23117985.01640
  -2463459.88800  24401260.16400                  -1609522.61340  24401265.15640
 -12429777.17800  22123098.14100                  -9506383.74140  22123103.29740
 -10852461.58500  22478650.43000                  -8311135.02240  22478654.08640
 -16569563.30500  21406764.60900                 -12647487.55740  21406768.18440
 96  9 11  1 38  0.0000000  0  6 14 15 18 22 25 29
 -21118358.99100  20615141.55500                 -16294491.07440  20615146.09040
  -6033343.96400  23137809.88300                  -4493614.54440  23137816.24640
  -2536319.84000  24387395.84400                  -1666296.59140  24387401.05940
 -12492835.80100  22111098.85200                  -9555520.28840  22111104.30140
 -10765908.32400  22495120.71900                  -8243690.91140  22495124.44540
 -16594159.02400  21402084.21100                 -12666653.03840  21402087.78540
 96  9 11  1 38 30.0000000  0  6 14 15 18 22 25 29
 -21139459.36000  20611126.36700                 -16310932.91140  20611130.85540
  -5928892.18100  23157686.53900                  -4412223.57940  23157692.25840
  -2609095.26800  24373547.22700                  -1723004.66140  24373550.61340
 -12555466.89600  22099180.15600                  -9604323.71540  22099184.92640
 -10679137.49700  22511632.86700                  -8176077.29240  22511636.82840
 -16618517.12900  21397449.06300                 -12685633.37540  21397452.57840
 96  9 11  1 39  0.0000000  0  6 14 15 18 22 25 29
 -21160057.55900  20607206.74200                 -16326983.44540  20607211.13740
  -5824205.91000  23177608.00800                  -4330649.90140  23177614.10240
  -2681798.93100  24359712.14100                  -1779656.85840  24359718.32840
 -12617659.34400  22087345.73400                  -9652785.33240  22087350.72740
 -10592136.03300  22528188.43000                  -8108283.94640  22528192.02740
 -16642650.42300  21392856.53900                 -12704438.52940  21392859.99640
 96  9 11  1 39 30.0000000  0  6 14 15 18 22 25 29
 -21180151.01600  20603383.14100                 -16342640.68040  20603387.52340
  -5719294.75500  23197571.72700                  -4248900.97040  23197577.53940
  -2754443.54900  24345887.89800                  -1836262.98840  24345892.97340
 -12679399.40100  22075596.85200                  -9700894.44240  22075601.65640
 -10504878.55400  22544793.06300                  -8040291.10840  22544796.77740
 -16666573.84700  21388303.99200                 -12723080.15340  21388307.48440
 96  9 11  1 40  0.0000000  0  6 14 15 18 22 25 29
 -21199719.95100  20599659.25000                 -16357889.19340  20599663.68040
  -5614155.27000  23217578.89100                  -4166974.13040  23217584.36340
  -2827017.87500  24332077.66400                  -1892814.40340  24332083.80540
 -12740674.78600  22063936.47700                  -9748641.48040  22063941.35240
 -10417345.44900  22561449.71100                  -7972083.49740  22561453.42640
 -16690299.77500  21383789.28900                 -12741567.88540  21383792.85240
 96  9 11  1 40 30.0000000  0  6 14 15 18 22 25 29
 -21218779.85700  20596032.32800                 -16372741.07740  20596036.66440
  -5508792.23100  23237629.24200                  -4084873.09240  23237635.28940
  -2899535.16100  24318277.76600                  -1949321.34040  24318284.10540
 -12801483.99600  22052364.82800                  -9796025.25340  22052369.39840
 -10329532.94900  22578160.13300                  -7903658.18740  22578163.80140
 -16713853.77800  21379307.03900                 -12759921.64640  21379310.46140
 96  9 11  1 41  0.0000000  0  6 14 15 18 22 25 29
 -21237345.26300  20592499.21900                 -16387207.63740  20592503.62540
  -5403221.05700  23257718.68000                  -4002609.87940  23257724.53940
  -2972014.02700  24304485.58600                  -2005798.35540  24304489.48840
 -12861844.07200  22040878.83600                  -9843059.06240  22040883.41840
 -10241457.70700  22594920.28100                  -7835028.13240  22594923.77340
 -16737259.22700  21374853.08600                 -12778159.65340  21374856.71940
 96  9 11  1 41 30.0000000  0  6 14 15 18 22 25 29
 -21255391.47800  20589065.03100                 -16401269.61040  20589069.48440
  -5297428.87000  23277850.49200                  -3920174.41940  23277855.62540
  -3044420.38400  24290706.91400                  -2062218.81240  24290712.69140
 -12921752.94100  22029478.44500                  -9889741.27840  22029482.93440
 -10153121.35800  22611730.11700                  -7766194.62640  22611733.79740
 -16760484.26300  21370433.43800                 -12796257.08340  21370436.91840
 96  9 11  1 42  0.0000000  0  6 14 15 18 22 25 29
 -21272934.13800  20585726.95300                 -16414939.20640  20585731.39540
  -5191423.58800  23298022.68000                  -3837572.94040  23298028.29340
  -3116745.74100  24276943.83600                  -2118576.17640  24276947.22340
 -12981226.53000  22018161.18000                  -9936084.31540  22018165.87940
 -10064552.05400  22628584.48400                  -7697179.57540  22628588.29340
 -16783529.97300  21366047.88300                 -12814214.77040  21366051.44540
 96  9 11  1 42 30.0000000  0  6 14 15 18 22 25 29
 -21289978.79500  20582483.57800                 -16428220.74840  20582487.99640
  -5085213.90300  23318233.50800                  -3754812.20740  23318238.86340
  -3189002.32800  24263193.53900                  -2174880.00440  24263197.25440
 -13040255.92700  22006928.06300                  -9982081.23940  22006932.94940
  -9975784.38900  22645476.32000                  -7628009.97640  22645480.08240
 -16806386.61900  21361698.66400                 -12832025.13640  21361702.08640
 96  9 11  1 43  0.0000000  0  6 14 15 18 22 25 29
 -21306498.76600  20579339.93800                 -16441093.44440  20579344.37940
  -4978794.66200  23338484.92200                  -3671888.13640  23338489.93840
  -3261170.73200  24249460.65600                  -2231115.06640  24249466.63340
 -13098824.01600  21995782.93800                 -10027718.70040  21995787.73040
  -9886819.94000  22662405.87500                  -7558687.02940  22662409.43840
 -16829026.75300  21357390.32000                 -12849666.79940  21357393.66040
 96  9 11  1 43 30.0000000  0  6 14 15 18 22 25 29
 -21322493.78500  20576295.88300                 -16453557.09640  20576300.33640
  -4872174.92600  23358774.02300                  -3588807.84740  23358779.64840
  -3333257.02000  24235743.03900                  -2287286.16940  24235746.37940
 -13156929.89000  21984725.49200                 -10072995.98240  21984730.48440
  -9797658.39400  22679372.50000                  -7489210.49340  22679376.10940
 -16851454.77500  21353122.60900                 -12867143.17340  21353125.96140
 96  9 11  1 44  0.0000000  0  6 14 15 18 22 25 29
 -21337977.91300  20573349.58600                 -16465622.64840  20573354.01640
  -4765369.95000  23379097.85900                  -3505583.21540  23379103.88340
  -3405294.53500  24222034.74200                  -2343419.22340  24222039.20740
 -13214568.86300  21973757.03100                 -10117909.45340  21973762.15240
  -9708321.67200  22696373.02300                  -7419597.47640  22696376.45740
 -16873689.87200  21348891.31300                 -12884469.21640  21348894.74640
 96  9 11  1 44 30.0000000  0  6 14 15 18 22 25 29
 -21352948.36300  20570500.78900                 -16477287.92440  20570505.11340
  -4658394.33500  23399454.88300                  -3422225.60340  23399460.57840
  -3477314.17400  24208330.57800                  -2399538.37040  24208334.70340
 -13271740.12600  21962877.64800                 -10162458.46340  21962882.66440
  -9618815.54400  22713405.57000                  -7349852.43840  22713409.41440
 -16895743.31200  21344694.53100                 -12901653.70840  21344697.98840
 96  9 11  1 45  0.0000000  0  6 14 15 18 22 25 29
 -21367374.50900  20567755.52300                 -16488529.07240  20567759.77740
  -4551227.66300  23419848.08600                  -3338719.14840  23419853.92240
  -3549297.30600  24194632.28100                  -2455629.05440  24194637.90640
 -13328425.28000  21952091.00000                 -10206628.69240  21952095.59440
  -9529095.94500  22730478.18000                  -7279941.06940  22730481.54340
 -16917600.83600  21340535.36700                 -12918685.53840  21340538.68440
 96  9 11  1 45 30.0000000  0  6 14 15 18 22 25 29
 -21381262.92900  20565112.62500                 -16499351.22040  20565117.06640
  -4443872.52000  23440276.74200                  -3255065.79640  23440282.43840
  -3621246.62400  24180940.84400                  -2511693.41940  24180945.16840
 -13384625.30100  21941396.65600                 -10250420.89440  21941401.34440
  -9439156.55300  22747593.14100                  -7209858.42740  22747596.63340
 -16939274.03600  21336410.97700                 -12935573.73540  21336414.52740
 96  9 11  1 46  0.0000000  0  6 14 15 18 22 25 29
 -21394612.61800  20562572.20300                 -16509753.58340  20562576.62140
  -4336329.32700  23460741.26600                  -3171265.96040  23460747.14840
  -3693144.27000  24167258.65600                  -2567717.52540  24167263.64840
 -13440334.83100  21930795.62500                 -10293830.90440  21930800.10240
  -9348990.45700  22764751.28900                  -7139599.14640  22764754.89840
 -16960760.37700  21332322.14100                 -12952316.33040  21332325.78540
 96  9 11  1 46 30.0000000  0  6 14 15 18 22 25 29
 -21407425.26300  20560134.04700                 -16519737.46140  20560138.51240
  -4228601.20400  23481241.68800                  -3087322.00140  23481247.53540
  -3764972.94000  24153590.50000                  -2623687.86240  24153594.95340
 -13495567.38400  21920285.04700                 -10336869.23540  21920289.61740
  -9258582.75700  22781955.46100                  -7069151.59740  22781959.24640
 -16982064.95100  21328268.13300                 -12968917.28840  21328271.76640
 96  9 11  1 47  0.0000000  0  5 15 18 22 25 29
  -4120693.13600  23501776.71900                  -3003237.81440  23501781.86340
  -3836723.88400  24139936.31300                  -2679597.61840  24139940.83640
 -13550342.86100  21909861.37500                 -10379551.38640  21909866.29740
  -9167942.66600  22799203.85200                  -6998522.95440  22799207.59040
 -17003188.61000  21324248.36700                 -12985377.26840  21324251.87140
 96  9 11  1 47 30.0010000  0  6 14 15 18 22 25 29
     -6610.81510  20436522.85600
  -4012608.85100  23522343.99700                  -2919016.35540  23522350.14940
  -3908386.56500  24126298.97400                  -2735438.62140  24126303.97840
 -13604673.75400  21899522.50500                 -10421887.12140  21899527.35640
  -9077086.13400  22816492.98100                  -6927725.66540  22816496.91940
 -17024126.39600  21320263.96600                 -13001692.41740  21320267.55240
 96  9 11  1 48  0.0010000  0  6 14 15 18 22 25 29
    -17862.78000  20434353.98900
  -3904358.94300  23542942.59100                  -2834665.81840  23542948.60340
  -3979960.17700  24112679.81700                  -2791210.22640  24112684.73940
 -13658561.11300  21889268.12200                 -10463877.24340  21889273.04440
  -8986026.38700  22833821.17700                  -6856770.02040  22833825.05640
 -17044860.94100  21316318.15300                 -13017849.18940  21316321.71640
 96  9 11  1 48 30.0010000  0  6 14 15 18 22 25 29
     -1750.06910  20432312.22400                     -7220.05750  20432316.91140
  -3795951.19100  23563573.22400                  -2750192.30640  23563578.72040
  -4051475.49300  24099069.91100                  -2846936.37840  24099074.98540
 -13712007.19400  21879097.73100                 -10505523.50640  21879102.48940
  -8894776.20000  22851185.66900                  -6785665.98040  22851189.06740
 -17065396.01000  21312410.70000                 -13033850.53240  21312414.28640
 96  9 11  1 49  0.0010000  0  6 14 15 18 22 25 29
     -7746.38010  20430445.84100                    -15142.40440  20430450.41140
  -3687369.52500  23584234.77800                  -2665583.24840  23584240.19240
  -4122915.76800  24085475.46600                  -2902604.07840  24085481.47840
 -13764979.13900  21869017.63800                 -10546800.31940  21869021.98540
  -8803307.05600  22868591.52800                  -6714391.32340  22868595.02140
 -17085697.59800  21308547.33300                 -13049669.93940  21308550.82540
 96  9 11  1 49 30.0010000  0  6 14 15 18 22 25 29
                  20428596.47400
  -3578626.10200  23604928.35600                  -2580848.16040  23604934.21640
  -4194287.12000  24071894.20800                  -2958218.09140  24071899.28240
 -13817451.51000  21859032.36400                 -10587687.86340  21859037.00540
  -8711614.47100  22886039.81000                  -6642942.57240  22886043.09140
 -17105771.20000  21304727.60600                 -13065311.69940  21304731.18140
 96  9 11  1 50  0.0010000  0  6 14 15 18 22 25 29
     -6893.59710  20426835.69200                    -29689.28640  20426840.15740
  -3469727.85400  23625650.31000                  -2495992.41340  23625656.05240
  -4265606.39800  24058322.36400                  -3013791.51040  24058327.94240
 -13869410.81900  21849144.77100                 -10628175.61640  21849149.34140
  -8619698.58400  22903531.10600                  -6571319.79140  22903534.55240
 -17125629.45700  21300948.57500                 -13080785.66040  21300951.95040
 96  9 11  1 50 30.0010000  0  6 14 15 18 22 25 29
    -15387.59800  20425104.39600                    -36307.99240  20425108.86040
  -3360662.69900  23646405.65300                  -2411006.61740  23646411.25540
  -4336845.15100  24044766.31000                  -3069302.17740  24044769.82540
 -13920828.09600  21839360.09100                 -10668241.00340  21839364.84940
  -8527550.37300  22921066.38800                  -6499515.98840  22921069.90340
 -17145273.98400  21297210.44200                 -13096093.07140  21297213.86440
 96  9 11  1 51  0.0010000  0  6 14 15 18 22 25 29
    -23322.36700  20423782.22400                    -42490.93840  20423786.63040
  -3251425.78800  23667191.84900                  -2325886.95940  23667196.71240
  -4407971.79400  24031230.78600                  -3124725.49040  24031235.48540
 -13971703.34400  21829678.85600                 -10707884.03240  21829683.43840
  -8435177.67900  22938644.05200                  -6427537.26740  22938647.54440
 -17164697.73000  21293514.09100                 -13111228.45040  21293517.43140
 96  9 11  1 51 30.0010000  0  6 14 15 18 22 25 29
    -30702.68700  20422165.44200                    -48241.83840  20422169.76740
  -3142027.03600  23688010.96600                  -2240641.19940  23688016.26340
  -4478984.55600  24017718.16900                  -3180060.10540  24017722.29440
 -14022034.70000  21820101.38000                 -10747103.24840  21820106.33740
  -8342617.20200  22956257.88800                  -6355412.22040  22956261.77840
 -17183922.31800  21289855.56000                 -13126208.63240  21289859.04040
 96  9 11  1 52  0.0010000  0  6 14 15 18 22 25 29
     -2448.41510  20420966.71600                    -53575.91040  20420971.34540
  -3032490.26300  23708854.09900                  -2155287.89940  23708859.43140
  -4549903.84100  24004222.33300                  -3235321.80940  24004227.16140
 -14071855.86000  21810620.41100                 -10785924.90540  21810625.22840
  -8249910.30300  22973899.38800                  -6283173.08340  22973903.12640
 -17202967.08800  21286231.44200                 -13141048.71140  21286234.92340
 96  9 11  1 52 30.0010000  0  6 14 15 18 22 25 29
     -8767.25200  20419758.20800                    -58499.71940  20419762.72040
  -2922822.03800  23729723.89600                  -2069832.12940  23729729.81340
  -4620721.84300  23990746.09100                  -3290504.65840  23990750.75540
 -14121170.91000  21801236.07500                 -10824352.19140  21801241.04440
  -8157063.47700  22991567.23900                  -6210824.91040  22991570.64940
 -17221824.13900  21282643.11400                 -13155742.51240  21282646.47840
 96  9 11  1 53  0.0010000  0  6 14 15 18 22 25 29
     -3201.66110  20418550.10600                    -62996.94940  20418554.59540
  -2813017.81000  23750618.63800                  -1984270.41240  23750624.36840
  -4691439.38700  23977288.92700                  -3345609.19340  23977294.32940
 -14169970.66000  21791949.89600                 -10862377.95440  21791954.57140
  -8064067.03800  23009264.23100                  -6138360.15640  23009268.09940
 -17240471.30600  21279094.89600                 -13170272.76140  21279098.35340
 96  9 11  1 53 30.0010000  0  6 14 15 18 22 25 29
     -8401.62100  20417772.45800                    -67048.82940  20417776.93540
  -2703072.34800  23771540.17700                  -1898598.65640  23771546.50540
  -4762070.49100  23963848.13800                  -3400646.38640  23963852.66140
 -14218239.22900  21782764.78600                 -10899989.80040  21782769.25140
  -7970893.49300  23026994.43500                  -6065757.38340  23026998.29040
 -17258905.61700  21275586.90300                 -13184637.14740  21275590.38440
 96  9 11  1 54  0.0010000  0  6 14 15 18 22 25 29
    -13051.31500  20416692.66100                    -70671.96640  20416697.16140
  -2593003.82600  23792485.73100                  -1812830.97140  23792490.47840
  -4832653.47600  23950416.71600                  -3455646.05540  23950420.74740
 -14266009.81400  21773674.35600                 -10937213.61040  21773679.02140
  -7877544.55500  23044757.89600                  -5993017.96540  23044761.78640
 -17277139.11800  21272117.27100                 -13198845.08140  21272120.65740
 96  9 11  1 54 30.0010000  0  6 14 15 18 22 25 29
      -640.69910  20415909.71600                    -73854.59240  20415914.50940
  -2482801.86600  23813457.14600                  -1726959.38240  23813463.04040
  -4903181.84700  23936995.96600                  -3510603.21540  23937000.17340
 -14313272.42200  21764680.34900                 -10974041.59640  21764684.94240
  -7783992.21900  23062560.72400                  -5920120.03640  23062564.23940
 -17295160.02400  21268687.80200                 -13212887.33640  21268691.18840
 96  9 11  1 55  0.0010000  0  6 14 15 18 22 25 29
     -1915.23210  20415370.68500                    -76588.74740  20415375.04440
  -2372467.67300  23834452.50500                  -1640984.67240  23834457.79040
  -4973672.45400  23923581.81000                  -3565530.89840  23923586.12240
 -14360016.61600  21755785.38000                 -11010465.62340  21755789.79840
  -7690228.54200  23080403.27100                  -5847057.43040  23080407.03240
 -17312982.72900  21265296.29400                 -13226775.14340  21265299.66940
 96  9 11  1 55 30.0010000  0  6 14 15 18 22 25 29
     -1608.10310  20414707.70000                    -78890.22040  20414712.45840
  -2262014.18000  23855471.84100                  -1554917.06840  23855477.97040
  -5044135.99300  23910173.35600                  -3620437.54040  23910178.61840
 -14406252.49900  21746986.90300                 -11046493.55940  21746991.23940
  -7596262.65100  23098284.62200                  -5773837.25840  23098289.25140
 -17330619.11600  21261939.95800                 -13240517.77640  21261943.54440
 96  9 11  1 56  0.0010000  0  6 14 15 18 22 25 29
      -367.67810  20414250.42700                    -80776.96740  20414254.64640
  -2151445.50000  23876512.01300                  -1468759.69140  23876517.94240
  -5114563.77700  23896770.91900                  -3675316.30340  23896775.13840
 -14451969.65600  21738287.23100                 -11082117.29240  21738291.67340
  -7502107.57200  23116201.36400                  -5700469.66540  23116204.90340
 -17348058.42300  21258621.87200                 -13254106.84340  21258625.28240
 96  9 11  1 56 30.0010000  0  6 14 15 18 22 25 29
      -619.95210  20413954.53600                    -82228.11540  20413958.96640
  -2040750.25000  23897576.66100                  -1382503.65740  23897581.81740
  -5184917.31000  23883383.08300                  -3730137.18640  23883388.70840
 -14497130.91300  21729693.06000                 -11117307.86240  21729697.64240
  -7407755.42100  23134155.73900                  -5626948.52040  23134158.71640
 -17365280.85000  21255344.41900                 -13267526.90740  21255347.77140
 96  9 11  1 57  0.0010000  0  6 14 15 18 22 25 29
     -1933.10000  20413631.63000                    -83251.30340  20413636.10640
  -1929946.25800  23918661.77800                  -1296162.96640  23918668.27140
  -5255209.13400  23870006.88000                  -3784910.02040  23870010.82940
 -14541736.79100  21721205.01300                 -11152065.67840  21721209.51340
  -7313232.03200  23152143.43500                  -5553293.93540  23152146.17740
 -17382302.31200  21252105.43500                 -13280790.37240  21252108.76340
 96  9 11  1 57 30.0010000  0  6 14 15 18 22 25 29
     -2690.57000  20413671.36400                    -83841.53840  20413675.81740
  -1819024.79600  23939769.80200                  -1209730.62740  23939775.42740
  -5325405.88200  23856648.64600                  -3839608.74940  23856653.54440
 -14585778.14000  21712824.00500                 -11186383.59940  21712828.72840
  -7218526.82100  23170165.10600                  -5479497.66140  23170168.90340
 -17399096.10700  21248909.49700                 -13293876.44440  21248912.82540
 96  9 11  1 58  0.0010000  0  6 14 15 18 22 25 29
     -2865.17700  20413413.73900                    -83977.60840  20413418.29840
  -1707980.36100  23960900.63000                  -1123202.65040  23960906.65340
  -5395483.65300  23843313.76300                  -3894214.75040  23843318.86040
 -14629240.29100  21704553.70000                 -11220250.19440  21704558.55240
  -7123642.77600  23188220.45800                  -5405562.04040  23188224.39640
 -17415661.89200  21245757.14600                 -13306784.84540  21245760.47440
 96  9 11  1 58 30.0010000  0  6 14 15 18 22 25 29
     -2452.01700  20413694.92700                    -83655.68040  20413699.42740
  -1596821.50300  23982053.28600                  -1036585.26740  23982057.93840
  -5465448.93800  23829999.65300                  -3948733.13640  23830005.91140
 -14672136.89800  21696390.34900                 -11253676.10440  21696394.95440
  -7028588.83100  23206309.04400                  -5331494.03240  23206312.39640
 -17432016.47000  21242644.76300                 -13319528.65140  21242648.18540
 96  9 11  1 59  0.0010000  0  6 14 15 18 22 25 29
       809.13110  20413786.45800                    -82882.35040  20413791.00540
  -1485540.33800  24003229.52800                   -949872.78940  24003235.72840
  -5535309.13900  23816705.68500                  -4003169.62140  23816709.91540
 -14714464.25700  21688336.13800                 -11286658.44540  21688340.73140
  -6933357.70900  23224431.20800                  -5257287.95840  23224434.58340
 -17448146.44400  21239575.48100                 -13332097.45440  21239578.95040
 96  9 11  1 59 30.0010000  0  6 14 15 18 22 25 29
                  20414004.53600
  -1374167.19000  24024422.87200                   -863088.54540  24024429.02440
  -5605086.00900  23803427.34100                  -4057541.16940  23803432.48540
 -14756254.97100  21680383.48900                 -11319222.61540  21680387.94240
  -6837991.98800  23242578.52800                  -5182976.99740  23242581.88040
 -17464073.12700  21236544.87200                 -13344507.85240  21236548.23540
 96  9 11  2  0  0.0010000  0  6 14 15 18 22 25 29
       836.57210  20414535.94200                    -80046.16140  20414540.54840
  -1262691.53300  24045637.27100                   -776224.48540  24045643.64640
  -5674784.75200  23790164.67700                  -4111851.86540  23790170.58340
 -14797504.57500  21672534.14600                 -11351365.14440  21672538.41140
  -6742497.81100  23260750.55200                  -5108565.95040  23260753.81040
 -17479785.27500  21233554.73900                 -13356751.08340  21233558.09140
 96  9 11  2  0 30.0010000  0  6 14 15 18 22 25 29
                  20414936.59100
  -1151115.51000  24066868.34900                   -689282.12940  24066874.80640
  -5744416.87000  23776913.96600                  -4166110.62740  23776919.47440
 -14838216.06600  21664786.92700                 -11383088.36940  21664791.14640
  -6646870.04000  23278947.48100                  -5034050.80140  23278951.10340
 -17495267.39700  21230608.81000                 -13368815.06740  21230612.18540
 96  9 11  2  1  0.0010000  0  6 14 15 18 22 25 29
       577.87810  20415696.06000                    -75464.97540  20415700.77140
  -1039457.54600  24088116.14600                   -602275.98940  24088121.22040
  -5813990.16300  23763674.38000                  -4220323.54740  23763680.19240
 -14878395.83100  21657141.14600                 -11414397.26140  21657145.31740
  -6551118.15900  23297168.28600                  -4959438.93540  23297172.18840
 -17510525.40300  21227705.13800                 -13380704.41440  21227708.58340
 96  9 11  2  1 30.0010000  0  6 14 15 18 22 25 29
      4405.30800  20416288.50500                    -72482.61240  20416292.95840
   -927699.50600  24109384.22400                   -515191.84240  24109390.35340
  -5883462.06700  23750453.48100                  -4274457.46340  23750458.41540
 -14918033.21100  21649598.31000                 -11445283.51240  21649602.75140
  -6455221.32700  23315416.95800                  -4884714.12940  23315420.88440
 -17525544.05900  21224847.21600                 -13392407.26140  21224850.70840
 96  9 11  2  2  0.0010000  0  6 14 15 18 22 25 29
                  20417122.78600
   -815834.93400  24130670.52800                   -428024.68440  24130675.15740
  -5952822.10700  23737254.94200                  -4328504.20640  23737260.43840
 -14957120.80900  21642159.93500                 -11475741.35740  21642164.50540
  -6359148.00100  23333699.21600                  -4809851.80340  23333703.37640
 -17540317.66700  21222035.99700                 -13403919.16440  21222039.39640
 96  9 11  2  2 30.0010000  0  6 14 15 18 22 25 29
                  20418197.96600
   -703882.23900  24151974.79400                   -340788.87640  24151980.82940
  -6022079.74700  23724075.75500                  -4382471.17040  23724081.04040
 -14995652.13500  21634827.81700                 -11505765.74240  21634832.14240
  -6262902.70800  23352013.93500                  -4734855.46940  23352018.86840
 -17554863.24800  21219268.00500                 -13415253.38040  21219271.43840
 96  9 11  2  3  0.0010000  0  6 14 15 18 22 25 29
      3305.94110  20419218.20000                    -60609.71240  20419222.56040
   -591845.33700  24173293.96600                   -253487.37140  24173300.15340
  -6091237.83600  23710915.63800                  -4436360.58140  23710920.36040
 -15033619.16900  21627602.85600                 -11535350.42440  21627607.38040
  -6166481.43600  23370362.21600                  -4659722.01240  23370365.66140
 -17569190.41600  21216541.53600                 -13426417.40740  21216544.88840
 96  9 11  2  3 30.0010000  0  6 14 15 18 22 25 29
      2378.29510  20420553.22400                    -55697.16740  20420557.70040
   -479724.43600  24194630.27100                   -166120.47640  24194636.58740
  -6160294.08900  23697774.37200                  -4490170.61440  23697778.81340
 -15071015.20700  21620486.48900                 -11564490.17340  21620490.98940
  -6069887.61100  23388743.69200                  -4584454.10040  23388747.33740
 -17583302.11300  21213856.23100                 -13437413.52940  21213859.64240
 96  9 11  2  4  0.0010000  0  6 14 15 18 22 25 29
                  20421665.30200
   -367542.82700  24215976.52100                    -78706.30840  24215982.16940
  -6229280.41300  23684647.34900                  -4543926.14140  23684652.59940
 -15107835.07600  21613479.67700                 -11593180.95940  21613484.42340
  -5973134.46700  23407155.44200                  -4509062.03940  23407159.02840
 -17597217.62600  21211208.20000                 -13448256.77440  21211211.61040
 96  9 11  2  4 30.0010000  0  6 14 15 18 22 25 29
      1273.08510  20423220.18500                    -44575.34240  20423224.38040
   -255309.69000  24237335.04400                      8748.12940  24237341.16140
  -6298196.07700  23671532.91900                  -4597626.64640  23671537.60640
 -15144079.83600  21606582.62200                 -11621423.60940  21606587.41540
  -5876238.16200  23425594.59900                  -4433558.41840  23425597.97440
 -17610938.70500  21208597.29400                 -13458948.51740  21208600.52840
 96  9 11  2  5  0.0010000  0  6 14 15 18 22 25 29
      1364.03310  20424653.65300                    -38375.14440  20424658.28240
   -143014.78900  24258703.75500                     96250.57740  24258710.36440
  -6367015.23000  23658436.73100                  -4651251.92040  23658441.64240
 -15179753.38600  21599794.27100                 -11649221.16740  21599799.05240
  -5779183.99000  23444062.65300                  -4357931.78240  23444066.22840
 -17624442.74300  21206027.53600                 -13469471.13940  21206030.92340
 96  9 11  2  5 30.0010000  0  6 14 15 18 22 25 29
                  20426378.88800
    -30659.84000  24280084.75500                    183799.82340  24280089.79440
  -6435733.93000  23645360.18500                  -4704798.94440  23645363.95840
 -15214858.17700  21593114.36400                 -11676575.52340  21593118.92340
  -5681976.81200  23462560.62200                  -4282185.94040  23462564.41940
 -17637725.62000  21203499.91100                 -13479821.42440  21203503.28640
 96  9 11  2  6  0.0010000  0  6 14 15 18 22 25 29
      1556.59910  20428035.64600                    -24660.45140  20428040.19240
     81772.54000  24301479.59100                    271409.54040  24301485.31040
  -6504347.66300  23632302.96600                  -4758264.17340  23632307.60640
 -15249377.93700  21586545.34900                 -11703474.01540  21586549.67340
  -5584596.58300  23481091.84900                  -4206305.22940  23481095.25940
 -17650758.82800  21201019.85600                 -13489977.16540  21201023.14940
 96  9 11  2  6 30.0010000  0  6 14 15 18 22 25 29
      5556.93110  20429963.73100                    -17113.90440  20429968.19640
    194262.42000  24322885.85600                    359063.82440  24322892.10340
  -6572879.63800  23619262.22400                  -4811665.67440  23619267.25140
 -15283328.63100  21580085.02100                 -11729929.08340  21580089.22840
  -5487067.64400  23499650.56700                  -4130308.64840  23499654.49340
 -17663560.82600  21198583.51300                 -13499952.74040  21198586.80640
 96  9 11  2  7  0.0010000  0  6 14 15 18 22 25 29
      3830.92110  20431746.91100                     -9114.24440  20431751.51740
    306799.39300  24344300.70800                    446755.02940  24344304.31740
  -6641343.57100  23606233.63800                  -4865014.15740  23606238.20840
 -15316706.14600  21573733.21600                 -11755937.51240  21573737.58740
  -5389398.34300  23518236.48900                  -4054202.71140  23518239.94640
 -17676155.65200  21196186.63800                 -13509766.88640  21196190.09540
 96  9 11  2  7 30.0010000  0  6 14 15 18 22 25 29
                  20433848.92700
    419384.98800  24365724.82500                    534484.03140  24365730.97840
  -6709750.78000  23593216.11400                  -4918318.46740  23593220.74340
 -15349496.93500  21567492.94200                 -11781488.75840  21567497.53640
  -5291591.32800  23536848.63000                  -3977989.44340  23536852.76740
 -17688548.55400  21193828.39600                 -13519423.68740  21193831.87640
 96  9 11  2  8  0.0010000  0  6 14 15 18 22 25 29
      1952.25310  20436167.25500                      8287.58640  20436172.03640
    532025.16900  24387160.60600                    622255.52640  24387165.64640
  -6778082.55800  23580213.35600                  -4971563.96940  23580218.47840
 -15381685.49900  21561367.40300                 -11806570.73740  21561372.03240
  -5193639.88300  23555487.94200                  -3901663.61840  23555491.63440
 -17700730.36500  21191510.37200                 -13528916.00540  21191513.73540
 96  9 11  2  8 30.0010000  0  6 14 15 18 22 25 29
     14014.52300  20438190.88000                     17686.75140  20438195.42740
    644714.28900  24408604.16900                    710065.33940  24408608.84540
  -6846316.06000  23567228.82500                  -5024732.91140  23567234.01740
 -15413264.23700  21555358.43500                 -11831177.52640  21555363.01740
  -5095548.63200  23574154.23100                  -3825228.89740  23574158.36840
 -17712694.60700  21189233.48900                 -13538238.79140  21189236.92340
 96  9 11  2  9  0.0010000  0  6 14 15 18 22 25 29
     26653.19700  20440807.27100                     27535.06740  20440811.85340
    757432.06200  24430053.45800                    797897.20540  24430059.55240
  -6914461.05700  23554261.01300                  -5077832.87640  23554266.06340
 -15444257.70300  21549460.84900                 -11855328.25740  21549465.44240
  -4997338.39900  23592842.90300                  -3748701.44440  23592847.08740
 -17724439.62800  21186998.70000                 -13547390.74640  21187002.13440
 96  9 11  2  9 30.0010000  0  6 14 15 18 22 25 29
     39900.26400  20443361.95000                     37857.45640  20443366.34540
    870204.07800  24451513.48100                    885771.50740  24451518.61440
  -6982496.97900  23541314.40300                  -5130847.85740  23541318.83340
 -15474637.03500  21543679.56000                 -11879000.44540  21543684.04840
  -4898983.66900  23611559.19200                  -3672061.40940  23611562.12240
 -17735914.98300  21184814.81700                 -13556332.57240  21184818.31040
 96  9 11  2 10  0.0010000  0  6 14 15 18 22 25 29
     53746.79400  20446005.23900                     48646.95740  20446009.64640
    983027.90200  24472982.77800                    973686.18740  24472986.47040
  -7050419.42400  23528389.16100                  -5183774.40740  23528393.66140
 -15504393.90100  21538017.20800                 -11902187.59840  21538021.72040
  -4800488.14200  23630302.33300                  -3595311.65140  23630305.19240
 -17747120.09200  21182682.75500                 -13565063.81940  21182686.14240
 96  9 11  2 10 30.0010000  0  6 14 15 18 22 25 29
                  20448631.74700
   1095891.42900  24494460.56000                   1061631.76140  24494466.79440
  -7118256.22800  23515479.97400                  -5236634.19140  23515484.54440
 -15533537.52200  21532471.31700                 -11924896.89040  21532475.65340
  -4701870.51300  23649068.28600                  -3518466.71640  23649071.88440
 -17758062.28800  21180600.38000                 -13573590.19740  21180603.77840
 96  9 11  2 11  0.0010000  0  6 14 15 18 22 25 29
      2543.66810  20451627.08300                     71613.56540  20451631.32540
   1208778.22300  24515941.95000                   1149595.43640  24515948.38440
  -7186041.45100  23502580.91900                  -5289453.82940  23502584.76340
 -15562096.17500  21527036.69200                 -11947150.36540  21527041.02840
  -4603147.69500  23667855.10600                  -3441539.86440  23667858.79840
 -17768780.90200  21178560.79400                 -13581942.35940  21178564.29840
 96  9 11  2 11 30.0010000  0  6 14 15 18 22 25 29
                  20454374.90300
   1321692.71700  24537428.70800                   1237580.70540  24537432.84540
  -7253757.62800  23489695.06700                  -5342219.64940  23489699.64940
 -15590063.88100  21521714.57500                 -11968943.36340  21521718.97040
  -4504318.03400  23686661.96600                  -3364529.74540  23686666.07940
 -17779281.06100  21176562.72400                 -13590124.29140  21176566.20440
 96  9 11  2 12  0.0010000  0  6 14 15 18 22 25 29
     11934.73810  20576675.17700
   1434631.39200  24558920.56700                   1325584.87140  24558926.98940
  -7321377.72100  23476827.65300                  -5394910.59240  23476832.17740
 -15617450.26300  21516503.13000                 -11990283.38940  21516507.86440
  -4405374.86700  23705490.08300                  -3287431.16940  23705494.17340
 -17789559.99200  21174606.56700                 -13598133.84340  21174609.90740
 96  9 11  2 12 30.0010000  0  6 14 15 18 22 25 29
     28721.86000  20579869.66100                      8769.43750  20579874.04440
   1547590.84800  24580415.62200                   1413605.20140  24580421.86840
  -7388886.29000  23463980.88000                  -5447514.64240  23463985.48540
 -15644257.57100  21511401.96600                 -12011172.18240  21511406.30240
  -4306310.71700  23724341.14600                  -3210238.29940  23724344.35640
 -17799618.39200  21172692.51300                 -13605971.55040  21172695.93540
 96  9 11  2 13  0.0010000  0  6 14 15 18 22 25 29
     46088.95600  20583174.52100                     22302.23840  20583178.90340
   1660572.59200  24601915.45800                   1501642.79540  24601921.24740
  -7456256.36500  23451161.16100                  -5500010.76640  23451165.94240
 -15670478.01800  21506412.31700                 -12031603.68540  21506416.80640
  -4207109.63700  23743218.52800                  -3132938.75840  23743222.89940
 -17809449.81500  21170821.65300                 -13613632.39740  21170825.07540
 96  9 11  2 13 30.0010000  0  6 14 15 18 22 25 29
     64037.75700  20586590.06000                     36288.31540  20586594.46640
   1773575.12400  24623419.67700                   1589696.69240  24623425.97040
  -7523473.68900  23438369.96600                  -5552387.87640  23438374.58340
 -15696087.97600  21501539.17700                 -12051559.48640  21501543.57140
  -4107764.40000  23762123.64600                  -3055526.87440  23762127.20840
 -17819030.09800  21168998.69200                 -13621097.55140  21169002.03240
 96  9 11  2 14  0.0010000  0  6 14 15 18 22 25 29
     82570.59500  20590116.59100                     50729.48240  20590121.04440
   1886588.27200  24644925.12200                   1677758.92140  24644932.00540
  -7590565.70500  23425602.89600                  -5604667.35440  23425607.05640
 -15721082.83200  21496782.59100                 -12071035.97940  21496786.84540
  -4008280.14700  23781054.69200                  -2978006.65740  23781058.58340
 -17828371.60300  21167220.88000                 -13628376.63840  21167224.26740
 96  9 11  2 14 30.0010000  0  7  4 14 15 18 22 25 29
                  25170601.91900
    101694.91600  20593756.04400                     65631.54640  20593760.34540
   1999610.68300  24666432.63800                   1765828.30340  24666437.60640
  -7657547.94500  23412856.38800                  -5656861.28840  23412861.18140
 -15745455.43800  21492144.71600                 -12090027.60640  21492149.16940
  -3908676.85700  23800008.68500                  -2900393.70340  23800012.77440
 -17837482.20200  21165487.06000                 -13635475.80240  21165490.30640
 96  9 11  2 15  0.0010000  0  7  4 14 15 18 22 25 29
    -21715.51000  25166325.31700
    121419.86800  20597509.56700                     81001.62740  20597513.97440
   2112640.99600  24687941.00500                   1853903.73840  24687947.12240
  -7724432.68800  23400128.84100                  -5708979.23040  23400133.47040
 -15769205.19200  21487625.02800                 -12108533.88440  21487629.52840
  -3808961.49800  23818984.02100                  -2822693.40940  23818987.26740
 -17846355.31900  21163798.72400                 -13642389.90840  21163802.18140
 96  9 11  2 15 30.0010000  0  7  4 14 15 18 22 25 29
    -43647.74400  25162151.00500
    141777.62900  20601383.44200                     96864.80240  20601387.90740
   2225681.54500  24709451.98100                   1941987.30640  24709457.58340
  -7791236.12000  23387416.41900                  -5761033.84440  23387420.57940
 -15792327.37900  21483225.00500                 -12126551.16340  21483229.39940
  -3709140.99200  23837978.95800                  -2744911.18940  23837981.84140
 -17854986.47100  21162156.32500                 -13649115.47640  21162159.63040
 96  9 11  2 16  0.0010000  0  7  4 14 15 18 22 25 29
    -65068.60100  25158075.39600                     -7183.66450  25158078.19640
    162771.51000  20605378.48100                    113223.66640  20605382.93540
   2338719.88800  24730962.46600                   2030069.12240  24730968.97040
  -7857967.09200  23374717.88000                  -5813031.99940  23374723.03640
 -15814849.21100  21478939.31000                 -12144100.62640  21478943.38840
  -3609234.61700  23856990.40300                  -2667062.04240  23856995.13840
 -17863400.28900  21160555.13800                 -13655671.69340  21160558.58340
 96  9 11  2 16 30.0010000  0  7  4 14 15 18 22 25 29
    -85979.32500  25154096.13000                    -23477.68040  25154102.09540
    184408.89800  20609495.52800                    130083.96040  20609500.02840
   2451760.70700  24752474.09100                   2118152.79740  24752479.18840
  -7924600.19000  23362037.99700                  -5864953.87240  23362041.82940
 -15836760.79800  21474769.79400                 -12161174.57440  21474773.88440
  -3509228.50200  23876020.84100                  -2589135.20440  23876025.11840
 -17871585.21100  21158998.05200                 -13662049.55340  21159001.41540
 96  9 11  2 17  0.0010000  0  7  4 14 15 18 22 25 29
   -106387.70200  25150212.59100                    -39380.35140  25150218.13440
    206666.85700  20613731.54400                    147427.81840  20613735.99740
   2564791.09000  24773982.66100                   2206228.36240  24773987.87640
  -7991150.56600  23349373.52100                  -5916811.27840  23349377.76340
 -15858059.80200  21470716.74700                 -12177771.18440  21470720.96640
  -3409113.97600  23895071.81000                  -2511123.89240  23895077.65740
 -17879548.68500  21157482.27100                 -13668254.85040  21157485.66940
 96  9 11  2 17 30.0010000  0  7  4 14 15 18 22 25 29
   -126277.21800  25146427.86400                    -54878.62740  25146434.33340
    229542.60900  20618084.60600                    165253.08240  20618089.00140
   2677821.94600  24795491.70000                   2294304.41140  24795498.32140
  -8057601.97600  23336728.44200                  -5968591.58140  23336733.11840
 -15878728.43800  21466783.66100                 -12193876.60140  21466787.63440
  -3308876.98700  23914146.02800                  -2433017.15940  23914150.30640
 -17887277.92800  21156011.31700                 -13674277.62540  21156014.75140
 96  9 11  2 18  0.0010000  0  7  4 14 15 18 22 25 29
   -145650.29900  25142741.02100                    -69974.54440  25142744.78240
    252981.42200  20622544.81000                    183517.08440  20622549.29840
   2790825.79300  24816996.13800                   2382359.36940  24817002.31340
  -8123963.91400  23324100.34100                  -6020302.15040  23324105.25140
 -15898791.10200  21462965.81000                 -12209509.81940  21462969.81740
  -3208543.76900  23933239.42700                  -2354835.40340  23933244.87640
 -17894798.62000  21154580.36400                 -13680137.89840  21154583.78640
 96  9 11  2 18 30.0010000  0  7  4 14 15 18 22 25 29
   -164458.49600  25139162.42700                    -84630.19140  25139169.75540
    276988.79200  20627113.18500                    202224.12240  20627117.62640
   2903826.00600  24838499.32500                   2470411.40240  24838506.31340
  -8190218.70000  23311492.38800                  -6071929.23240  23311496.36040
 -15918207.79300  21459270.95000                 -12224639.68240  21459275.34540
  -3108094.09900  23952354.16900                  -2276562.91540  23952357.38040
 -17902079.19600  21153194.80200                 -13685811.06740  21153198.36440
 96  9 11  2 19  0.0010000  0  7  4 14 15 18 22 25 29
   -182719.33000  25135687.28600                    -98859.42440  25135692.95840
    301544.76900  20631786.23900                    221358.64440  20631790.72840
   3016805.06200  24859998.02100                   2558446.94640  24860003.28240
  -8256389.76500  23298900.65300                  -6123491.09140  23298904.97840
 -15937001.84300  21455694.39600                 -12239284.37740  21455698.60340
  -3007555.75100  23971485.82500                  -2198221.34640  23971489.76340
 -17909121.79100  21151854.59900                 -13691298.80340  21151858.10340
 96  9 11  2 19 30.0010000  0  7  4 14 15 18 22 25 29
   -200448.29900  25132312.84900                   -112674.28740  25132315.34540
    326652.80000  20636564.13000                    240923.33440  20636568.48940
   3129749.50600  24881490.94200                   2646455.59240  24881498.03640
  -8322479.94500  23286324.20800                  -6174989.90840  23286328.40340
 -15955200.88300  21452231.27100                 -12253465.42840  21452235.57140
  -2906949.16100  23990630.84900                  -2119826.60440  23990635.57140
 -17915936.40900  21150557.82500                 -13696608.88940  21150561.20040
 96  9 11  2 20  0.0010000  0  7  4 14 15 18 22 25 29
   -217623.62100  25129044.40300                   -126057.65340  25129046.30240
    352357.25400  20641455.52100                    260952.77540  20641459.90340
   3242676.24800  24902979.66900                   2734450.40140  24902985.24740
  -8388458.78700  23273768.38000                  -6226401.98440  23273772.75140
 -15972787.54900  21448884.57500                 -12267169.30940  21448888.98140
  -2806245.47000  24009793.72400                  -2041356.21540  24009797.79040
 -17922505.53800  21149307.82500                 -13701727.68340  21149311.20040
 96  9 11  2 20 30.0010000  0  7  4 14 15 18 22 25 29
   -234277.27600  25125876.09100                   -139034.48140  25125879.54840
    378662.89800  20646461.40300                    281450.67240  20646465.85640
   3355569.36700  24924463.02100                   2822419.09440  24924471.19240
  -8454341.01100  23261231.38800                  -6277738.77040  23261235.51340
 -15989765.79700  21445653.83300                 -12280399.09440  21445658.06340
  -2705451.37600  24028974.90300                  -1962815.36040  24028978.89940
 -17928832.00500  21148103.91900                 -13706657.40340  21148107.17740
 96  9 11  2 21  0.0010000  0  7  4 14 15 18 22 25 29
   -250418.24900  25122804.66900                   -151611.87040  25122807.28240
    405585.69100  20651584.49700                    302429.46640  20651588.89240
   3468424.82300  24945938.61400                   2910358.35340  24945943.98140
  -8520118.89400  23248714.16900                  -6328994.23440  23248718.27140
 -16006138.03000  21442538.25500                 -12293156.65440  21442542.46240
  -2604558.70700  24048174.09100                  -1884197.67040  24048177.24340
 -17934914.70200  21146946.40300                 -13711397.16840  21146949.75540
 96  9 11  2 21 30.0010000  0  7  4 14 15 18 22 25 29
   -266032.25800  25119833.60600                   -163778.53340  25119844.00540
    433134.08500  20656826.84900                    323895.73740  20656831.16140
   3581248.91300  24967408.62200                   2998273.17040  24967413.83740
  -8585768.05200  23236221.42700                  -6380149.40740  23236225.48140
 -16021887.13300  21439541.16100                 -12305428.66640  21439545.29840
  -2503553.46900  24067394.66900                  -1805492.31940  24067398.50140
 -17940758.07100  21145834.52800                 -13715950.44840  21145837.88040
 96  9 11  2 22  0.0010000  0  7  4 14 15 18 22 25 29
   -281135.49400  25116958.82500
    461285.58000  20662184.07500                    345831.96140  20662188.45840
   3694032.67200  24988870.50500                   3086156.57240  24988875.81340
  -8651288.10000  23223753.58300                  -6431203.95340  23223758.51740
 -16036998.62300  21436665.71600                 -12317203.84040  21436670.01740
  -2402445.59800  24086634.91100                  -1726706.95840  24086638.62640
 -17946360.11900  21144768.60600                 -13720315.67640  21144771.88840
 96  9 11  2 22 30.0010000  0  7  4 14 15 18 22 25 29
   -295722.42100  25114183.03600
    490026.15900  20667653.13800                    368227.21440  20667657.43840
   3806780.92600  25010325.23900                   3174012.31440  25010332.93140
  -8716680.30900  23211309.71600                  -6482158.88240  23211314.46240
 -16051458.66200  21433913.73900                 -12328471.38740  21433917.98140
  -2301239.91800  24105894.01300                  -1647845.40040  24105898.33740
 -17951705.30100  21143751.35600                 -13724480.74740  21143754.68540
 96  9 11  2 23  0.0010000  0  7  4 14 15 18 22 25 29
   -309798.27300  25111504.82500                     -9854.97450  25111509.10340
    519340.23600  20673231.34900                    391069.35040  20673235.72040
   3919469.54400  25031769.66900                   3261821.60340  25031775.38840
  -8781951.42000  23198889.20000                  -6533019.44740  23198893.81740
 -16065295.97000  21431280.77800                 -12339253.68840  21431284.98540
  -2199964.04700  24125166.24700                  -1568929.11540  24125169.61040
 -17956819.30900  21142778.25500                 -13728465.68440  21142781.57140
 96  9 11  2 23 30.0010000  0  7  4 14 15 18 22 25 29
   -323363.75300  25108923.78600                    -20425.47340  25108930.32540
    549225.54400  20678918.35600                    414356.59740  20678922.84540
   4032092.60600  25053200.92700                   3349579.81840  25053206.17740
  -8847107.03900  23186490.48100                  -6583790.02040  23186495.18140
 -16078514.57600  21428765.42700                 -12349553.87940  21428769.75140
  -2098627.03400  24144449.73900                  -1489965.20540  24144453.30240
 -17961706.21100  21141848.23100                 -13732273.65940  21141851.46640
 96  9 11  2 24  0.0010000  0  7  4 14 15 18 22 25 29
   -336393.39500  25106443.78600                    -30578.50240  25106448.83740
    579710.08800  20684719.48900                    438110.77940  20684723.95440
   4144657.22600  25074621.10600                   3437292.46240  25074627.45840
  -8912152.72200  23174112.95000                  -6634474.93640  23174117.61440
 -16091100.74100  21426370.12200                 -12359361.26540  21426374.59940
  -1997223.64500  24163746.11400                  -1410949.57340  24163749.92340
 -17966346.93700  21140965.02100                 -13735889.80540  21140968.37240
 96  9 11  2 24 30.0010000  0  7  4 14 15 18 22 25 29
   -348865.08000  25104070.39600                    -40296.60740  25104074.55640
    610808.22300  20690637.22400                    462343.07740  20690641.58340
   4257171.50300  25096032.27800                   3524965.91640  25096037.21240
  -8977082.49200  23161756.52800                  -6685069.52640  23161760.54840
 -16103051.83900  21424095.99700                 -12368673.79140  21424100.38040
  -1895745.07600  24183057.16900                  -1331875.36940  24183061.28240
 -17970744.06600  21140128.25500                 -13739316.13640  21140131.68840
 96  9 11  2 25  0.0010000  0  7  4 14 15 18 22 25 29
   -360774.46300  25101804.13800                    -49576.65140  25101808.60340
    642531.49800  20696674.02800                    487062.50240  20696678.23540
   4369634.46500  25117433.61400                   3612599.31440  25117439.49740
  -9041899.99700  23149422.29400                  -6735576.64740  23149426.68840
 -16114360.48100  21421944.09100                 -12377485.70640  21421948.39240
  -1794187.88800  24202382.47400                  -1252739.88440  24202385.96640
 -17974908.86700  21139335.76300                 -13742561.43340  21139339.33740
 96  9 11  2 25 30.0010000  0  7  4 14 15 18 22 25 29
   -372144.94300  25099640.97400                    -58436.76940  25099643.41140
    674842.46800  20702822.56700                    512239.88240  20702826.93840
   4482024.77300  25138821.04400                   3700176.14140  25138827.63040
  -9106646.18000  23137102.02100                  -6786028.18940  23137106.94240
 -16125038.89700  21419912.05200                 -12385806.52840  21419916.08340
  -1692574.05900  24221719.42700                  -1173560.30240  24221723.59940
 -17978858.17100  21138584.27800                 -13745638.80740  21138587.85340
 96  9 11  2 26  0.0010000  0  7  4 14 15 18 22 25 29
   -382981.16400  25097579.24700                    -66880.60540  25097582.49340
    707730.46200  20709081.06000                    537866.88540  20709085.50140
   4594344.77300  25160194.56000                   3787698.19340  25160194.74740
  -9171314.71300  23124795.73100                  -6836419.22840  23124800.50140
 -16135082.09500  21418000.77800                 -12393632.37840  21418004.75140
  -1590893.03400  24241068.47400                  -1094328.34240  24241072.32940
 -17982574.70500  21137877.13000                 -13748534.80140  21137880.52840
 96  9 11  2 26 30.0010000  0  7  4 14 15 18 22 25 29
   -393280.82600  25095618.40300                    -74906.36240  25095621.46240
    741194.88600  20715448.92700                    563943.06040  20715453.34540
   4706609.63800  25181557.82500                   3875177.32040  25181560.26340
  -9235880.09800  23112509.23900                  -6886729.89240  23112513.44640
 -16144476.16900  21416213.40300                 -12400952.41840  21416217.71640
  -1489126.49000  24260433.76300                  -1015029.69240  24260436.34140
 -17986046.39200  21137216.41900                 -13751240.00640  21137219.77140
 96  9 11  2 27  0.0010000  0  6  4 14 18 22 25 29
   -403051.16100  25093758.80200                    -82519.58640  25093761.53240
    775232.49500  20721926.14600                    590465.86940  20721930.68140
  -9300348.86800  23100241.40300                  -6936965.26040  23100245.76340
 -16153235.75800  21414546.09100                 -12407778.05740  21414550.40340
  -1387285.29600  24279813.61400                   -935672.94940  24279818.50140
 -17989265.14500  21136603.70800                 -13753748.12540  21136607.16540
 96  9 11  2 27 30.0010000  0  7  4 14 18 19 22 25 29
   -412298.50200  25091999.38000                    -89725.26540  25092005.36840
    809844.46700  20728512.69200                    617436.22840  20728517.15740
  -9364715.96000  23087992.46600                  -6987121.42040  23087997.16540
    -60265.44910  25059461.03600
 -16161371.72800  21412997.65300                 -12414117.76240  21413002.32940
  -1285370.42900  24299206.88800                   -856258.79840  24299210.43840
 -17992213.72000  21136042.85600                 -13756045.72140  21136046.31340
 96  9 11  2 28  0.0010000  0  7  4 14 18 19 22 25 29
   -421031.07300  25090337.90300                    -96529.86840  25090342.00540
    845038.46100  20735209.65300                    644860.11240  20735214.07140
  -9428973.08500  23075764.90300                  -7037191.88240  23075769.45040
   -138731.65700  25044529.86400
 -16168881.51200  21411568.65300                 -12419969.53040  21411573.11840
  -1183376.13100  24318615.62200                   -776782.72140  24318620.80240
 -17994900.26900  21135531.46600                 -13758139.13240  21135534.85340
 96  9 11  2 28 30.0010000  0  7  4 14 18 19 22 25 29
   -429239.46300  25088775.91100                   -102925.95840  25088779.38040
    880825.70000  20742019.93500                    672746.26340  20742024.44640
  -9493129.47400  23063556.65300                  -7087183.85340  23063560.63840
   -217045.80200  25029627.15300                    -14226.92350  25029636.54440
 -16175765.77300  21410258.76300                 -12425333.86940  21410263.07540
  -1081316.20300  24338036.99700                   -697255.48540  24338041.18140
 -17997345.29000  21135066.01300                 -13760044.34040  21135069.45840
 96  9 11  2 29  0.0010000  0  7  4 14 18 19 22 25 29
   -436905.90800  25087317.52800                   -108899.81240  25087322.40340
    917229.89900  20748947.34100                    701113.16740  20748951.86440
  -9557180.91200  23051367.54400                  -7137094.04440  23051371.85640
   -295187.90800  25014756.51300                    -75116.74140  25014761.16540
 -16182006.24300  21409071.46600                 -12430196.55140  21409075.64940
   -979181.38200  24357472.34100                   -617669.89140  24357477.88440
 -17999537.93900  21134648.99700                 -13761752.89140  21134652.38440
 96  9 11  2 29 30.0010000  0  7  4 14 18 19 22 25 29
   -444034.90500  25085959.98100                   -114454.91740  25085963.84940
    954243.97100  20755990.79400                    729955.29440  20755995.24740
  -9621145.23600  23039195.27800                  -7186936.35140  23039199.57940
   -373147.10400  24999921.70800                   -135864.22940  24999930.03240
 -16187593.75000  21408008.25500                 -12434550.43740  21408012.07540
   -876976.17700  24376921.85600                   -538029.51740  24376925.82940
 -18001495.45400  21134276.56700                 -13763278.22940  21134279.93140
 96  9 11  2 30  0.0010000  0  7  4 14 18 19 22 25 29
   -450611.15500  25084709.55200                   -119579.25540  25084715.00140
    991865.66300  20763149.82500                    759270.89040  20763154.40740
  -9685015.13300  23027040.90300                  -7236705.08740  23027045.19240
   -450912.83500  24985123.41900                   -196460.86340  24985130.78240
 -16192518.15900  21407071.09100                 -12438387.62740  21407075.14640
   -774696.76700  24396384.87200                   -458331.25940  24396387.48540
 -18003220.29800  21133948.20000                 -13764622.26240  21133951.52840
 96  9 11  2 30 30.0010000  0  7  4 14 18 19 22 25 29
   -456621.35100  25083564.81700                   -124262.55440  25083569.86840
   1030089.00500  20770423.58300                    789055.30940  20770428.11840
  -9748783.34100  23014906.88000                  -7286394.57240  23014910.97040
   -528489.56500  24970360.55200                   -256910.22040  24970365.09940
 -16196783.22900  21406259.15300                 -12441711.04540  21406263.32540
   -672353.50400  24415860.70800                   -378583.22940  24415864.99740
 -18004712.84000  21133664.36400                 -13765785.28140  21133667.65740
 96  9 11  2 31  0.0010000  0  7  4 14 18 19 22 25 29
   -462071.23900  25082528.18500                   -128509.18740  25082533.51740
   1068907.01700  20777810.45000                    819303.10940  20777815.13840
  -9812431.55500  23002794.77100                  -7335990.57540  23002799.02440
   -605871.66600  24955635.78600                   -317207.93540  24955644.29840
 -16200387.73500  21405573.46600                 -12444519.73640  21405577.86040
   -569940.16700  24435349.21600                   -298780.63340  24435353.48140
 -18005952.04600  21133428.46600                 -13766750.89240  21133431.67740
 96  9 11  2 31 30.0010000  0  7  4 14 18 19 22 25 29
   -466964.36100  25081597.40300                   -132321.95440  25081604.15340
   1108301.81200  20785307.13800                    850000.34340  20785311.75540
  -9875936.97700  22990710.18500                  -7385475.29540  22990714.66140
   -683083.95500  24940942.84100                   -377373.29640  24940947.72840
 -16203345.08300  21405010.66900                 -12446824.14840  21405015.08740
   -467458.62400  24454850.39600                   -218924.86640  24454854.22840
 -18006932.86500  21133242.18500                 -13767515.16640  21133245.33740
 96  9 11  2 32  0.0010000  0  7  4 14 18 19 22 25 29
   -471290.49700  25080773.62200                   -135693.01240  25080778.00540
   1148285.87000  20792915.91900                    881156.74340  20792920.38440
  -9939261.82200  22978660.03600                  -7434819.30740  22978663.76340
   -760122.93900  24926282.25500                   -437403.59940  24926289.24340
 -16205655.19400  21404571.21600                 -12448624.22640  21404575.42340
   -364899.88000  24474366.85600                   -139008.97640  24474370.67740
 -18007641.56700  21133106.73100                 -13768067.39540  21133109.84940
 96  9 11  2 32 30.0010000  0  7  4 14 18 19 22 25 29
   -475080.47800  25080052.48100                   -138646.26040  25080058.01340
   1188836.69300  20800632.28600                    912754.78140  20800636.90340
 -10002429.65700  22966639.38000                  -7484040.98440  22966643.59940
   -837007.22300  24911652.05200                   -497313.37140  24911658.33340
 -16207350.63600  21404248.50500                 -12449945.33440  21404252.48940
   -262305.06000  24493890.16100                    -59064.94340  24493894.02840
 -18008103.17100  21133019.13800                 -13768427.08640  21133022.56040
 96  9 11  2 33  0.0010000  0  7  4 14 18 19 22 25 29
   -478350.78200  25079430.33300                   -141194.53640  25079434.82140
   1229960.12100  20808457.92700                    944799.00940  20808462.40340
 -10065452.93900  22954646.24700                  -7533150.01740  22954650.20840
   -913745.95300  24897048.69200                   -557109.71140  24897053.93140
 -16208439.63800  21404041.16900                 -12450793.89140  21404045.16540
   -159684.15100  24513418.21600                     20899.40440  24513420.82940
 -18008311.66100  21132979.51300                 -13768589.54340  21132982.74740
 96  9 11  2 33 30.0010000  0  7  4 14 18 19 22 25 29
   -481082.73500  25078910.25500                   -143323.34840  25078913.72440
   1271677.82200  20816396.55200                    977306.30540  20816401.00540
 -10128339.37900  22942679.63800                  -7582152.40840  22942683.69240
   -990320.00400  24882477.80200                   -616777.73040  24882482.95840
 -16208909.53800  21403951.64600                 -12451160.03340  21403955.70040
    -57033.02500  24532951.88000                    100887.29540  24532955.64240
 -18008265.66600  21132988.24700                 -13768553.69340  21132991.57540
 96  9 11  2 34  0.0010000  0  7  4 14 18 19 22 25 29
   -483277.64500  25078492.67700                   -145033.65740  25078496.83740
   1313994.37300  20824449.23900                   1010280.23740  20824453.66940
 -10191110.65400  22930734.53600                  -7631065.06740  22930738.79040
  -1066697.60100  24867943.47400                   -676292.69440  24867948.56040
 -16208753.19900  21403981.49700                 -12451038.15140  21403985.58740
     45643.44300  24552490.40300                    180894.95440  24552493.96640
 -18007964.76000  21133045.66100                 -13768319.23540  21133049.09540
 96  9 11  2 34 30.0010000  0  7  4 14 18 19 22 25 29
   -484925.92800  25078179.25500                   -146317.99740  25078184.81040
   1356923.33900  20832618.32500                   1043731.37340  20832622.66140
 -10253768.68900  22918811.27100                  -7679889.49740  22918815.41940
  -1142869.01200  24853447.59900                   -735646.90340  24853454.09140
 -16207946.43800  21404134.88800                 -12450409.54640  21404139.22440
    148359.34000  24572036.68500                    260933.30140  24572040.54040
 -18007384.18200  21133155.95800                 -13767866.81240  21133159.32140
 96  9 11  2 35  0.0010000  0  7  4 14 18 19 22 25 29
   -486039.70000  25077967.17700                   -147185.85840  25077973.84540
   1400451.18400  20840901.46600                   1077649.17240  20840905.88440
 -10316333.33700  22906905.48900                  -7728641.15940  22906909.98940
  -1218855.74900  24838988.32500                   -794857.31040  24838994.33740
 -16206485.28200  21404412.92700                 -12449270.96640  21404417.29840
    251125.33400  24591592.67700                    341010.70940  24591596.38040
 -18006535.15700  21133317.40300                 -13767205.22440  21133320.80240
 96  9 11  2 35 30.0010000  0  7  4 14 18 19 22 25 29
   -486608.98800  25077858.60600                   -147629.49140  25077865.51340
   1444572.16000  20849297.27100                   1112029.14040  20849301.72440
 -10378801.24400  22895018.52100                  -7777317.43640  22895022.09540
  -1294645.67700  24824565.66900                   -853914.32740  24824570.50940
 -16204354.51000  21404818.24700                 -12447610.61540  21404822.56040
    353954.44700  24611159.67700                    421137.28640  24611163.05240
 -18005417.48600  21133530.33300                 -13766334.30540  21133533.62640
 96  9 11  2 36  0.0010000  0  7  4 14 18 19 22 25 29
   -486637.22600  25077852.68500                   -147651.48240  25077858.05240
   1489280.35000  20857804.99700                   1146866.68340  20857809.48540
 -10441162.07100  22883151.42700                  -7825910.27840  22883155.54040
  -1370259.59200  24810176.98100                   -912834.17040  24810183.47440
 -16201548.91500  21405352.36400                 -12445424.42440  21405356.59540
    456854.21000  24630741.45800                    501318.91040  24630745.73540
 -18004030.07700  21133794.13000                 -13765253.20440  21133797.37640
 96  9 11  2 36 30.0010000  0  7  4 14 18 19 22 25 29
   -486142.38500  25077947.61400                   -147265.89340  25077950.48540
   1534557.57100  20866421.01300                   1182147.62240  20866425.47840
 -10503426.66400  22871302.84100                  -7874428.13040  22871307.17740
  -1445734.13800  24795814.75500                   -971645.42040  24795821.10640
 -16198085.93500  21406011.38000                 -12442725.99140  21406015.43540
    559802.61100  24650332.00500                    581538.43540  24650336.27140
 -18002395.79500  21134105.06000                 -13763979.73240  21134108.47040
 96  9 11  2 37  0.0010000  0  7  4 14 18 19 22 25 29
   -485106.94500  25078143.80200                   -146459.10140  25078148.58340
   1580416.54200  20875147.55200                   1217881.88240  20875151.98140
 -10565572.30500  22859476.98100                  -7922853.28140  22859481.31740
  -1521047.21400  24781482.95800                  -1030330.85140  24781487.90340
 -16193962.52200  21406795.89600                 -12439512.92940  21406800.00940
    662806.93500  24669932.31700                    661801.54440  24669935.23540
 -18000506.48300  21134464.50500                 -13762507.53640  21134467.92740
 96  9 11  2 37 30.0010000  0  7  4 14 18 19 22 25 29
   -483531.98700  25078444.03600                   -145231.90340  25078452.37240
   1626862.30000  20883985.84900                   1254073.37440  20883990.31340
 -10627578.61100  22847677.48100                  -7971169.88340  22847681.84140
  -1596188.19600  24767184.27100                  -1088882.22140  24767188.43140
 -16189186.83400  21407704.56700                 -12435791.60640  21407708.69240
    765851.66600  24689541.37200                    742096.12040  24689545.04040
 -17998357.07100  21134873.72400                 -13760832.66840  21134876.98140
 96  9 11  2 38  0.0010000  0  7  4 14 18 19 22 25 29
   -481415.17800  25078847.04400                   -143582.37340  25078849.99740
   1673895.11600  20892935.96600                   1290722.31440  20892940.57140
 -10689429.44600  22835907.55200                  -8019365.32340  22835911.51340
  -1671158.65500  24752918.34900                  -1147300.67740  24752924.13840
 -16183758.68600  21408737.62200                 -12431561.86740  21408741.72440
    868934.45200  24709157.21600                    822420.36040  24709161.23540
 -17995942.65800  21135333.16900                 -13758951.30240  21135336.28640
 96  9 11  2 38 30.0010000  0  7  4 14 18 19 22 25 29
   -478750.14200  25079354.60600
   1721527.69800  20902000.15300                   1327838.60140  20902004.78240
 -10751113.66400  22824169.34100                  -8067430.92840  22824173.34940
  -1745937.16700  24738687.47400                  -1205569.57140  24738693.63840
 -16177672.59100  21409895.89600                 -12426819.44140  21409900.12640
    972066.73900  24728782.99700                    902783.16440  24728785.77440
 -17993256.50600  21135844.40300                 -13756858.19340  21135847.73140
 96  9 11  2 39  0.0010000  0  7  4 14 18 19 22 25 29
   -475558.28800  25079961.95000
   1769752.92100  20911177.06700                   1365416.68940  20911181.56740
 -10812649.42600  22812459.35600                  -8115380.85340  22812462.96640
  -1820543.08300  24724490.50500                  -1263703.99540  24724496.38840
 -16170938.03500  21411177.40300                 -12421571.72340  21411181.72840
   1075243.61900  24748416.72400                    983180.74240  24748422.16140
 -17990310.69400  21136404.95800                 -13754562.74440  21136408.33340
 96  9 11  2 39 30.0010000  0  7  4 14 18 19 22 25 29
   -471830.91800  25080671.38000                       205.76150  25080678.77840
   1818574.24000  20920467.40300                   1403459.27440  20920471.83340
 -10874042.55400  22800776.77100                  -8163219.64340  22800781.03640
  -1894968.51700  24710327.03600                  -1321697.75840  24710333.68140
 -16163532.08300  21412586.58300                 -12415800.84340  21412590.86040
   1178479.88100  24768061.56700                   1063624.58740  24768063.79440
 -17987107.94500  21137014.46600                 -13752067.09140  21137017.81740
 96  9 11  2 40  0.0010000  0  7  4 14 18 19 22 25 29
   -467580.26800  25081479.91100                      3518.01340  25081483.32140
   1867977.32400  20929868.65300                   1441955.18040  20929873.07140
 -10935320.94100  22789116.10600                  -8210969.01540  22789120.63040
  -1969217.13700  24696197.49700                  -1379553.80340  24696204.08340
 -16155463.40300  21414122.10600                 -12409513.54540  21414126.40740
   1281767.12800  24787716.66900                   1144108.09840  24787721.27440
 -17983670.83300  21137668.18500                 -13749388.82040  21137671.59540
 96  9 11  2 40 30.0010000  0  7  4 14 18 19 22 25 29
   -462804.88900  25082388.22400                      7239.08640  25082394.92740
   1917979.59000  20939383.71600                   1480917.97940  20939388.18140
 -10996490.19300  22777475.77800                  -8258633.35040  22777480.06740
  -2043280.96500  24682103.97400                  -1437265.83240  24682110.32540
 -16146742.27100  21415781.73100                 -12402717.85540  21415786.03240
   1385097.50900  24807380.41100                   1224625.28840  24807383.29440
 -17979987.67300  21138369.20000                 -13746518.82140  21138372.55240
 96  9 11  2 41  0.0010000  0  7  4 14 18 19 22 25 29
   -457487.64000  25083400.30200                     11382.42040  25083405.38840
   1968571.58200  20949010.97400                   1520340.30540  20949015.48540
 -11057544.56900  22765857.37200                  -8306208.17940  22765862.36440
  -2117148.07900  24668048.23100                  -1494824.55640  24668055.98140
 -16137363.21900  21417566.40300                 -12395409.49240  21417570.50540
   1488456.21600  24827048.98100                   1305164.50540  24827053.00140
 -17976040.53100  21139120.47400                 -13743443.12140  21139123.74340
 96  9 11  2 41 30.0010000  0  7  4 14 18 19 22 25 29
   -451586.77300  25084523.70000                     15980.48140  25084527.62640
   2019782.22500  20958756.18500                   1560244.69640  20958760.74340
 -11118429.71500  22754271.48100                  -8353651.13940  22754275.72440
  -2190765.85600  24654039.09900                  -1552188.98840  24654043.95040
 -16127303.90700  21419480.68500                 -12387571.05640  21419484.86840
   1591870.44000  24846727.47400                   1385747.03640  24846731.24740
 -17971782.85200  21139930.61400                 -13740125.44440  21139933.94240
 96  9 11  2 42  0.0010000  0  7  4 14 18 19 22 25 29
   -445125.28300  25085753.22400                     21015.42340  25085758.04040
   2071597.57300  20968616.38000                   1600620.28440  20968620.89240
 -11179145.79800  22742717.58300                  -8400962.35040  22742722.20040
  -2264156.42900  24640073.57500                  -1609376.44340  24640079.32940
 -16116606.16000  21421516.13800                 -12379235.13640  21421520.36840
   1695305.88200  24866410.73900                   1466346.07040  24866412.42740
 -17967206.69500  21140801.40300                 -13736559.60340  21140804.59140
 96  9 11  2 42 30.0010000  0  7  4 14 18 19 22 25 29
   -438124.89200  25087084.67700                     26470.26640  25087088.86040
   2123983.90400  20978585.06700                   1641440.80240  20978589.70840
 -11239712.72400  22731191.95000                  -8448157.34240  22731195.74740
  -2337356.65600  24626143.84100                  -1666415.49840  24626148.92740
 -16105292.00600  21423669.23100                 -12370418.90440  21423673.55640
   1798732.08500  24886092.31700                   1546937.95140  24886096.36040
 -17962319.99700  21141731.32500                 -13732751.78440  21141734.52440
 96  9 11  2 43  0.0010000  0  7  4 14 18 19 22 25 29
   -430593.13500  25088518.62200                     32339.14740  25088521.75140
   2176929.35900  20988660.12200                   1682696.99240  20988664.77440
 -11300133.03500  22719694.41100                  -8495238.08840  22719698.74740
  -2410365.12000  24612250.88800                  -1723305.14440  24612256.77140
 -16093346.01400  21425942.56000                 -12361110.32740  21425946.79040
   1902157.45900  24905773.47400                   1627529.16740  24905776.86040
 -17957125.77800  21142719.66900                 -13728704.33640  21142723.06740
 96  9 11  2 43 30.0010000  0  7  4 14 18 19 22 25 29
   -422538.27600  25090051.20000                     38615.64340  25090055.95840
   2230452.00700  20998845.31000                   1724402.94040  20998849.93840
 -11360413.69300  22708223.55200                  -8542210.01540  22708228.09940
  -2483182.18500  24598394.00500                  -1780045.69540  24598398.71640
 -16080756.45800  21428338.35600                 -12351300.27040  21428342.71640
   2005593.29200  24925456.59900                   1708128.52640  24925458.40340
 -17951631.64000  21143765.17700                 -13724423.18340  21143768.66940
 96  9 11  2 44  0.0010000  0  7  4 14 18 19 22 25 29
   -413963.74300  25091682.67700                     45297.08340  25091686.94240
   2284540.37300  21009137.95000                   1766549.70540  21009142.50940
 -11420576.77500  22696774.49700                  -8589090.31740  22696779.02140
  -2555819.84300  24584571.48900                  -1836646.42240  24584575.26340
 -16067505.30900  21430859.82500                 -12340974.68640  21430863.93840
   2109034.08600  24945140.91100                   1788731.79240  24945144.93140
 -17945856.34900  21144864.12200                 -13719922.95140  21144867.41540
 96  9 11  2 44 30.0010000  0  7  4 14 18 19 22 25 29
   -404862.62900  25093414.67700                     52388.85640  25093419.42340
   2339195.57800  21019538.63800                   1809138.17540  21019543.17340
 -11480628.60900  22685347.37200                  -8635883.92840  22685351.64940
  -2628268.48200  24570785.38000                  -1893099.86340  24570789.35340
 -16053569.99900  21433511.81700                 -12330115.98740  21433515.80240
   2212501.50000  24964830.02800                   1869355.76340  24964831.23540
 -17939817.60200  21146013.37200                 -13715217.42740  21146016.64240
 96  9 11  2 45  0.0010000  0  7  4 14 18 19 22 25 29
   -395245.59400  25095244.52800                     59882.67840  25095248.80640
   2394415.98000  21030046.64600                   1852167.05640  21030051.23940
 -11540563.23200  22673942.01300                  -8682586.20640  22673946.10340
  -2700527.61500  24557034.50500                  -1949405.61040  24557040.10640
 -16038968.63500  21436290.24700                 -12318738.29240  21436294.30240
   2316006.87300  24984526.66100                   1950009.27340  24984529.77840
 -17933533.66700  21147209.13800                 -13710320.84940  21147212.32540
 96  9 11  2 45 30.0010000  0  7  4 14 18 19 22 25 29
   -385102.55100  25097175.27100                     67786.32340  25097180.95440
   2450208.16800  21040663.42700                   1895641.49040  21040667.91540
 -11600363.88400  22662562.19200                  -8729184.09340  22662566.04840
  -2772592.70700  24543321.03600                  -2005560.16540  24543325.39640
 -16023696.52500  21439196.35600                 -12306837.93640  21439200.58740
   2419568.08300  25004233.52800                   2030706.36240  25004235.84940
 -17927010.09000  21148450.70000                 -13705237.53940  21148453.99340
 96  9 11  2 46  0.0010000  0  7  4 14 18 19 22 25 29
   -374434.32100  25099204.50500                     76099.21040  25099207.82140
   2506571.72400  21051389.10600                   1939561.14040  21051393.66540
 -11660011.32100  22651211.70000                  -8775662.61240  22651215.83740
  -2844469.70800  24529643.32500                  -2061568.20540  24529649.54840
 -16007762.65000  21442228.56000                 -12294421.92040  21442232.74340
   2523198.69700  25023953.56700                   2111457.48240  25023958.47840
 -17920236.26600  21149739.47400                 -13699959.23040  21149742.62640
 96  9 11  2 46 30.0010000  0  7  4 14 18 19 22 25 29
   -363230.99700  25101336.98900                     84829.08540  25101340.45840
   2563514.47000  21062224.98100                   1983932.10640  21062229.48140
 -11719485.92600  22639893.77100                  -8822006.43340  22639898.10640
  -2916156.71700  24516001.25500                  -2117428.16640  24516006.06040
 -15991178.83300  21445384.25500                 -12281499.46040  21445388.45040
   2626912.43800  25043689.43500                   2192273.41040  25043690.47840
 -17913199.02000  21151078.74700                 -13694475.65940  21151081.85340
 96  9 11  2 47  0.0010000  0  7  4 14 18 19 22 25 29
   -351489.07800  25103571.52800                     93978.59140  25103575.52440
   2621033.49200  21073170.51300                   2028752.12040  21073174.93140
 -11778780.38700  22628610.65300                  -8868209.89740  22628614.59140
  -2987658.17600  24502394.80200                  -2173143.53340  24502401.00140
 -15973943.14400  21448663.95000                 -12268069.04140  21448668.11040
   2730694.48800  25063438.34900                   2273142.53440  25063440.71640
 -17905889.78200  21152469.77100                 -13688780.14440  21152473.11040
 96  9 11  2 47 30.0010000  0  7  4 14 18 19 22 25 29
   -339219.67700  25105906.19200                    103539.15740  25105910.52840
   2679110.38000  21084222.22400                   2074006.82740  21084226.73540
 -11837920.90900  22617356.57500                  -8914293.42640  22617360.88840
  -3058996.37700  24488820.14600                  -2228731.68240  24488826.01740
 -15956064.98900  21452066.19200                 -12254138.00940  21452070.27140
   2834492.53000  25083190.95000                   2354024.13140  25083193.55240
 -17898331.51900  21153907.75500                 -13682890.58740  21153910.96640
 96  9 11  2 48  0.0010000  0  7  4 14 18 19 22 25 29
   -326405.26400  25108344.97400                    113524.37940  25108348.93540
   2737744.80400  21095379.85600                   2119695.98040  21095384.40340
 -11896903.86200  22606132.32500                  -8960254.15640  22606136.46240
  -3130157.21600  24475278.64600                  -2284181.62440  24475284.88040
 -15937545.38100  21455590.38000                 -12239707.14040  21455594.48140
   2938293.50300  25102943.21600                   2434907.98940  25102946.46240
 -17890497.31500  21155398.45800                 -13676786.00940  21155401.78640
 96  9 11  2 48 30.0010000  0  7  4 14 18 19 22 25 29
   -313050.69800  25110885.53600                    123930.56440  25110891.09140
   2796931.56600  21106642.79400                   2165815.52840  21106647.42340
 -11955744.02700  22594935.73100                  -9006103.62640  22594939.71640
  -3201127.15700  24461773.50500                  -2339482.83940  24461778.29840
 -15918388.47900  21459235.64600                 -12224779.67940  21459239.70040
   3042060.18300  25122689.64600                   2515765.14640  25122696.83340
 -17882397.52800  21156939.84100                 -13670474.48040  21156943.18140
 96  9 11  2 49  0.0010000  0  7  4 14 18 19 22 25 29
   -299173.53400  25113526.80200                    134743.94940  25113530.14240
   2856686.77600  21118013.78600                   2212378.02540  21118018.35640
 -12014440.20900  22583766.47400                  -9051840.91040  22583770.01340
  -3271888.89900  24448308.16100                  -2394621.78640  24448311.87640
 -15898582.46500  21463004.62200                 -12209346.41740  21463008.61840
   3145787.48500  25142428.05200                   2596591.61440  25142433.32540
 -17874027.29700  21158532.89600                 -13663952.22040  21158536.14240
 96  9 11  2 49 30.0010000  0  6  4 14 18 19 22 29
   -284784.36200  25116265.16900                    145956.27540  25116269.86840
   2917012.55800  21129493.66900                   2259385.12140  21129498.18140
 -12072987.90400  22572625.39600                  -9097462.48440  22572628.88840
  -3342435.92000  24434882.47400                  -2449593.41540  24434888.49740
 -15878125.69500  21466897.49700                 -12193406.06740  21466901.49340
 -17865370.40800  21160180.36400                 -13657206.59040  21160183.61040
 96  9 11  2 50  0.0010000  0  6  4 14 18 19 22 29
   -269899.14700  25119097.53600                    157555.13840  25119101.90740
   2977891.22500  21141078.44200                   2306823.03940  21141082.88440
 -12131392.66300  22561510.91900                  -9142972.67940  22561514.77440
  -3412773.97300  24421498.53600                  -2504402.24140  24421504.26740
 -15857026.87500  21470912.37200                 -12176965.41940  21470916.53240
 -17856423.02200  21161882.66100                 -13650234.59840  21161886.06040
 96  9 11  2 50 30.0010000  0  6  4 14 18 19 22 29
   -254505.07300  25122025.87200                    169550.52840  25122029.69240
   3039343.75800  21152772.39600                   2354708.12540  21152776.86040
 -12189633.96200  22550427.95800                  -9188355.50340  22550432.07140
  -3482891.51000  24408154.96600                  -2559039.24940  24408160.74340
 -15835261.67300  21475054.23100                 -12160005.51240  21475058.52140
 -17847178.85300  21163641.84900                 -13643031.34740  21163645.11840
 96  9 11  2 51  0.0010000  0  6  4 14 18 19 22 29
   -238591.38600  25125054.81700                    181950.75540  25125058.76740
   3101347.15000  21164571.26300                   2403022.44240  21164575.81040
 -12247711.19400  22539375.77800                  -9233610.48040  22539380.34940
  -3552809.14300  24394850.29400                  -2613520.48640  24394857.05640
 -15812829.96700  21479322.81000                 -12142526.25340  21479327.02840
 -17837634.65000  21165457.93500                 -13635594.30340  21165461.13440
 96  9 11  2 51 30.0010000  0  6  4 14 18 19 22 29
   -222115.63500  25128190.74700                    194789.03640  25128195.71640
   3163906.19900  21176475.85600                   2451769.73840  21176480.45040
 -12305619.11800  22528356.20800                  -9278733.52440  22528360.20440
  -3622524.27700  24381583.68500                  -2667843.93340  24381589.04040
 -15789726.90300  21483719.10600                 -12124523.85440  21483723.22040
 -17827775.80300  21167334.20000                 -13627912.07740  21167337.48140
 96  9 11  2 52  0.0010000  0  6  4 14 18 19 22 29
   -205075.77900  25131432.12200                    208066.82840  25131436.92740
   3227018.87700  21188485.85600                   2500948.43740  21188490.26340
 -12363375.15800  22517366.12200                  -9323738.21940  22517370.30640
  -3692046.75900  24368353.76300                  -2722017.22140  24368361.09140
 -15765972.97300  21488239.52800                 -12106014.28940  21488243.67740
 -17817621.89300  21169266.34100                 -13619999.94140  21169269.59940
 96  9 11  2 52 30.0010000  0  6  4 14 18 19 22 29
   -187491.20700  25134778.51300                    221769.06340  25134783.24740
   3290687.63800  21200601.57500                   2550560.45040  21200606.01740
 -12420997.15700  22506401.12200                  -9368638.45840  22506405.44640
  -3761386.87500  24355159.41900                  -2776048.43240  24355164.14240
 -15741580.83800  21492881.20000                 -12087007.41940  21492885.26740
 -17807180.08200  21171252.99700                 -13611863.45940  21171256.34940
 96  9 11  2 53  0.0010000  0  6  4 14 18 19 22 29
   -169375.93100  25138226.32500                    235884.88740  25138230.63840
   3354922.28800  21212825.07500                   2600613.41340  21212829.45840
 -12478492.27500  22495460.18500                  -9413439.83840  22495464.46240
  -3830538.05300  24342000.45000                  -2829932.43140  24342005.37240
 -15716555.73900  21497643.45800                 -12067507.33540  21497647.27840
 -17796442.16800  21173296.66100                 -13603496.24940  21173299.98940
 96  9 11  2 53 30.0010000  0  6  4 14 18 19 22 29
   -150744.72800  25141772.06700                    250402.68840  25141777.25940
   3419748.64600  21225161.08300                   2651127.45440  21225165.64240
 -12535864.26300  22484542.30200                  -9458145.26440  22484546.39240
  -3899488.56100  24328879.42700                  -2883660.06540  24328885.01740
 -15690892.24700  21502527.05200                 -12047509.79940  21502530.96640
 -17785405.34100  21175396.95800                 -13594896.11840  21175400.26340
 96  9 11  2 54  0.0010000  0  6  4 14 18 19 22 29
   -131622.94700  25145410.69200                    265302.74840  25145415.31040
   3485147.10100  21237605.98900                   2702087.28140  21237610.48940
 -12593098.98700  22473650.88800                  -9502743.73740  22473655.01340
  -3968238.33900  24315797.35600                  -2937231.27740  24315800.68540
 -15664590.34700  21507532.02800                 -12027014.80440  21507535.95440
 -17774080.24000  21177551.91100                 -13586071.36240  21177555.18140
 96  9 11  2 54 30.0010000  0  6  4 14 18 19 22 29
   -112005.02700  25149144.06000                    280589.47440  25149148.26740
   3551118.40100  21250159.73900                   2753493.46840  21250164.42740
 -12650175.48700  22462789.59100                  -9547218.92040  22462793.79840
  -4036771.58800  24302755.50500                  -2990633.72040  24302760.25140
 -15637635.50700  21512661.21600                 -12006011.02540  21512665.18840
 -17762467.57400  21179761.90300                 -13577022.53140  21179765.20840
 96  9 11  2 55  0.0010000  0  6  4 14 18 19 22 29
    -91885.80300  25152972.21600                    296266.77640  25152977.07940
   3617652.25800  21262820.77100                   2805338.02040  21262825.31740
 -12707074.94000  22451961.91900                  -9591556.14040  22451966.45440
  -4105092.85400  24289754.32500                  -3043871.09340  24289759.97440
 -15610030.91600  21517914.09900                 -11984500.94540  21517918.22440
 -17750571.32700  21182025.68500                 -13567752.72140  21182029.02440
 96  9 11  2 55 30.0010000  0  6  4 14 18 19 22 29
    -71267.74500  25156895.56700                    312332.74440  25156899.95040
   3684731.66000  21275585.51300                   2857607.67940  21275589.96640
 -12763780.43700  22441171.39600                  -9635742.22940  22441175.72040
  -4173215.18700  24276790.41900                  -3096953.37940  24276796.12640
 -15581794.69700  21523287.42700                 -11962498.69040  21523291.47040
 -17738403.52800  21184341.06700                 -13558271.31740  21184344.40740
 96  9 11  2 56  0.0010000  0  6  4 14 18 19 22 29
    -50137.43200  25160917.09100                    328797.94140  25160922.36440
   3752359.61500  21288455.05200                   2910304.77840  21288459.56340
 -12820260.35000  22430423.59100                  -9679752.54140  22430427.86840
  -4241117.60100  24263869.22400                  -3149864.29640  24263874.39240
 -15552923.77300  21528781.46600                 -11940001.86240  21528785.35640
 -17725945.31900  21186711.83300                 -13548563.61140  21186715.04440
 96  9 11  2 56 30.0010000  0  6  4 14 18 19 22 29
    -28503.67700  25165033.40300                    345655.43740  25165036.36840
   3820534.32200  21301428.02800                   2963427.92340  21301432.51740
 -12876544.18400  22419713.28600                  -9723610.06940  22419717.58740
  -4308814.68600  24250986.72400                  -3202615.24640  24250993.02840
 -15523422.29600  21534395.31000                 -11917013.69140  21534399.17740
 -17713189.09000  21189139.02100                 -13538623.68940  21189142.30240
 96  9 11  2 57  0.0020000  0  6  4 14 18 19 22 29
     -6358.39200  25169247.61100                    362911.44140  25169250.62340
   3889258.29700  21314505.68200                   3016979.06540  21314510.19340
 -12932625.45300  22409041.19700                  -9767309.75140  22409044.92440
  -4376309.04600  24238143.01000                  -3255208.19040  24238149.19740
 -15493272.95600  21540132.65800                 -11893520.69240  21540136.57240
 -17700104.87200  21191628.82200                 -13528428.18640  21191632.16240
 96  9 11  2 57 30.0020000  0  6  4 14 18 19 22 29
     16311.42600  25173561.88500                    380576.22140  25173566.70140
   3958527.89100  21327687.18200                   3070955.36340  21327691.82240
 -12988507.15400  22398406.94700                  -9810853.92840  22398411.00240
  -4443590.72000  24225339.68200                  -3307635.46640  24225345.08440
 -15462458.66600  21545996.43200                 -11869509.55540  21546000.39340
 -17686696.08300  21194180.60400                 -13517979.77140  21194183.82640
 96  9 11  2 58  0.0020000  0  6  4 14 18 19 22 29
     39494.80600  25177973.40800                    398641.20140  25177977.58040
   4028321.48800  21340968.37700                   3125339.98340  21340973.18240
 -13044234.06900  22387802.54100                  -9854277.48640  22387806.65440
  -4510685.75600  24212571.61900                  -3359917.26940  24212577.87740
 -15430978.10900  21551986.85400                 -11844979.24040  21551991.03740
 -17672985.95100  21196789.76000                 -13507296.54640  21196793.02940
 96  9 11  2 58 30.0020000  0  6  4 14 18 19 22 29
     63211.98600  25182486.08800                    417122.11840  25182490.38940
   4098652.58400  21354352.13500                   3180143.43340  21354356.89340
 -13099804.86600  22377228.08000                  -9897579.38940  22377232.29940
  -4577591.10600  24199840.58000                  -3412051.27640  24199846.08840
 -15398805.30500  21558108.95500                 -11819909.51340  21558113.01040
 -17658975.00400  21199455.89300                 -13496378.91740  21199459.20940
 96  9 11  2 59  0.0020000  0  6  4 14 18 19 22 29
     87475.12700  25187103.08000                    436028.42440  25187109.13940
   4169528.77800  21367839.45500                   3235371.63040  21367844.06140
 -13155194.35600  22366687.61900                  -9940740.00940  22366691.93240
  -4644290.83800  24187147.85400                  -3464025.06040  24187153.58440
 -15365944.37100  21564362.33000                 -11794303.58240  21564366.24440
 -17644669.89500  21202178.04100                 -13485232.07640  21202181.21740
 96  9 11  2 59 30.0020000  0  6  4 14 18 19 22 29
    112262.15400  25191820.48600                    455342.98840  25191825.83040
   4240952.52300  21381431.02500                   3291026.49840  21381435.64340
 -13210423.08500  22356178.04100                  -9983775.36040  22356182.11940
  -4710792.36500  24174492.73600                  -3515844.41240  24174497.98640
 -15332427.95200  21570740.23600                 -11768186.88140  21570744.13940
 -17630092.54000  21204951.96300                 -13473873.09540  21204955.26840
 96  9 11  3  0  0.0020000  0  6  4 14 18 19 22 29
    137573.06600  25196637.32200                    475065.75240  25196642.47940
   4312935.51100  21395129.29900                   3347117.13940  21395133.82240
 -13265481.66800  22345700.51000                 -10026678.13140  22345704.77540
  -4777068.36900  24161881.22900                  -3567488.01840  24161886.54940
 -15298258.36400  21577242.54100                 -11741561.22840  21577246.49040
 -17615216.30100  21207782.73600                 -13462281.21640  21207785.93640
 96  9 11  3  0 30.0020000  0  6  4 14 18 19 22 29
    163411.34300  25201554.07200                    495199.45440  25201558.71340
   4385479.51600  21408933.83000                   3403644.93440  21408938.24840
 -13320347.69500  22335259.92400                 -10069430.86240  22335263.92040
  -4843093.31400  24149316.90800                  -3618935.97740  24149322.59240
 -15263442.67000  21583867.78300                 -11714432.10840  21583871.82640
 -17600021.46300  21210674.19700                 -13450441.08340  21210677.32640
 96  9 11  3  1  0.0020000  0  6  4 14 18 19 22 29
    189755.12200  25206566.67400                    515727.08040  25206571.16240
   4458561.19500  21422840.56400                   3460591.69240  21422845.15840
 -13375042.01900  22324852.01000                 -10112049.79940  22324856.18240
  -4908885.06200  24136796.86100                  -3670202.23140  24136801.80740
 -15228017.80500  21590608.78300                 -11686828.31340  21590612.68640
 -17584521.15300  21213624.02500                 -13438362.91540  21213627.27140
 96  9 11  3  1 30.0020000  0  6  4 14 18 19 22 29
    216600.74300  25211675.88500                    536645.72740  25211678.39340
   4532173.58000  21436848.56400                   3517951.98940  21436853.07640
 -13429565.32000  22314476.72900                 -10154535.48340  22314480.91240
  -4974448.94600  24124320.19700                  -3721290.93840  24124326.10440
 -15191971.78300  21597468.16600                 -11658740.49840  21597472.18640
 -17568702.13400  21216634.26800                 -13426036.39940  21216637.39640
 96  9 11  3  2  0.0020000  0  6  4 14 18 19 22 29
    243956.86600  25216881.08800                    557962.17740  25216886.11540
   4606291.10400  21450952.60400                   3575705.89240  21450957.19740
 -13483913.63100  22304134.47900                 -10196884.80540  22304138.41640
  -5039795.09400  24111885.54100                  -3772209.99340  24111891.14340
 -15155293.83200  21604447.60400                 -11630160.27340  21604451.41240
 -17552566.81800  21219704.53300                 -13413463.41740  21219707.76840
 96  9 11  3  2 30.0020000  0  6  4 14 18 19 22 29
    271806.56600  25222180.52500                    579663.24040  25222183.54940
   4680903.73300  21465150.97900                   3633845.59140  21465155.45540
 -13538090.35500  22293824.89300                 -10239100.42940  22293828.94740
  -5104955.98400  24099485.66600                  -3822984.68940  24099491.51440
 -15117995.97700  21611545.28300                 -11601097.00840  21611549.18640
 -17536137.68400  21222830.79100                 -13400661.49340  21222834.22540
 96  9 11  3  3  0.0020000  0  6  4 14 18 19 22 29
    300143.46600  25227573.06400                    601743.91840  25227577.36540
   4756031.76900  21479447.36900                   3692386.92540  21479452.04540
 -13592081.21000  22283550.68900                 -10281171.20940  22283554.70940
  -5169935.76400  24087120.93900                  -3873618.23440  24087126.86940
 -15080063.11900  21618763.48600                 -11571538.93140  21618767.49440
 -17519404.49300  21226015.04900                 -13387622.63840  21226018.47140
 96  9 11  3  3 30.0020000  0  6  4 14 18 19 22 29
    328979.05900  25233060.47100                    624213.20240  25233065.77940
   4831696.66100  21493845.93200                   3751346.56640  21493850.54940
 -13645854.64500  22273317.83800                 -10323072.57840  22273322.25640
  -5234704.96500  24074795.49400                  -3924087.72140  24074800.47540
 -15041472.35200  21626107.16600                 -11541468.19840  21626111.05740
 -17502334.15500  21229263.32200                 -13374321.06940  21229266.76840
 96  9 11  3  4  0.0020000  0  6  4 14 18 19 22 29
    358301.35100  25238640.16600                    647061.68740  25238644.78340
   4907899.23700  21508346.92400                   3810725.19040  21508351.45940
 -13699422.57900  22263124.13500                 -10364813.81140  22263128.42440
  -5299260.06300  24062511.26800                  -3974390.34840  24062517.24440
 -15002250.10700  21633570.93900                 -11510905.40940  21633574.90040
 -17484948.71100  21232571.66600                 -13360773.96740  21232575.02940
 96  9 11  3  4 30.0020000  0  6  4 14 18 19 22 29
    388121.38300  25244315.14300                    670298.07440  25244317.18240
   4984673.55700  21522956.13500                   3870549.33240  21522960.78740
 -13752755.23400  22252975.34600                 -10406371.71340  22252979.42440
  -5363565.86300  24050273.98600                  -4024498.74240  24050279.30740
 -14962381.74600  21641157.76800                 -11479839.14640  21641161.86940
 -17467212.38100  21235946.83000                 -13346953.44540  21235950.04140
 96  9 11  3  5  0.0020000  0  6  4 14 18 19 22 29
    418423.23000  25250081.12700                    693909.91940  25250086.10740
   5061993.18100  21537669.81400                   3930798.37440  21537674.49040
 -13805874.65200  22242867.14300                 -10447763.45440  22242871.16240
  -5427636.81000  24038081.61900                  -4074424.11440  24038086.61140
 -14921887.56100  21648863.49400                 -11448285.23640  21648867.53740
 -17449143.04500  21239385.31400                 -13332873.43840  21239388.68940
 96  9 11  3  5 30.0020000  0  6  4 14 18 19 22 29
    449249.07100  25255947.43200                    717930.05340  25255952.83440
   5139869.20700  21552488.90800                   3991480.98940  21552493.66640
 -13858773.29000  22232801.11900                 -10488983.15640  22232805.18640
  -5491453.61500  24025937.86100                  -4124151.47740  24025943.28740
 -14880748.73600  21656692.04100                 -11416228.99740  21656696.06140
 -17430728.44800  21242889.57200                 -13318524.39440  21242892.86540
 96  9 11  3  6  0.0020000  0  6  4 14 18 19 22 29
    480563.99900  25261906.30700                    742331.26540  25261909.78740
   5218250.96400  21567404.90800                   4052557.68340  21567409.39640
 -13911495.86400  22222768.20500                 -10530065.66840  22222772.06140
  -5555070.52500  24013831.76800                  -4173723.07340  24013837.26440
 -14839006.57900  21664635.01000                 -11383702.63440  21664639.18240
 -17412029.79300  21246447.87700                 -13303954.00540  21246451.14640
 96  9 11  3  6 30.0020000  0  6  4 14 18 19 22 29
    512389.68900  25267962.49400                    767130.48640  25267969.33840
   5297157.52100  21582420.23600                   4114043.30840  21582424.65440
 -13964014.34400  22212774.35400                 -10570989.14840  22212778.52540
  -5618479.35700  24001765.68200                  -4223132.51940  24001770.83840
 -14796625.42100  21672699.97900                 -11350678.35440  21672703.93940
 -17393015.97900  21250065.99400                 -13289138.04440  21250069.33440
 96  9 11  3  7  0.0020000  0  6  4 14 18 19 22 29
    544729.51700  25274116.91600                    792330.33140  25274124.56140
   5376586.27200  21597535.05700                   4175935.84540  21597539.46340
 -14016339.51300  22202817.43900                 -10611761.98040  22202821.57640
  -5681690.93500  23989736.43200                  -4272388.24140  23989741.81140
 -14753609.60100  21680885.82200                 -11317159.52640  21680889.76040
 -17373701.90000  21253741.33000                 -13274088.10840  21253744.50640
 96  9 11  3  7 30.0020000  0  6  4 14 18 19 22 29
    577578.10700  25280367.33800                    817926.65640  25280370.20940
   5456533.44000  21612748.40800                   4238232.33540  21612752.73240
 -14068465.71100  22192897.93900                 -10652379.78640  22192901.94740
  -5744696.58700  23977747.17400                  -4321483.54240  23977752.98640
 -14709965.57600  21689190.65800                 -11283151.18940  21689194.63140
 -17354081.08000  21257475.11100                 -13258799.15240  21257478.27540
 96  9 11  3  8  0.0020000  0  6  4 14 18 19 22 29
    610909.55600  25286709.76000                    843899.18540  25286713.80340
   5537002.41500  21628061.16600                   4300935.43140  21628065.73640
 -14120386.37500  22183017.72900                 -10692837.43640  22183021.54940
  -5807498.60400  23965796.28300                  -4370420.16940  23965802.08440
 -14665699.33400  21697614.21300                 -11248658.00940  21697618.04540
 -17334162.05300  21261265.64300                 -13243277.83440  21261268.90040
 96  9 11  3  8 30.0020000  0  6  4 14 18 19 22 29
    644731.95900  25293146.21300                    870254.27640  25293150.09240
   5618011.06100  21643476.75200                   4364059.04940  21643481.29940
 -14172082.38800  22173180.23600                 -10733120.01340  22173184.29140
  -5870074.59900  23953888.53300                  -4419180.62640  23953894.56840
 -14620784.72700  21706161.47100                 -11213659.60540  21706165.49040
 -17313909.75100  21265119.51000                 -13227496.81340  21265122.70940
 96  9 11  3  9  0.0020000  0  6  4 14 18 19 22 29
    679031.06500  25299672.97100                    896980.86140  25299675.16240
   5699529.70700  21658989.21300                   4427580.08340  21658993.70140
 -14223573.46200  22163381.63500                 -10773242.91640  22163385.59640
  -5932435.35300  23942021.94700                  -4467773.40840  23942026.81140
 -14575245.47400  21714827.22900                 -11178174.47140  21714831.36540
 -17293348.15500  21269032.17400                 -13211474.78740  21269035.45540
 96  9 11  3  9 30.0020000  0  6  4 14 18 19 22 29
    713793.10200  25306288.35400                    924068.09940  25306292.57240
   5781558.01100  21674598.78300                   4491498.24640  21674603.06140
 -14274854.56700  22153623.00200                 -10813202.21340  22153626.98640
  -5994571.09300  23930197.33000                  -4516190.81640  23930202.54540
 -14529078.37400  21723612.63500                 -11142200.10040  21723616.73640
 -17272479.82500  21273003.26800                 -13195213.74540  21273006.38540
 96  9 11  3 10  0.0020000  0  6  4 14 18 19 22 29
    749031.45300  25312993.48600                    951526.55740  25312998.16240
   5864110.66400  21690307.86900                   4555825.00040  21690312.13540
 -14325920.79800  22143905.64300                 -10852994.06840  22143909.70940
  -6056474.69500  23918417.01800                  -4564427.35240  23918421.79940
 -14482261.36500  21732521.41600                 -11105719.31240  21732525.22540
 -17251284.45700  21277036.52500                 -13178697.87740  21277039.73640
 96  9 11  3 10 30.0020000  0  6  4 14 18 19 22 29
    784752.99600  25319790.99400                    979361.48340  25319795.74040
   5947180.02600  21706115.65800                   4620554.38140  21706119.98240
 -14376771.50100  22134228.97900                 -10892617.98140  22134232.86940
  -6118137.99000  23906683.71300                  -4612476.62140  23906688.88140
 -14434787.99800  21741555.47900                 -11068727.07340  21741559.56840
 -17229734.22200  21281137.43200                 -13161905.48840  21281140.67840
 96  9 11  3 11  0.0020000  0  6  4 14 18 19 22 29
    820925.97200  25326674.68900                   1007548.19240  25326678.61540
   6030732.91700  21722014.73600                   4685660.53740  21722019.30740
 -14427448.99200  22124585.40000                 -10932106.91840  22124589.50240
  -6179600.40600  23894987.70500                  -4660369.37140  23894992.81440
 -14386713.58700  21750703.58000                 -11031266.48640  21750707.50640
 -17207866.34100  21285298.86100                 -13144865.56940  21285302.15440
 96  9 11  3 11 30.0020000  0  6  4 14 18 19 22 29
    857547.88100  25333643.55700                   1036084.76740  25333647.89340
   6114765.66400  21738005.36100                   4751140.60940  21738010.17840
 -14477943.62900  22114976.60400                 -10971453.38640  22114980.47140
  -6240865.04200  23883329.47900                  -4708108.00340  23883334.76440
 -14338039.29700  21759966.02500                 -10993338.46240  21759970.05740
 -17185667.93700  21289523.14300                 -13127568.10740  21289526.42440
 96  9 11  3 12  0.0020000  0  6  4 14 18 19 22 29
    894650.34800  25340704.65000                   1064995.78040  25340709.91240
   6199276.76800  21754087.54100                   4816993.41440  21754092.38140
 -14528228.41600  22105407.97900                 -11010636.31740  22105411.68240
  -6301932.67400  23871707.88500                  -4755693.12640  23871713.47540
 -14288744.58500  21769346.31400                 -10954926.99340  21769350.35740
 -17163120.29900  21293813.79900                 -13109998.52440  21293816.97540
 96  9 11  3 12 30.0020000  0  6  4 14 18 19 22 29
    932238.65000  25347856.52500                   1094285.32240  25347861.00240
   6284247.00800  21770257.06400                   4883203.98140  21770261.65840
 -14578293.68000  22095880.99400                 -11049648.21440  22095884.75640
  -6362806.99300  23860124.08800                  -4803127.65740  23860129.79540
 -14238848.87600  21778841.43900                 -10916047.22140  21778845.30740
 -17140248.96500  21298165.86900                 -13092176.70140  21298169.08040
 96  9 11  3 13  0.0020000  0  6  4 14 18 19 22 29
    970336.26200  25355106.42400                   1123971.78140  25355111.95540
   6369683.90400  21786515.15800                   4949778.19340  21786519.63540
 -14628118.84200  22086399.30700                 -11088473.00240  22086403.51440
  -6423473.15700  23848579.81400                  -4850399.95540  23848585.24040
 -14188343.79400  21788452.03300                 -10876692.60940  21788456.06440
 -17117066.03600  21302577.44700                 -13074112.07940  21302580.75240
 96  9 11  3 13 30.0020000  0  6  4 14 18 19 22 29
   1008933.34400  25362451.58800                   1154047.36040  25362454.86940
   6455578.92000  21802860.44700                   5016709.38340  21802864.83040
 -14677700.35600  22076964.32200                 -11127107.94440  22076968.18940
  -6483915.66700  23837078.04900                  -4897497.97540  23837083.14640
 -14137225.11200  21798179.76800                 -10836859.86640  21798183.90440
 -17093579.99900  21307046.68900                 -13055811.26740  21307049.93640
 96  9 11  3 14  0.0020000  0  6  4 14 18 19 22 29
   1048018.90500  25369889.63500                   1184503.67640  25369894.36940
   6541941.39000  21819294.79900                   5084004.82540  21819299.13540
 -14727056.67400  22067572.12700                 -11165567.39240  22067576.05340
  -6544116.28200  23825622.15800                  -4944407.51240  23825626.92840
 -14085502.61300  21808022.33800                 -10796556.61040  21808026.17040
 -17069785.23800  21311574.90000                 -13037269.89040  21311578.11140
 96  9 11  3 14 30.0020000  0  6  4 14 18 19 22 29
   1087573.52700  25377416.19700                   1215325.42440  25377418.13140
   6628795.27400  21835822.59600                   5151683.18740  21835826.99040
 -14776204.71500  22058219.30700                 -11203864.56040  22058223.15040
  -6604054.19400  23814216.59600                  -4991112.36640  23814221.21340
 -14033187.15400  21817977.47100                 -10755791.31240  21817981.45540
 -17045661.12400  21316165.34600                 -13018471.88040  21316168.60440
 96  9 11  3 15  0.0020000  0  6  4 14 18 19 22 29
   1127572.64400  25385028.60400                   1246493.55440  25385033.88940
   6716148.35700  21852445.15800                   5219750.53440  21852449.63540
 -14825166.12900  22048902.22100                 -11242016.30540  22048906.28740
  -6663724.11300  23802861.73600                  -5037608.36040  23802866.92840
 -13980275.71400  21828046.15800                 -10714561.61940  21828050.33040
 -17021197.33000  21320820.80700                 -12999409.18440  21320824.08840
 96  9 11  3 15 30.0020000  0  6  4 14 18 19 22 29
   1167992.13900  25392719.49400                   1277989.23740  25392722.49440
   6804005.37500  21869163.74400                   5288210.54140  21869168.20940
 -14873950.49400  22039619.08000                 -11280030.07440  22039623.24040
  -6723140.51500  23791555.21300                  -5083906.81640  23791559.65440
 -13926778.23600  21838226.29900                 -10672875.26740  21838230.44740
 -16996382.09200  21325542.92400                 -12980072.63240  21325546.27540
 96  9 11  3 16  0.0020000  0  6  4 14 18 19 22 29
   1208845.63000  25400493.18900                   1309823.12840  25400499.95140
   6892379.80300  21885981.20500                   5357073.74040  21885985.55340
 -14922540.99800  22030372.36900                 -11317892.78540  22030376.28340
  -6782324.34400  23780292.70500                  -5130024.05540  23780298.37740
 -13872677.91900  21848521.11900                 -10630719.17640  21848525.05740
 -16971201.97400  21330334.56400                 -12960451.75540  21330337.81140
 96  9 11  3 16 30.0020000  0  6  4 14 18 19 22 29
   1250141.47700  25408351.81400                   1342001.65640  25408357.53340
   6981256.47800  21902893.64300                   5426328.27540  21902898.02540
 -14970924.74500  22021165.54900                 -11355594.41340  22021169.59240
  -6841306.73600  23769068.78300                  -5175984.33940  23769073.61140
 -13817975.44600  21858930.86900                 -10588093.86740  21858934.88940
 -16945686.35600  21335190.02500                 -12940569.45640  21335193.29540
 96  9 11  3 17  0.0020000  0  6  4 14 18 19 22 29
   1291882.12700  25416294.98600                   1374526.80540  25416298.32640
   7070607.97000  21919896.56400                   5495952.79340  21919901.06440
 -15019087.36500  22012000.22100                 -11393123.71140  22012004.17040
  -6900117.80300  23757876.99400                  -5221811.11140  23757881.91640
 -13762677.97500  21869453.72100                 -10545004.92740  21869457.70540
 -16919850.22000  21340106.64300                 -12920437.39540  21340109.98240
 96  9 11  3 17 30.0020000  0  6  4 14 18 19 22 29
   1334092.36300  25424327.85400                   1407417.93940  25424330.79540
   7160448.68900  21936992.54100                   5565958.52240  21936997.13540
 -15066989.38800  22002884.99400                 -11430449.94140  22002888.83840
  -6958751.14400  23746719.95500                  -5267499.39240  23746725.43940
 -13706770.99800  21880092.64300                 -10501441.04540  21880096.72140
 -16893673.99400  21345087.58800                 -12900040.34040  21345090.74040
 96  9 11  3 18  0.0020000  0  6  4 14 18 19 22 29
   1376768.61700  25432448.57200                   1440672.15740  25432453.34240
   7250747.89200  21954175.97900                   5636321.51140  21954180.58440
 -15114635.76800  21993818.02500                 -11467576.98140  21993821.68240
  -7017204.80300  23735596.27500                  -5313047.65940  23735601.76040
 -13650272.83500  21890843.68200                 -10457416.49940  21890847.64340
 -16867172.20200  21350130.55700                 -12879389.58640  21350133.80340
 96  9 11  3 18 30.0020000  0  6  4 14 18 19 22 29
   1419917.59700  25440659.45500                   1474294.64740  25440663.06440
   7341511.57200  21971447.46300                   5707046.43540  21971452.25640
 -15162014.18100  21984802.45500                 -11504495.22440  21984806.05340
  -7075439.68800  23724514.21300                  -5358425.46140  23724519.14640
 -13593178.98500  21901708.26800                 -10412927.77840  21901712.22940
 -16840326.49000  21355239.17400                 -12858470.84340  21355242.38540
 96  9 11  3 19  0.0020000  0  6  4 14 18 19 22 29
   1463531.75600  25448958.73600                   1508279.72140  25448964.31440
   7432750.12700  21988810.15000                   5778141.37340  21988814.86140
 -15209124.73700  21975837.48600                 -11541204.74540  21975841.16640
  -7133436.38400  23713478.04900                  -5403617.65540  23713483.21740
 -13535482.69200  21912687.45500                 -10367969.62740  21912691.18240
 -16813113.01700  21360417.97900                 -12837265.54340  21360421.08440
 96  9 11  3 19 30.0020000  0  6  4 14 18 19 22 29
   1507592.31400  25457343.22100                   1542612.62940  25457346.68940
   7524440.96400  22006258.34600                   5849588.76640  22006262.98640
 -15255998.10700  21966917.90800                 -11577729.44940  21966921.71740
  -7191193.97800  23702487.27500                  -5448623.54140  23702493.06440
 -13477206.44300  21923776.72900                 -10322559.56040  21923780.64340
 -16785566.02200  21365659.72100                 -12815800.35140  21365662.83840
 96  9 11  3 20  0.0020000  0  6  4 14 18 19 22 29
   1552091.11400  25465811.73600                   1577286.98940  25465814.91240
   7616577.33500  22023791.42400                   5921383.32340  22023795.86540
 -15302647.29900  21958040.69700                 -11614079.45240  21958044.65840
  -7248716.20300  23691540.95500                  -5493446.02140  23691546.33440
 -13418350.31900  21934976.94700                 -10276697.64140  21934981.06140
 -16757690.62300  21370964.47100                 -12794079.25940  21370967.57640
 96  9 11  3 20 30.0020000  0  6  4 14 18 19 22 29
   1597033.82700  25474363.84600                   1612307.30340  25474367.63140
   7709177.20900  22041412.34600                   5993539.06240  22041417.05740
 -15349068.98200  21949206.86900                 -11650252.19540  21949210.88940
  -7306013.66000  23680637.07200                  -5538093.37140  23680641.88940
 -13358902.05800  21946289.43900                 -10230374.32140  21946293.42440
 -16729486.56100  21376331.31400                 -12772102.06140  21376334.46740
 96  9 11  3 21  0.0020000  0  6  4 14 18 19 22 29
   1642415.95600  25482999.27500                   1647669.95340  25483008.05740
   7802225.96500  22059119.12700                   6066044.56140  22059123.68640
 -15395266.21800  21940415.82200                 -11686250.01740  21940419.97140
  -7363098.46600  23669774.79100                  -5582575.00240  23669779.70140
 -13298873.84600  21957712.46300                 -10183599.08940  21957716.41240
 -16700966.40100  21381758.76800                 -12749878.56640  21381761.86140
 96  9 11  3 21 30.0020000  0  6  4 14 18 19 22 29
   1688228.06000  25491717.55700                   1683367.65540  25491721.99840
   7895706.41700  22076907.84600                   6138886.45940  22076912.52140
 -15441239.35700  21931667.38500                 -11722073.22640  21931671.46340
  -7419979.36400  23658950.69700                  -5626897.75640  23658955.37340
 -13238274.80700  21969244.19700                 -10136379.05740  21969248.21740
 -16672132.09200  21387245.69700                 -12727410.28140  21387248.79140
 96  9 11  3 22  0.0020000  0  6  4 14 18 19 22 29
   1734458.78600  25500514.40000                   1719391.61340  25500515.79540
   7989633.11200  22094781.33800                   6212076.08640  22094786.03740
 -15486976.76400  21922963.87700                 -11757712.74340  21922967.90840
  -7476655.03900  23648165.87700                  -5671060.58840  23648170.17840
 -13177098.20200  21980885.97100                 -10088708.96540  21980889.95540
 -16642964.03600  21392796.26800                 -12704681.91740  21392799.38540
 96  9 11  3 22 30.0020000  0  6  4 14 18 19 22 29
   1781093.25600  25509389.05700                   1755730.17140  25509392.54940
   8083993.36700  22112737.35400                   6285603.55040  22112742.21740
 -15532482.22200  21914304.36100                 -11793171.52140  21914308.28740
  -7533135.19000  23637417.74400                  -5715071.07440  23637422.25640
 -13115352.33400  21992635.70500                 -10040595.30240  21992639.46740
 -16613467.62600  21398409.18200                 -12681697.70940  21398412.40440
 96  9 11  3 23  0.0020000  0  6  4 14 18 19 22 29
   1828152.98900  25518343.64300                   1792400.07840  25518343.57240
   8178801.71900  22130778.91600                   6359480.17240  22130783.59240
 -15577730.37000  21905694.07200                 -11828429.80840  21905697.64640
  -7589383.55400  23626714.27500                  -5758900.95140  23626719.64340
 -13053004.35300  22004499.99400                  -9992012.45440  22004503.83840
 -16583614.10900  21404090.04900                 -12658435.23340  21404093.24840
 96  9 11  3 23 30.0020000  0  6  4 14 18 19 22 29
   1875629.71900  25527378.92400                   1829394.99740  25527385.53340
   8274061.92300  22148906.35400                   6433708.90640  22148910.74840
 -15622734.50300  21897130.04100                 -11863497.95940  21897133.83840
  -7645406.33400  23616053.23600                  -5802555.05940  23616058.27540
 -12990054.61700  22016479.11100                  -9942960.70340  22016482.82640
 -16553417.41200  21409836.43900                 -12634905.33940  21409839.51040
 96  9 11  3 24  0.0020000  0  6  4 14 18 19 22 29
   1923535.61500  25536494.93900                   1866724.15240  25536498.95940
   8369783.46200  22167121.51000                   6508297.11940  22167126.06840
 -15667489.86400  21888613.40800                 -11898372.25140  21888617.10040
  -7701201.08700  23605436.07200                  -5846031.45140  23605441.12340
 -12926500.19500  22028572.99400                  -9893437.76740  22028576.63940
 -16522886.60000  21415646.17400                 -12611115.09540  21415649.18640
 96  9 11  3 24 30.0020000  0  6  4 14 18 19 22 29
   1971884.68400  25545695.02500                   1904398.69740  25545694.17040
   8465955.34700  22185422.41600                   6583236.24640  22185426.72940
 -15712001.71100  21880143.19700                 -11933056.79040  21880146.97140
  -7756774.17500  23594860.35400                  -5889335.12540  23594865.77940
 -12862347.85600  22040780.60400                  -9843448.91840  22040784.60040
 -16492033.40800  21421517.54100                 -12587073.65440  21421520.48240
 96  9 11  3 25  0.0020000  0  5 14 18 19 22 29
   8562576.51600  22203808.80700                   6658525.47540  22203813.27140
 -15756266.48500  21871719.86100                 -11967548.81040  21871723.72940
  -7812108.29200  23584330.97100                  -5932452.60240  23584335.63540
 -12797609.49400  22053099.77500                  -9793003.43640  22053104.00640
 -16460857.76500  21427449.83000                 -12562780.94540  21427453.00640
 96  9 11  3 25 30.0020000  0  5 14 18 19 22 29
   8659656.20800  22222282.07200                   6734171.99540  22222286.65440
 -15800278.78600  21863344.37700                 -12001844.08640  21863348.20940
  -7867209.36100  23573845.54100                  -5975388.47440  23573851.08440
 -12732299.62300  22065528.01000                  -9742112.62940  22065532.22940
 -16429339.88300  21433447.40000                 -12538221.56040  21433450.68240
 96  9 11  3 26  0.0020000  0  5 14 18 19 22 29
   8757169.82300  22240838.61100                   6810156.63340  22240843.34640
 -15844049.11400  21855015.13500                 -12035950.81640  21855018.88540
  -7922097.72000  23563400.75200                  -6018158.61140  23563406.35440
 -12666445.76500  22078059.53300                  -9690797.93240  22078063.74040
 -16397479.02100  21439510.29100                 -12513394.91540  21439513.53740
 96  9 11  3 26 30.0020000  0  5 14 18 19 22 29
   8855095.98600  22259473.51000                   6886462.72840  22259478.11540
 -15887590.41200  21846729.67400                 -12069879.09140  21846733.58840
  -7976778.51600  23552995.19700                  -6060766.99140  23553000.40040
 -12600061.79500  22090692.08000                  -9639070.16140  22090696.32240
 -16365261.99700  21445641.11900                 -12488290.74840  21445644.33040
 96  9 11  3 27  0.0020000  0  6  3 14 18 19 22 29
    -32777.07810  25523107.44700
   8953469.72000  22278193.61900                   6963117.57840  22278197.99040
 -15930867.03400  21838494.25200                 -12103601.12140  21838498.26040
  -8031212.93500  23542636.58000                  -6103183.41540  23542641.44340
 -12533120.49800  22103430.36900                  -9586908.10640  22103434.23640
 -16332640.84000  21451848.55700                 -12462871.65440  21451851.88540
 96  9 11  3 27 30.0020000  0  6  3 14 18 19 22 29
    -90514.93300  25512120.55700
   9052279.81200  22296996.47900                   7040112.44840  22297001.09640
 -15973891.78300  21830307.18200                 -12137126.88240  21830310.97940
  -8085417.75600  23532321.93900                  -6145420.91840  23532327.18940
 -12465643.41800  22116270.99400                  -9534328.55740  22116274.75640
 -16299633.57200  21458129.70500                 -12437151.70840  21458132.88140
 96  9 11  3 28  0.0020000  0  6  3 14 18 19 22 29
   -148140.89400  25501154.77500                    -28426.13950  25501160.20140
   9151492.65000  22315876.01000                   7117421.15440  22315880.41640
 -16016678.77300  21822164.76800                 -12170467.39140  21822168.77540
  -8139394.90100  23522050.56400                  -6187481.01240  23522055.28740
 -12397643.60300  22129210.94700                  -9481341.68040  22129214.81440
 -16266273.60500  21464478.08000                 -12411156.92540  21464481.25640
 96  9 11  3 28 30.0020000  0  6  3 14 18 19 22 29
   -205635.70300  25490213.47900                    -73227.29440  25490217.36940
   9251124.61400  22334835.46300                   7195056.45340  22334839.77540
 -16059199.64000  21814073.46300                 -12203600.52740  21814077.15440
  -8193127.93400  23511825.53300                  -6229350.88040  23511830.44340
 -12329102.54500  22142254.04100                  -9427933.05640  22142258.01440
 -16232562.99100  21470892.87700                 -12384888.91040  21470896.25240
 96  9 11  3 29  0.0020000  0  6  3 14 18 19 22 29
   -263000.31900  25479297.31400                   -117926.99340  25479301.94340
   9351171.85800  22353873.93900                   7273015.33140  22353878.49840
 -16101452.55800  21806033.05700                 -12236524.87040  21806036.71340
  -8246626.25200  23501644.37700                  -6271037.85740  23501648.84240
 -12260032.40500  22155397.36900                  -9374112.16940  22155401.14340
 -16198526.92600  21477369.62700                 -12358367.30540  21477372.95540
 96  9 11  3 29 30.0020000  0  6  3 14 18 19 22 29
   -320240.07200  25468404.68200                   -162529.34640  25468408.18640
   9451618.52600  22372987.92400                   7351285.44140  22372992.63540
 -16143426.50500  21798045.40000                 -12269231.83440  21798049.11540
  -8299893.06700  23491508.32200                  -6312544.42640  23491513.52540
 -12190421.50100  22168643.93900                  -9319869.90140  22168647.95940
 -16164168.73700  21483907.65800                 -12331594.69640  21483910.93940
 96  9 11  3 30  0.0020000  0  6  3 14 18 19 22 29
   -377355.16800  25457536.43900                   -207034.61340  25457540.47140
   9552451.56000  22392175.91600                   7429856.62640  22392180.72140
 -16185121.15200  21790111.42400                 -12301721.15840  21790115.24440
  -8352953.05300  23481411.54100                  -6353889.81140  23481416.35740
 -12120262.37400  22181994.99400                  -9265200.45840  22181999.10740
 -16129495.34400  21490505.86100                 -12304576.47340  21490509.20140
 96  9 11  3 30 30.0020000  0  6  3 14 18 19 22 29
   -434330.28300  25446694.17400                   -251430.76040  25446698.95540
   9653688.04200  22411440.33000                   7508742.19540  22411445.17040
 -16226538.15700  21782229.90000                 -12333994.13840  21782233.70940
  -8405810.22900  23471352.97100                  -6395077.18240  23471358.13940
 -12049548.46000  22195451.34600                  -9210098.70340  22195455.51840
 -16094490.11400  21497167.23600                 -12277299.66140  21497170.60040
 96  9 11  3 31  0.0020000  0  6  3 14 18 19 22 29
   -491152.48500  25435881.54100                   -295707.79740  25435886.13540
   9755334.17100  22430782.78300                   7587946.98240  22430787.61140
 -16267669.47000  21774402.91600                 -12366044.50840  21774406.78340
  -8458435.71100  23461338.93900                  -6436084.00940  23461343.31140
 -11978257.15900  22209017.57200                  -9154547.03540  22209021.62740
 -16059117.78100  21503898.36900                 -12249736.80540  21503901.88540
 96  9 11  3 31 30.0020000  0  7  3 14 18 19 22 28 29
   -547830.64900  25425095.56400                   -339872.58140  25425099.47940
   9857391.43600  22450203.58000                   7667472.12040  22450208.45540
 -16308512.37200  21766630.74400                 -12397870.13840  21766634.58840
  -8510826.09900  23451368.97100                  -6476907.64840  23451374.12740
 -11906392.24600  22222693.07200                  -9098548.40940  22222697.31440
     -5342.71710  25513271.08000
 -16023374.88600  21510699.87700                 -12221885.21140  21510703.32240
 96  9 11  3 32  0.0020000  0  7  3 14 18 19 22 28 29
   -604389.81700  25414333.11100                   -383944.64040  25414338.60740
   9959840.25700  22469698.84600                   7747302.37540  22469703.63940
 -16349106.16400  21758905.82200                 -12429501.65640  21758909.51440
  -8563005.64600  23441439.61900                  -6517566.99940  23441443.97940
 -11833986.24200  22236471.53300                  -9042128.14140  22236475.55340
    -19620.42500  25510554.11900
 -15987291.64300  21517566.35400                 -12193768.39240  21517569.76440
 96  9 11  3 32 30.0020000  0  7  3 14 18 19 22 28 29
   -660802.95800  25403597.86100                   -427902.92140  25403603.21740
  10062706.43600  22489274.02500                   7827457.84440  22489278.47940
 -16389423.98000  21751233.67400                 -12460918.12240  21751237.41240
  -8614932.87600  23431558.18200                  -6558029.75240  23431563.02140
 -11761018.87200  22250356.69700                  -8985270.44840  22250360.23640
    -33436.07600  25507925.05700                    -10400.97910  25507928.54100
 -15950827.74700  21524505.27500                 -12165354.97540  21524508.59240
 96  9 11  3 33  0.0020000  0  7  3 14 18 19 22 28 29
   -717099.73900  25392884.90800                   -471770.51640  25392889.09240
  10165967.67900  22508924.79100                   7907921.16140  22508929.40840
 -16429466.05000  21743613.78300                 -12492119.72640  21743617.68640
  -8666625.83200  23421721.29100                  -6598309.93840  23421726.68240
 -11687518.48200  22264343.53300                  -8927997.41040  22264347.35440
    -46810.33800  25505379.89300                    -20822.47300  25505383.64600
 -15914011.01900  21531511.21300                 -12136666.62740  21531514.42440
 96  9 11  3 33 30.0020000  0  7  3 14 18 19 22 28 29
   -773257.60500  25382198.71300                   -515529.87540  25382203.57640
  10269651.37400  22528654.68200                   7988713.65440  22528659.28740
 -16469214.05200  21736050.00200                 -12523092.18940  21736053.81140
  -8718085.41800  23411928.88500                  -6638408.28840  23411934.56840
 -11613476.49900  22278433.01000                  -8870302.35740  22278436.83040
    -59727.80400  25502921.86900                    -30888.05600  25502925.77500
 -15876828.99200  21538586.83800                 -12107693.62840  21538590.14340
 96  9 11  3 34  0.0020000  0  7  3 14 18 19 22 28 29
   -829289.90100  25371536.22100                   -559191.35940  25371540.86140
  10373738.02900  22548461.05700                   8069820.14040  22548465.95540
 -16508697.66000  21728536.49400                 -12553858.62940  21728540.30340
  -8769343.59100  23402174.47100                  -6678349.71140  23402179.48640
 -11538911.49000  22292622.25200                  -8812199.74940  22292626.01440
    -72205.39000  25500547.43900                    -40610.82600  25500551.27500
 -15839293.27800  21545729.58800                 -12078445.02340  21545732.70540
 96  9 11  3 34 30.0020000  0  7  3 14 18 19 22 28 29
   -885193.79900  25360897.77500                   -602752.76640  25360905.99440
  10478232.64600  22568345.81400                   8151244.52240  22568350.65440
 -16547902.11900  21721076.30700                 -12584407.55740  21721079.97540
  -8820401.97700  23392458.44700                  -6718135.45240  23392463.86140
 -11463839.19800  22306908.18900                  -8753701.84940  22306912.06840
    -84228.61500  25498259.61100                    -49979.53300  25498263.25200
 -15801390.91300  21552942.07200                 -12048910.71840  21552945.23640
 96  9 11  3 35  0.0020000  0  7  3 14 18 19 22 28 29
   -940983.01100  25350280.84600                   -646224.80440  25350288.11540
  10583115.02800  22588304.09600                   8232971.05240  22588308.76040
 -16586849.90800  21713664.85400                 -12614756.47440  21713668.60440
  -8871280.88200  23382776.22100                  -6757781.31840  23382781.07240
 -11388282.30400  22321285.64300                  -8694826.34840  22321289.47540
    -95808.26200  25496056.07200                    -59002.65500  25496059.99800
 -15763136.72400  21560221.84600                 -12019102.26540  21560224.96340
 96  9 11  3 35 30.0020000  0  7  3 14 18 19 22 28 29
   -996641.05400  25339690.00200                   -689594.68940  25339695.02940
  10688366.69300  22608333.40800                   8314985.31840  22608337.93240
 -16625556.68600  21706298.97900                 -12644917.59740  21706302.71740
  -8921981.68700  23373128.40800                  -6797288.39840  23373133.55340
 -11312246.41700  22335754.98600                  -8635577.60840  22335758.98240
   -106938.23700  25493938.30700                    -67675.35600  25493941.60400
 -15724526.47400  21567569.03300                 -11989016.36540  21567572.26840
 96  9 11  3 36  0.0020000  0  7  3 14 18 19 22 28 29
  -1052159.68900  25329124.47900                   -732855.89340  25329129.91640
  10793975.11100  22628430.01000                   8397277.58040  22628434.65040
 -16664007.11000  21698982.17400                 -12674878.96340  21698985.88940
  -8972489.39100  23363516.78300                  -6836645.03040  23363522.44340
 -11235731.55000  22350315.42400                  -8575955.63340  22350319.88940
   -117611.97800  25491907.02500                    -75992.54900  25491910.60700
 -15685565.43200  21574983.14300                 -11958657.11940  21574986.57640
 96  9 11  3 36 30.0020000  0  7  3 14 18 19 22 28 29
  -1107521.85500  25318590.00200                   -775995.25140  25318594.05740
  10899922.97600  22648591.45500                   8479834.34240  22648596.34240
 -16702184.92600  21691717.28300                 -12704627.90540  21691721.01040
  -9022781.19200  23353947.24400                  -6875833.41640  23353952.49440
 -11158734.95300  22364967.28300                  -8515958.28940  22364971.46740
   -127826.36300  25489963.04900                    -83951.79800  25489966.31100
 -15646260.74300  21582462.55700                 -11928030.09440  21582465.87340
 96  9 11  3 37  0.0020000  0  7  3 14 18 19 22 28 29
  -1162708.13800  25308087.94700                   -818997.50340  25308094.15840
  11006210.59800  22668816.47900                   8562655.85340  22668821.07240
 -16740084.55300  21684505.10400                 -12734160.07140  21684508.98240
  -9072845.63000  23344420.19700                  -6914844.63640  23344425.57640
 -11081232.86400  22379715.72100                  -8455567.05040  22379719.57640
   -137578.06200  25488107.51800                    -91550.50000  25488110.56100
 -15606621.93300  21590005.58000                 -11897142.72040  21590008.74440
 96  9 11  3 37 30.0020000  0  7  3 14 18 19 22 28 29
  -1217710.82000  25297621.02500                   -861856.70440  25297626.10040
  11112837.29800  22689107.45500                   8645741.56440  22689112.30740
 -16777695.87200  21677347.81400                 -12763467.58540  21677351.81140
  -9122681.62500  23334936.33800                  -6953677.86740  23334941.35440
 -11003221.35700  22394560.42400                  -8394778.86540  22394564.56140
   -146873.46500  25486338.51800                    -98793.67300  25486341.75200
 -15566662.28400  21597609.65000                 -11866005.33640  21597612.88540
 96  9 11  3 38  0.0020000  0  7  3 14 18 19 22 28 29
  -1272508.56600  25287193.51800                   -904556.18540  25287198.79140
  11219828.26600  22709467.08800                   8729111.12240  22709471.84640
 -16815001.93200  21670248.93200                 -12792537.23840  21670252.70540
  -9172266.83700  23325500.33800                  -6992315.66940  23325505.61140
 -10924686.34600  22409505.31400                  -8333582.75440  22409509.21740
   -155700.46900  25484658.86100                   -105671.85900  25484662.40800
 -15526358.50700  21605279.08800                 -11834599.79940  21605282.32240
 96  9 11  3 38 30.0020000  0  7  3 14 18 19 22 28 29
  -1327103.16600  25276805.40800                   -947097.40940  25276809.74440
  11327181.80300  22729895.79900                   8812763.20740  22729900.61540
 -16852012.73300  21663205.92400                 -12821376.81640  21663209.51040
  -9221616.06800  23316110.19700                  -7030769.60040  23316114.88540
 -10845625.91100  22424549.93200                  -8271977.22040  22424553.97540
   -164059.93700  25483068.22100                   -112185.73600  25483072.01400
 -15485705.75000  21613015.15800                 -11802922.32240  21613018.42840
 96  9 11  3 39  0.0020000  0  7  3 14 18 19 22 28 29
  -1381511.76900  25266451.47900                   -989493.73740  25266455.05340
  11434905.27900  22750394.64300                   8896703.55640  22750399.33040
 -16888733.78500  21656218.21300                 -12849990.61540  21656221.91640
  -9270747.07400  23306761.07200                  -7069053.48740  23306765.79540
 -10766048.86800  22439692.93900                  -8209969.13140  22439696.84240
   -171952.44900  25481566.47900                   -118335.73800  25481569.66600
 -15444697.89700  21620818.81400                 -11770968.16140  21620822.02540
 96  9 11  3 39 30.0020000  0  7  3 14 18 19 22 28 29
  -1435741.99100  25256131.28300                  -1031751.07340  25256135.74840
  11542990.43600  22770963.08800                   8980925.73440  22770967.76440
 -16925169.16900  21649284.56400                 -12878381.81740  21649288.32640
  -9319664.79700  23297451.89300                  -7107171.17240  23297456.34640
 -10685975.78300  22454930.55700                  -8147574.51440  22454934.55340
   -179381.59900  25480152.76000                   -124124.65800  25480156.60700
 -15403332.44100  21628690.36100                 -11738735.34540  21628693.71340
 96  9 11  3 40  0.0020000  0  7  3 14 18 19 22 28 29
  -1489789.99100  25245846.86100                  -1073866.37640  25245851.78340
  11651450.43100  22791601.72900                   9065439.98640  22791606.38140
 -16961309.24500  21642407.35400                 -12906542.91540  21642411.02140
  -9368353.82500  23288186.86100                  -7145110.65340  23288191.40840
 -10605392.56400  22470265.01800                  -8084782.40140  22470268.75640
   -186326.50800  25478830.80700                   -129536.27300  25478834.68900
 -15361588.21200  21636634.07200                 -11706207.36940  21636637.35440
 96  9 11  3 40 30.0020000  0  7  3 14 18 19 22 28 29
  -1543686.88000  25235590.09600                  -1115863.96640  25235597.38940
  11760272.34500  22812309.84600                   9150236.26340  22812314.56840
 -16997169.64200  21635583.49400                 -12934486.07240  21635587.15040
  -9416836.77800  23278960.64300                  -7182889.56240  23278965.62340
 -10524315.24500  22485693.43900                  -8021605.26840  22485697.35440
   -192802.65200  25477598.53300                   -134582.59800  25477601.95900
 -15319495.43000  21644643.67400                 -11673407.80240  21644646.94340
 96  9 11  3 41  0.0020000  0  7  3 14 18 19 22 28 29
  -1597426.35200  25225364.05700                  -1157738.87240  25225370.59640
  11869461.40500  22833088.24400                   9235318.62340  22833092.92040
 -17032746.31100  21628813.37700                 -12962208.14940  21628817.05740
  -9465105.18100  23269775.81400                  -7220501.29040  23269780.15040
 -10442756.62300  22501213.69700                  -7958053.10240  22501217.71740
   -198808.29800  25476455.72100                   -139262.32400  25476458.75600
 -15277055.49100  21652720.07200                 -11640337.72240  21652723.30740
 96  9 11  3 41 30.0020000  0  7  3 14 18 19 22 28 29
  -1650988.99400  25215171.86900                  -1199476.01640  25215177.10740
  11979009.03200  22853934.76000                   9320680.39140  22853939.43640
 -17068027.20100  21622099.67400                 -12989699.74240  21622103.29540
  -9513150.05600  23260632.80700                  -7257938.82640  23260637.81140
 -10360702.88100  22516827.69700                  -7894115.11940  22516831.64640
   -204333.14300  25475404.50200                   -143567.38700  25475407.50600
 -15234256.62600  21660864.37700                 -11606987.95640  21660867.51840
 96  9 11  3 42  0.0020000  0  7  3 14 18 19 22 28 29
  -1704374.14200  25205012.68200                  -1241074.77340  25205016.27940
  12088903.79100  22874846.66600                   9406312.64840  22874851.56440
 -17103014.20100  21615441.81400                 -13016962.33540  21615445.50640
  -9560974.91000  23251531.91600                  -7295204.92940  23251536.74440
 -10278145.89000  22532537.68200                  -7829785.00440  22532541.94740
   -209374.31600  25474444.92400                   -147495.54400  25474448.68900
 -15191088.31400  21669079.07200                 -11573350.32040  21669082.38940
 96  9 11  3 42 30.0020000  0  7  3 14 18 19 22 28 29
  -1757575.66000  25194888.22900                  -1282530.53140  25194892.34240
  12199127.20100  22895822.05700                   9492200.99940  22895826.56840
 -17137695.97200  21608842.24400                 -13043987.09040  21608846.10040
  -9608590.31300  23242471.06400                  -7332307.82340  23242475.86940
 -10195107.30600  22548339.29100                  -7765079.60840  22548343.73240
   -213939.51500  25473576.16600                   -151052.83300  25473580.24000
 -15147564.02100  21677361.38500                 -11539435.27740  21677364.64340
 96  9 11  3 43  0.0020000  0  7  3 14 18 19 22 28 29
  -1810576.13200  25184802.55700                  -1323829.57340  25184806.37740
  12309661.25900  22916855.63500                   9578331.41540  22916860.18240
 -17172059.88400  21602302.90000                 -13070764.15640  21602306.62740
  -9655995.29300  23233450.14300                  -7369246.75340  23233454.76040
 -10111588.02100  22564232.60400                  -7699999.65240  22564236.89340
   -218024.32300  25472798.72100                   -154235.80400  25472802.51800
 -15103670.93400  21685714.11100                 -11505232.87140  21685717.42840
 96  9 11  3 43 30.0020000  0  7  3 14 18 19 22 28 29
  -1863377.51800  25174755.74400                  -1364973.47340  25174759.04940
  12420495.17600  22937947.10400                   9664695.49540  22937951.81440
 -17206108.42000  21595823.65800                 -13097295.46840  21595827.51440
  -9703187.25700  23224469.79100                  -7406019.69840  23224473.99840
 -10027594.16400  22580216.19700                  -7634549.88840  22580220.48640
   -221630.56100  25472112.59600                   -157045.83800  25472116.42800
 -15059404.61800  21694137.58000                 -11470739.63440  21694140.77940
 96  9 11  3 44  0.0020000  0  7  3 14 18 19 22 28 29
  -1915968.92400  25164747.49400                  -1405953.75540  25164754.13940
  12531645.71100  22959098.04100                   9751306.27240  22959102.61140
 -17239836.60400  21589405.54100                 -13123577.16440  21589409.36140
  -9750159.04800  23215531.16600                  -7442621.05640  23215536.10040
  -9943135.72600  22596288.10400                  -7568738.12240  22596292.58040
   -224752.71000  25471518.61900                   -159478.65100  25471522.27900
 -15014779.27500  21702629.56400                 -11435966.64940  21702632.71740
 96  9 11  3 44 30.0020000  0  7  3 14 18 19 22 28 29
  -1968339.38800  25154781.15800                  -1446761.87940  25154785.58840
  12643126.71100  22980311.86100                   9838174.55540  22980316.77140
 -17273239.77300  21583048.97100                 -13149605.60340  21583052.77940
  -9796905.20400  23206635.90000                  -7479046.60940  23206640.84640
  -9858219.52500  22612447.02500                  -7502569.65640  22612451.02140
   -227388.34400  25471016.98600                   -161532.39800  25471020.59600
 -14969802.60500  21711188.34600                 -11400919.89540  21711191.41640
 96  9 11  3 45  0.0020000  0  7  3 14 18 19 22 28 29
  -2020497.46200  25144856.26800                  -1487404.50240  25144860.82640
  12754937.45900  23001589.36900                   9925299.78940  23001594.37340
 -17306344.39000  21576749.49400                 -13175401.40740  21576753.33840
  -9843431.33000  23197782.04900                  -7515300.71840  23197786.81840
  -9772835.46200  22628695.18200                  -7436036.62740  22628699.30740
   -229539.70100  25470607.48600                   -163208.76600  25470610.96700
 -14924468.28000  21719815.21300                 -11365594.44940  21719818.42440
 96  9 11  3 45 30.0020000  0  7  3 14 18 19 22 28 29
  -2072451.97000  25134969.60400                  -1527888.50840  25134973.07240
  12867079.12600  23022928.80700                  10012682.88040  23022933.81140
 -17339175.30700  21570501.84600                 -13200983.93740  21570505.72540
  -9889744.21700  23188969.15000                  -7551388.64940  23188973.54540
  -9686988.65100  22645031.41600                  -7369143.00740  22645035.21340
   -231211.07300  25470289.47100                   -164511.09100  25470292.92400
 -14878785.66900  21728508.20500                 -11329997.61340  21728511.45140
 96  9 11  3 46  0.0020000  0  7  3 14 18 19 22 28 29
  -2124187.96300  25125124.22900                  -1568202.25640  25125129.13940
  12979564.51900  23044334.04900                  10100333.82640  23044338.77140
 -17371717.19500  21564309.32200                 -13226341.24540  21564313.27140
  -9935839.12300  23180197.82200                  -7587306.73440  23180202.66240
  -9600660.96100  22661459.11100                  -7301874.67540  22661463.11940
   -232389.09700  25470065.23600                   -165429.04300  25470068.58000
 -14832748.93200  21737268.46300                 -11294124.83040  21737271.70940
 96  9 11  3 46 30.0020000  0  7  3 14 18 19 22 28 29
  -2175721.74600  25115317.46300                  -1608358.41940  25115322.65440
  13092383.20000  23065803.15000                  10188244.47540  23065807.40440
 -17403976.94900  21558170.53300                 -13251478.70540  21558174.29540
  -9981722.27800  23171466.29900                  -7623059.80940  23171470.86940
  -9513861.85100  22677976.44700                  -7234239.00840  22677980.36140
   -233079.20100  25469934.04100                   -165966.76900  25469937.24400
 -14786349.37100  21746098.21300                 -11257969.32640  21746101.50640
 96  9 11  3 47  0.0020000  0  7  3 14 18 19 22 28 29
  -2227055.51400  25105549.11100                  -1648358.76740  25105553.74040
  13205527.81000  23087333.43200                  10276409.09240  23087338.47140
 -17435950.51900  21552086.26000                 -13276393.17440  21552090.08040
 -10027395.22900  23162774.97100                  -7658649.09440  23162779.86940
  -9426602.96900  22694581.32200                  -7166245.07140  22694585.06140
   -233280.94300  25469895.51800                   -166123.93100  25469898.93600
 -14739582.36300  21754997.59600                 -11221527.51240  21755000.99440
 96  9 11  3 47 30.0020000  0  7  3 14 18 19 22 28 29
  -2278188.13700  25095819.18900                  -1688202.35040  25095823.73640
  13318986.64500  23108924.54100                  10364818.57440  23108929.01840
 -17467623.30200  21546059.00200                 -13301073.26440  21546062.72940
 -10072858.29500  23154123.29100                  -7694074.83740  23154128.10740
  -9338910.29400  22711268.33000                  -7097913.11540  22711272.08040
   -232998.47300  25469949.43200                   -165903.81800  25469952.72100
 -14692459.69800  21763965.01000                 -11184808.55640  21763968.19740
 96  9 11  3 48  0.0020000  0  7  3 14 18 19 22 28 29
  -2329102.93500  25086130.66600                  -1727876.20640  25086134.29940
  13432770.94900  23130576.78300                  10453481.68840  23130581.17840
 -17498952.95000  21540097.29900                 -13325485.96740  21540101.09640
 -10118101.09500  23145513.90000                  -7729328.91940  23145518.85740
  -9250785.99200  22728038.19700                  -7029244.82940  22728042.11140
   -232219.82200  25470097.69700                   -165297.06000  25470100.75600
 -14644970.70600  21773001.61100                 -11147804.14240  21773004.96340
 96  9 11  3 48 30.0020000  0  7  3 14 18 19 22 28 29
  -2379803.35300  25076482.29900                  -1767382.98640  25076488.13540
  13546867.69200  23152289.23600                  10542388.23340  23152293.63140
 -17529947.85000  21534199.47100                 -13349637.82940  21534203.13940
 -10163124.66000  23136946.36900                  -7764412.19740  23136951.38540
  -9162246.57400  22744886.43200                  -6960253.08340  22744890.36940
   -230949.99900  25470339.36900                   -164307.55200  25470342.66600
 -14597116.61800  21782108.15800                 -11110515.23640  21782111.35740
 96  9 11  3 49  0.0030000  0  7  3 14 18 19 22 28 29
  -2430269.98800  25066878.56200                  -1806707.62040  25066883.56540
  13661277.16900  23174059.55400                  10631538.47640  23174064.48740
 -17560602.64600  21528365.82700                 -13373524.68140  21528369.41340
 -10207932.70700  23128419.71000                  -7799327.51840  23128424.64440
  -9073283.65400  22761815.66300                  -6890931.33740  22761819.33140
   -229181.46600  25470675.81200                   -162929.44500  25470679.36200
 -14548892.95300  21791284.80400                 -11072938.36040  21791287.97940
 96  9 11  3 49 30.0030000  0  7  3 14 18 19 22 28 29
  -2480505.19600  25057319.13200                  -1845851.93440  25057322.76540
  13775973.24600  23195886.26500                  10720912.01740  23195891.03440
 -17590924.86800  21522595.67900                 -13397152.37840  21522599.31240
 -10252540.15300  23119931.39000                  -7834086.54440  23119936.11240
  -8983902.71200  22778824.40500                  -6821283.85040  22778828.19040
   -226922.88400  25471105.29600                   -161169.49900  25471109.05400
 -14500317.29600  21800528.59300                 -11035087.21140  21800531.74540
 96  9 11  3 50  0.0030000  0  7  3 14 18 19 22 28 29
  -2530498.83700  25047805.43700                  -1884807.95640  25047812.90540
  13890972.96400  23217769.35100                  10810522.17840  23217774.13240
 -17620927.16200  21516886.03800                 -13420530.77940  21516889.80040
 -10296953.44000  23111479.60100                  -7868694.28340  23111484.66340
  -8894088.80500  22795915.21000                  -6751298.99040  22795919.17140
   -224165.65600  25471629.99900                   -159020.99100  25471633.64700
 -14451374.88800  21809841.89700                 -10996950.27140  21809845.10840
 96  9 11  3 50 30.0030000  0  7  3 14 18 19 22 28 29
  -2580250.25500  25038338.53800                  -1923575.27340  25038344.60840
  14006266.69900  23239709.67100                  10900361.41640  23239714.54640
 -17650632.44300  21511233.63200                 -13443677.74540  21511237.37040
 -10341164.37500  23103066.78000                  -7903144.34740  23103071.53840
  -8803829.31600  22813091.03800                  -6680966.92340  22813094.91740
   -220904.77000  25472250.38200                   -156479.99500  25472254.01500
 -14402055.99500  21819226.94400                 -10958519.97540  21819230.26140
 96  9 11  3 51  0.0030000  0  7  3 14 18 19 22 28 29
  -2629760.41300  25028916.47600                  -1962154.58140  25028921.46840
  14121827.44800  23261699.98300                  10990408.73340  23261705.78440
 -17680033.86200  21505638.82700                 -13466587.94140  21505642.56540
 -10385183.40900  23094689.68700                  -7937444.85040  23094694.63240
  -8713122.34200  22830351.96000                  -6610286.17740  22830355.83940
   -217147.52800  25472965.39000                   -153552.22800  25472968.71800
 -14352370.15200  21828681.65500                 -10919803.73840  21828684.99540
 96  9 11  3 51 30.0030000  0  7  3 14 18 19 22 28 29
  -2679014.79800  25019543.95200                  -2000534.59840  25019547.92540
  14237656.23700  23283740.31200                  11080664.90640  23283745.74940
 -17709120.06900  21500103.85100                 -13489252.51040  21500107.50740
 -10428989.64000  23086353.72600                  -7971579.53640  23086358.10840
  -8621952.86100  22847700.85800                  -6539245.01940  22847704.81940
   -212881.97000  25473777.26500                   -150228.41400  25473780.36200
 -14302304.07600  21838209.14700                 -10880791.22140  21838212.26540
 96  9 11  3 52  0.0030000  0  7  3 14 18 19 22 28 29
  -2728018.46600  25010218.84300                  -2038719.21540  25010223.85840
  14353749.45500  23305832.06200                  11171127.12740  23305837.00740
 -17737884.59600  21494630.20200                 -13511666.42240  21494633.75340
 -10472563.63600  23078061.50700                  -8005533.27240  23078066.53440
  -8530325.48200  22865137.00700                  -6467847.06940  22865140.66340
   -208106.93800  25474685.64000                   -146507.58100  25474689.22600
 -14251860.59400  21847808.31900                 -10841484.61040  21847811.39040
 96  9 11  3 52 30.0030000  0  7  3 14 18 19 22 28 29
  -2776790.94100  25000937.48300                  -2076723.72040  25000943.33140
  14470066.98500  23327967.41300                  11261764.15840  23327972.54640
 -17766322.91400  21489218.32700                 -13533826.14340  21489221.84340
 -10515909.24700  23069813.28800                  -8039309.05440  23069818.28040
  -8438258.08900  22882657.25700                  -6396106.24140  22882661.11240
   -202841.87500  25475687.71000                   -142404.89400  25475691.44400
 -14201073.89300  21857472.42900                 -10801910.56540  21857475.61640
 96  9 11  3 53  0.0030000  0  7  3 14 18 19 22 28 29
  -2825307.98900  24991705.19400                  -2114529.18740  24991710.53840
  14586633.43800  23350149.74900                  11352595.14240  23350154.60140
 -17794402.02500  21483875.01500                 -13555705.96640  21483878.54240
 -10559015.71700  23061610.66300                  -8072898.48040  23061615.47940
  -8345753.79000  22900260.22600                  -6324024.97640  22900264.22240
   -197073.82100  25476785.11600                   -137910.28100  25476788.59700
 -14149939.58400  21867202.91300                 -10762065.65440  21867206.22940
 96  9 11  3 53 30.0030000  0  7  3 14 18 19 22 28 29
  -2873564.66300  24982522.46000                  -2152131.78440  24982528.28440
  14703484.15600  23372385.19400                  11443647.65240  23372390.01140
 -17822120.51600  21478600.47600                 -13577304.78740  21478604.16740
 -10601876.51100  23053454.28000                  -8106296.50440  23053458.97940
  -8252820.18200  22917944.59300                  -6251609.16740  22917948.72940
   -190793.42800  25477980.33500                   -133016.44600  25477984.00700
 -14098452.58000  21877000.76500                 -10721945.91740  21877004.16340
 96  9 11  3 54  0.0030000  0  7  3 14 18 19 22 28 29
  -2921572.97800  24973386.36600                  -2189540.79740  24973390.63240
  14820624.43500  23394677.39000                  11534925.76740  23394681.96040
 -17849474.09900  21473395.33500                 -13598619.25840  21473398.88640
 -10644511.19300  23045341.73300                  -8139518.29540  23045346.40940
  -8159475.41800  22935707.64000                  -6178872.98440  22935711.49540
   -184009.97700  25479271.26500                   -127730.61300  25479274.55000
 -14046621.08900  21886864.06900                 -10681557.74840  21886867.12840
 96  9 11  3 54 30.0030000  0  7  3 14 18 19 22 28 29
  -2969324.11700  24964300.03000                  -2226749.43840  24964305.06940
  14938063.70600  23417024.16300                  11626436.88240  23417028.66340
 -17876467.76300  21468258.49100                 -13619653.27140  21468262.13640
 -10686935.75400  23037268.10800                  -8172576.37240  23037272.71440
  -8065732.90800  22953545.82700                  -6105826.87840  22953549.88240
   -176722.13900  25480658.17900                   -122051.77300  25480661.26500
 -13994430.23900  21896795.50700                 -10640889.55140  21896798.51940
 96  9 11  3 55  0.0030000  0  7  3 14 18 19 22 28 29
  -3016801.53500  24955265.38200                  -2263744.80440  24955269.47240
  15055827.94500  23439434.47600                  11718201.20640  23439439.10440
 -17903092.16400  21463191.99900                 -13640399.55440  21463195.62040
 -10729147.76600  23029235.49100                  -8205468.81640  23029239.92140
  -7971586.29400  22971461.49100                  -6032465.88140  22971465.37040
   -168914.45400  25482143.87400                   -115967.82600  25482147.16300
 -13941853.28700  21906800.40500                 -10599920.50740  21906803.56940
 96  9 11  3 55 30.0030000  0  7  3 14 18 19 22 28 29
  -3064015.08400  24946281.10100                  -2300534.56540  24946285.30840
  15173894.35400  23461901.16300                  11810200.99140  23461905.61640
 -17929364.79400  21458192.58500                 -13660871.73040  21458196.30040
 -10771166.67800  23021239.54600                  -8238210.81340  23021244.40940
  -7877026.74600  22989455.38200                  -5958783.11540  22989459.44840
   -160593.75100  25483727.56200                   -109484.14300  25483730.64700
 -13888894.32300  21916878.41300                 -10558653.78840  21916881.47240
 96  9 11  3 56  0.0030000  0  7  3 14 18 19 22 28 29
  -3110968.24100  24937345.99100                  -2337121.39140  24937349.14440
  15292244.59500  23484422.92100                  11902421.94440  23484426.49540
 -17955292.38300  21453258.76500                 -13681075.03940  21453262.31540
 -10812986.80200  23013280.99100                  -8270797.90440  23013285.98340
  -7782049.47700  23007529.31900                  -5884774.85640  23007533.36240
   -151758.29100  25485408.52200                   -102599.36000  25485412.06500
 -13835550.94400  21927029.11600                 -10517087.51640  21927032.22240
 96  9 11  3 56 30.0030000  0  7  3 14 18 19 22 28 29
  -3157643.20100  24928464.10100                  -2373491.47940  24928467.61640
  15410863.79400  23506995.46800                  11994852.47240  23507000.16740
 -17980885.92400  21448388.43700                 -13701018.05540  21448392.02240
 -10854589.11700  23005364.78000                  -8303215.28640  23005369.52640
  -7686650.85300  23025682.96800                  -5810438.26140  23025687.29240
   -142400.26400  25487189.23300                    -95307.36000  25487192.47200
 -13781820.36100  21937253.96800                 -10475219.54140  21937257.09740
 96  9 11  3 57  0.0030000  0  7  3 14 18 19 22 28 29
  -3204034.19600  24919636.03800                  -2409640.27540  24919640.77240
  15529730.94000  23529614.63200                  12087476.19640  23529618.62840
 -18006146.43100  21443581.64700                 -13720701.56540  21443585.28040
 -10895966.55200  22997490.64700                  -8335457.43340  22997495.66340
  -7590831.90400  23043916.88200                  -5735774.14940  23043920.87840
   -132524.11200  25489068.71800                    -87611.64600  25489071.65500
 -13727720.42000  21947548.74900                 -10433063.75140  21947551.93740
 96  9 11  3 57 30.0030000  0  7  3 14 18 19 22 28 29
  -3250150.09900  24910860.17100                  -2445574.71840  24910864.81240
  15648828.48600  23552279.30400                  12180279.46040  23552283.42940
 -18031094.13200  21438834.08500                 -13740141.32140  21438837.70640
 -10937116.80900  22989659.91300                  -8367522.54440  22989664.77640
  -7494606.72600  23062228.03000                  -5660793.49040  23062232.02640
   -122135.19400  25491045.83500                    -79516.37200  25491048.97200
 -13673252.00200  21957913.71000                 -10390620.83040  21957916.83940
 96  9 11  3 58  0.0030000  0  7  3 14 18 19 22 28 29
  -3295990.52900  24902137.46000                  -2481294.51340  24902141.25740
  15768143.74700  23574984.45200                  12273252.35940  23574989.15140
 -18055728.59800  21434146.23300                 -13759337.01340  21434149.81940
 -10978026.24100  22981875.58500                  -8399399.99040  22981880.24940
  -7398008.35300  23080609.96000                  -5585522.02740  23080614.44840
   -111235.87300  25493119.89000                    -71023.40000  25493123.28800
 -13618419.79200  21968347.93700                 -10347894.43740  21968351.05440
 96  9 11  3 58 30.0030000  0  7  3 14 18 19 22 28 29
  -3341536.00500  24893470.25700                  -2516784.44640  24893474.59340
  15887682.23500  23597731.02200                  12366399.22740  23597735.67540
 -18080022.98000  21429523.05400                 -13778267.69740  21429526.69840
 -11018697.84700  22974136.07700                  -8431092.11540  22974140.69440
  -7301043.57600  23099061.93700                  -5509965.05640  23099066.08540
    -99818.10500  25495292.57700                    -62126.41500  25495296.04200
 -13563214.27300  21978853.21800                 -10304877.16640  21978856.54640
 96  9 11  3 59  0.0030000  0  8  3 14 18 19 22 28 29 31
  -3386815.96100  24884853.94400                  -2552067.50840  24884858.17540
  16007434.75400  23620519.06200                  12459712.86740  23620523.72640
 -18103989.63600  21424962.39000                 -13796943.00740  21424966.28040
 -11059171.24300  22966434.23300                  -8462629.83040  22966438.58140
  -7203735.93600  23117578.57700                  -5434140.91940  23117582.24540
    -87903.96200  25497559.61600                    -52842.65300  25497562.81900
 -13507656.39200  21989425.67100                 -10261585.31440  21989428.89440
    -27482.63310  25602357.82700
 96  9 11  3 59 30.0030000  0  8  3 14 18 19 22 28 29 31
  -3431805.78000  24876292.49900                  -2587124.45340  24876296.27240
  16127430.45400  23643353.04600                  12553215.99840  23643357.62840
 -18127604.51700  21420468.70200                 -13815344.20440  21420472.55840
 -11099440.45500  22958771.14700                  -8494008.41840  22958775.53040
  -7106059.63600  23136165.64700                  -5358029.51140  23136169.83140
    -75464.10700  25499926.72600                    -43149.24700  25499929.94800
 -13451712.33600  22000071.60100                 -10217992.54440  22000074.78840
   -102451.30500  25588091.61600
 96  9 11  4  0  0.0030000  0  8  3 14 18 19 22 28 29 31
  -3476493.22700  24867788.67900                  -2621945.81740  24867794.26940
  16247668.06200  23666234.46000                  12646907.62440  23666238.99540
 -18150855.64500  21416044.08500                 -13833461.95940  21416047.78840
 -11139517.06600  22951144.57700                  -8525236.93040  22951149.10140
  -7008007.22000  23154824.49100                  -5281625.02640  23154828.58140
    -62501.54600  25502393.28800                    -33048.52600  25502396.81200
 -13395391.37100  22010788.89700                 -10174106.08540  22010792.27240
   -177435.93000  25573823.06200                    -25320.95750  25573827.08140
 96  9 11  4  0 30.0030000  0  9  3 14 18 19 22 27 28 29 31
  -3520883.92400  24859341.54600                  -2656535.94240  24859345.34340
  16368147.06300  23689160.32700                  12740787.35440  23689164.78040
 -18173742.53000  21411688.95200                 -13851295.89040  21411692.65540
 -11179418.49700  22943551.73300                  -8556328.94040  22943555.99940
  -6909570.02500  23173556.35800                  -5204920.72140  23173560.62440
    -23440.40210  25985666.81200
    -49026.20800  25504957.63200                    -22548.23900  25504961.03800
 -13338707.55300  22021575.56200                 -10129936.88040  22021578.73740
   -252439.13400  25559550.06200                    -83765.02040  25559555.54640
 96  9 11  4  1  0.0030000  0  9  3 14 18 19 22 27 28 29 31
  -3564970.80600  24850951.58500                  -2690889.34040  24850955.20640
  16488865.01500  23712132.53000                  12834853.27140  23712137.27640
 -18196269.50800  21407402.01500                 -13868849.37640  21407405.71840
 -11219132.84000  22935994.51500                  -8587275.16840  22935998.68740
  -6810730.65900  23192364.92100                  -5127903.03040  23192369.04640
    -87323.83800  25973510.10800
    -35028.69200  25507621.07700                    -11641.05600  25507624.71800
 -13281658.05700  22032431.69400                 -10085482.73540  22032434.89440
   -327457.95300  25545274.67100                   -142221.18440  25545278.87840
 96  9 11  4  1 30.0030000  0  9  3 14 18 19 22 27 28 29 31
  -3608749.20700  24842620.40500                  -2725002.38340  24842624.29640
  16609809.51900  23735147.07700                  12929095.73440  23735151.82340
 -18218436.54000  21403183.92100                 -13886122.38440  21403187.61240
 -11258634.82800  22928477.50700                  -8618055.92240  22928481.99540
  -6711480.84000  23211251.92100                  -5050565.50240  23211255.99940
   -151125.32000  25961368.90500
    -20504.55500  25510384.72600                      -323.53800  25510388.71000
 -13224241.74000  22043357.54600                 -10040742.74940  22043360.72240
   -402481.75500  25530998.34300                   -200681.25240  25531002.84340
 96  9 11  4  2  0.0030000  0  9  3 14 18 19 22 27 28 29 31
  -3652241.41100  24834344.29600                  -2758892.41440  24834349.01940
  16730970.81000  23758203.56200                  13023507.12840  23758208.08540
 -18240242.37900  21399034.43700                 -13903113.94040  21399038.08140
 -11297915.74300  22921002.38200                  -8648664.41140  22921007.02240
  -6611839.14000  23230212.81200                  -4972922.60840  23230217.10140
   -214867.16400  25949238.89000                    -41386.28450  25949243.72940
     -5469.25400  25513246.10100                     11392.29300  25513250.12000
 -13166477.36100  22054349.79600                  -9995731.54840  22054353.07740
   -477534.39400  25516715.95200                   -259163.86940  25516720.96840
 96  9 11  4  2 30.0030000  0  9  3 14 18 19 22 27 28 29 31
  -3695458.78100  24826120.73300                  -2792568.25340  24826125.40940
  16852343.18700  23781299.74900                  13118082.96940  23781304.15540
 -18261692.29500  21394952.84300                 -13919828.16240  21394956.33540
 -11336975.02900  22913569.39000                  -8679100.20240  22913573.37440
  -6511818.15300  23249246.26500                  -4894984.17440  23249250.17940
   -278557.51500  25937118.90500                    -91015.08240  25937126.03440
     10077.07900  25516204.74900                     23506.31700  25516208.39700
 -13108371.82700  22065406.77200                  -9950454.51740  22065410.08940
   -552627.49700  25502426.25700                   -317677.91940  25502431.46040
 96  9 11  4  3  0.0030000  0  9  3 14 18 19 22 27 28 29 31
  -3738401.59200  24817948.97600                  -2826030.16040  24817953.58140
  16973920.94600  23804435.04600                  13212818.87740  23804440.47240
 -18282808.88100  21390934.34300                 -13936282.63940  21390938.01140
 -11375820.13400  22906177.49100                  -8709369.09140  22906182.05040
  -6411425.02400  23268350.55400                  -4816755.75740  23268354.77240
   -342184.72900  25925011.83500                   -140594.62140  25925016.48740
     26133.37700  25519260.14700                     36017.74200  25519263.65100
 -13049919.72200  22076529.95200                  -9904907.43240  22076533.28040
   -627756.62600  25488130.06200                   -376220.07840  25488133.69440
 96  9 11  4  3 30.0030000  0  9  3 14 18 19 22 27 28 29 31
  -3781055.84200  24809832.50700                  -2859267.20540  24809836.08140
  17095720.88100  23827612.64000                  13307727.92140  23827616.58940
 -18303579.36000  21386981.67100                 -13952467.42640  21386985.35140
 -11414448.36600  22898826.83500                  -8739469.00640  22898831.51140
  -6310663.60300  23287524.72600                  -4738240.35940  23287528.71040
   -405750.42300  25912914.71800                   -190126.29840  25912920.14440
     42703.90100  25522413.30400                     48929.82400  25522416.50700
 -12991111.21800  22087720.81200                  -9859082.62740  22087723.94040
   -702912.34100  25473828.10100                   -434782.99840  25473832.05040
 96  9 11  4  4  0.0030000  0  9  3 14 18 19 22 27 28 29 31
  -3823392.08600  24801776.34300                  -2892256.48240  24801781.26540
  17217749.38000  23850833.71000                  13402815.02640  23850838.60840
 -18323981.98800  21383099.43700                 -13968365.56940  21383103.09340
 -11452879.06600  22891513.81900                  -8769414.99640  22891518.13240
  -6209541.18400  23306767.90500                  -4659443.66540  23306772.03040
   -469251.94100  25900831.44400                   -239608.00440  25900832.64040
     59797.45700  25525665.89000                     62249.48600  25525669.31900
 -12931933.04900  22098982.08500                  -9812969.77240  22098985.20240
   -778086.54700  25459522.74900                   -493360.28940  25459526.39440
 96  9 11  4  4 30.0030000  0  9  3 14 18 19 22 27 28 29 31
  -3865399.74000  24793782.35800                  -2924989.70840  24793787.08140
  17339980.94800  23874093.70200                  13498060.39140  23874098.60140
 -18344030.57700  21379284.13200                 -13983987.83940  21379287.83540
 -11491133.56700  22884234.44400                  -8799223.68540  22884238.69840
  -6108070.35900  23326076.99900                  -4580375.47840  23326081.10140
   -532689.46000  25888759.17100                   -289039.75940  25888764.49140
     77404.97000  25529016.47600                     75969.63900  25529019.78800
 -12872393.42400  22110312.07700                  -9766575.26140  22110315.19440
   -853259.47300  25445217.40500                   -551936.54440  25445223.47640
 96  9 11  4  5  0.0030000  0  9  3 14 18 19 22 27 28 29 31
  -3907057.58800  24785855.38200                  -2957450.34040  24785860.37440
  17462415.69700  23897392.97600                  13593464.09340  23897396.91340
 -18363709.06700  21375539.51500                 -13999321.72640  21375543.24140
 -11529199.21400  22876990.46800                  -8828885.21440  22876994.95640
  -6006255.02500  23345452.17100                  -4501038.85640  23345455.76940
   -596053.98600  25876701.81200                   -338414.65140  25876705.85440
     95531.68200  25532466.12400                     90094.38100  25532469.38600
 -12812470.81400  22121714.89000                  -9719882.31940  22121717.93740
   -928406.28600  25430916.56200                   -610492.49040  25430919.87840
 96  9 11  4  5 30.0030000  0  9  3 14 18 19 22 27 28 29 31
  -3948362.64700  24777994.73300                  -2989636.11040  24777999.94840
  17585049.84800  23920728.53000                  13689023.17040  23920733.41740
 -18382984.65500  21371871.51500                 -14014341.66040  21371875.27640
 -11567059.32900  22869786.02200                  -8858386.58940  22869791.01540
  -5904103.72200  23364890.85100                  -4421440.43240  23364894.84740
   -659364.85500  25864654.04600                   -387747.77740  25864657.67940
    114178.97000  25536014.32700                    104624.73000  25536017.83900
 -12752167.77300  22133190.14700                  -9672892.93640  22133193.30040
  -1003525.46300  25416623.28800                   -669026.93540  25416629.05440
 96  9 11  4  6  0.0030000  0  9  3 14 18 19 22 27 28 29 31
  -3989337.59300  24770197.24900                  -3021564.64740  24770201.43340
  17707862.95900  23944098.92900                  13784721.70140  23944104.23740
 -18401861.82300  21368279.32700                 -14029051.12940  21368283.13640
 -11604714.07700  22862620.56900                  -8887727.92740  22862625.09340
  -5801623.74200  23384391.88200                  -4341585.88740  23384395.97240
   -722621.94000  25852616.66300                   -437038.93140  25852619.86240
    133338.52200  25539660.31900                    119554.24900  25539663.99100
 -12691494.36000  22144736.10100                  -9625614.95840  22144739.24140
  -1078619.71300  25402332.81200                   -727541.87540  25402338.15540
 96  9 11  4  6 30.0030000  0  9  3 14 18 19 22 27 28 29 31
  -4030009.90500  24762457.95200                  -3053257.34840  24762462.53440
  17830853.63700  23967504.42900                  13880558.59340  23967509.24540
 -18420359.82500  21364759.28800                 -14043465.15440  21364762.95640
 -11642140.70200  22855498.73300                  -8916891.52640  22855503.22240
  -5698817.19600  23403955.19400                  -4261476.89340  23403959.21440
   -785822.47800  25840589.31900                   -486286.08740  25840592.91740
    153007.74400  25543403.12400                    134880.93000  25543406.86200
 -12630451.71900  22156351.99900                  -9578049.26840  22156355.10440
  -1153697.81300  25388045.89000                   -786044.28840  25388051.03440
 96  9 11  4  7  0.0030000  0  9  3 14 18 19 22 27 28 29 31
  -4070382.79000  24754775.28800                  -3084716.73340  24754778.75740
  17954047.15800  23990947.64700                  13976553.54140  23990952.00740
 -18438473.65500  21361312.42100                 -14057579.82040  21361315.94840
 -11679329.79700  22848421.53000                  -8945870.02140  22848426.06540
  -5595670.43500  23423583.39000                  -4181102.79440  23423587.18740
   -848950.32000  25828576.22600                   -535476.53640  25828580.29240
    173199.56700  25547245.71800                    150614.82400  25547249.27200
 -12569031.62900  22168040.12400                  -9530189.47140  22168043.31240
  -1228772.45100  25373760.31200                   -844543.99140  25373764.26140
 96  9 11  4  7 30.0030000  0  9  3 14 18 19 22 27 28 29 31
  -4110466.28600  24747147.67900                  -3115950.62140  24747153.25740
  18077442.78000  24014428.99900                  14072705.99640  24014432.36240
 -18456215.05400  21357936.14000                 -14071404.27940  21357939.81940
 -11716291.78800  22841387.91300                  -8974671.55040  22841392.58940
  -5492181.88200  23443276.45200                  -4100462.34840  23443280.21440
   -912008.76000  25816577.12400                   -584612.91340  25816582.36240
    193915.03500  25551187.68700                    166756.73900  25551191.15100
 -12507247.43800  22179796.84300                  -9482045.94740  22179799.89040
  -1303852.92900  25359472.92100                   -903048.24540  25359475.69840
 96  9 11  4  8  0.0030000  0  9  3 14 18 19 22 27 28 29 31
  -4150255.37300  24739575.91300                  -3146955.08640  24739580.23740
  18201025.34500  24037945.42100                  14169004.12240  24037949.71040
 -18473603.24400  21354627.30400                 -14084953.51140  21354630.97240
 -11753043.59300  22834394.36600                  -9003309.30040  22834399.19440
  -5388367.23000  23463031.82700                  -4019567.81340  23463035.41340
   -974984.77100  25804592.94400                   -633685.08340  25804597.96040
    215150.79700  25555228.97600                    183304.08200  25555232.32300
 -12445106.55600  22191622.03800                  -9433624.48640  22191625.15540
  -1378941.67700  25345183.78000                   -961558.94840  25345187.88240
 96  9 11  4  8 30.0030000  0  9  3 14 18 19 22 27 28 29 31
  -4189741.45700  24732062.14000                  -3177723.44140  24732067.07340
  18324780.43500  24061495.85800                  14265436.63440  24061500.08940
 -18490657.67800  21351382.00700                 -14098242.67440  21351385.56940
 -11789610.25700  22827436.06900                  -9031802.77440  22827440.31240
  -5284256.10200  23482843.51500                  -3938442.25740  23482847.78040
  -1037895.47600  25792621.27200                   -682706.37140  25792626.53440
    236890.37200  25559365.78000                    200244.03500  25559368.97900
 -12382631.92600  22203510.49900                  -9384942.96540  22203513.66340
  -1454055.13700  25330890.07700                  -1020088.90140  25330893.51140
 96  9 11  4  9  0.0030000  0  9  3 14 18 19 22 27 28 29 31
  -4228892.55400  24724611.60800                  -3208230.72940  24724616.69440
  18448722.47000  24085080.72600                  14362014.84040  24085085.62440
 -18507339.81100  21348207.32700                 -14111241.73140  21348210.89040
 -11825991.47000  22820512.76500                  -9060151.75740  22820517.18340
  -5179832.60100  23502714.74900                  -3857073.28740  23502718.49940
  -1100728.79000  25780664.42100                   -731667.36840  25780670.22240
    259151.68600  25563601.91300                    217590.50100  25563604.85100
 -12319811.50300  22215464.97600                  -9335991.98840  22215468.29240
  -1529166.35800  25316596.75700                  -1078617.09940  25316600.97640
 96  9 11  4  9 30.0030000  0  9  3 14 18 19 22 27 28 29 31
  -4267695.72500  24717227.67900                  -3238466.97040  24717230.97240
  18572822.48300  24108696.23300                  14458716.12040  24108701.33140
 -18523654.52700  21345102.78800                 -14123954.48440  21345106.44440
 -11862187.44100  22813625.19400                  -9088356.39540  22813629.51940
  -5075105.12000  23522643.85100                  -3775467.44540  23522647.55440
  -1163496.38700  25768720.69400                   -780577.10240  25768726.58940
    281929.23300  25567936.38200                    235339.24800  25567939.49500
 -12256649.73700  22227484.24100                  -9286775.03440  22227487.52240
  -1604278.01700  25302304.07700                  -1137145.66540  25302307.83940
 96  9 11  4 10  0.0030000  0  9  3 14 18 19 22 27 28 29 31
  -4306144.79200  24709911.01500                  -3268427.22140  24709915.73740
  18697072.38100  24132339.87400                  14555534.21240  24132344.69040
 -18539596.60500  21342069.10100                 -14136376.86940  21342072.87440
 -11898193.93100  22806773.33500                  -9116413.38640  22806777.70640
  -4970070.44000  23542631.34300                  -3693622.22440  23542634.96440
  -1226186.26900  25756790.25700                   -829426.30140  25756796.03440
    305219.68600  25572368.36600                    253487.66300  25572371.30800
 -12193147.55000  22239568.25700                  -9237292.81440  22239571.59740
  -1679398.28700  25288008.36600                  -1195680.91640  25288013.17140
 96  9 11  4 10 30.0030000  0  9  3 14 18 19 22 27 28 29 31
  -4344223.48200  24702665.14000                  -3298098.91440  24702668.57340
  18821496.12400  24156016.91300                  14652487.78040  24156022.10440
 -18555146.38500  21339110.04600                 -14148493.57440  21339113.63240
 -11933993.65000  22799960.75700                  -9144309.25940  22799965.06940
  -4864687.46700  23562684.88200                  -3611505.61640  23562688.69040
  -1288787.33800  25744878.17100                   -878206.34740  25744881.62840
    329042.11300  25576901.67100                    272050.59400  25576904.27600
 -12129281.09500  22251721.67100                  -9187526.75240  22251724.99940
  -1754504.23900  25273716.52200                  -1254205.05540  25273719.72240
 96  9 11  4 11  0.0030000  0  9  3 14 18 19 22 27 28 29 31
  -4381950.69100  24695486.03000                  -3327496.72840  24695489.14740
  18946067.05400  24179721.54600                  14749556.03140  24179725.91740
 -18570320.52400  21336222.64000                 -14160317.56840  21336226.30840
 -11969595.81100  22793185.83500                  -9172051.18640  22793190.18340
  -4758951.91400  23582805.70200                  -3529114.27040  23582809.33540
  -1351322.08900  25732978.15500                   -926934.65440  25732983.60440
    353384.20600  25581533.78000                    291018.46600  25581536.84700
 -12065056.18100  22263943.18700                  -9137481.37340  22263946.52640
  -1829597.00100  25259426.98300                  -1312718.84140  25259430.24140
 96  9 11  4 11 30.0030000  0  9  3 14 18 19 22 27 28 29 31
  -4419318.75800  24688374.64700                  -3356614.69340  24688378.66740
  19070771.46800  24203451.41300                  14846728.31840  24203457.06240
 -18585125.39400  21333405.18700                 -14171853.82340  21333408.84340
 -12004989.86300  22786450.53800                  -9199630.91340  22786454.97940
  -4652869.21500  23602992.64700                  -3446452.42440  23602996.47940
  -1413788.79900  25721091.59300                   -975609.98040  25721095.21440
    378243.94100  25586264.48300                    310389.67100  25586267.87800
 -12000481.47200  22276231.42900                  -9087163.41940  22276234.75740
  -1904664.32700  25245141.86600                  -1371212.88040  25245145.72240
 96  9 11  4 12  0.0030000  0  9  3 14 18 19 22 27 28 29 31
  -4456330.43400  24681331.40500                  -3385454.95540  24681335.14440
  19195643.44500  24227214.75700                  14944031.14740  24227220.00740
 -18599527.13300  21330664.81900                 -14183075.93940  21330668.33540
 -12040162.44100  22779757.42900                  -9227038.12440  22779761.78840
  -4546431.75200  23623246.53800                  -3363514.12140  23623250.33540
  -1476180.89900  25709217.97600                  -1024227.13940  25709223.51940
    403635.33700  25591096.11600                    330175.18300  25591099.09300
 -11935544.95500  22288588.07700                  -9036563.54040  22288591.49940
  -1979667.64700  25230869.23300                  -1429657.01740  25230874.39040
 96  9 11  4 12 30.0030000  0  9  3 14 18 19 22 27 28 29 31
  -4493003.92000  24674352.92100                  -3414031.65640  24674357.35140
  19320678.91600  24251008.65500                  15041461.35840  24251013.92940
 -18613542.66000  21327997.73300                 -14193997.11940  21328001.23740
 -12075134.90100  22773102.31900                  -9254289.36540  22773106.84340
  -4439665.23800  23643563.48300                  -3280319.42840  23643567.39740
  -1538519.93300  25697355.43700                  -1072802.97840  25697358.69440
    429547.69900  25596027.07700                    350366.66400  25596030.06900
 -11870249.69500  22301013.71000                  -8985684.11740  22301017.26140
  -2054602.72100  25216609.53000                  -1488047.93140  25216614.15940
 96  9 11  4 13  0.0030000  0  9  3 14 18 19 22 27 28 29 31
  -4529340.40400  24667437.78800                  -3442345.78040  24667441.97240
  19445871.59500  24274831.42100                  15139014.08340  24274836.27240
 -18627165.63300  21325405.22600                 -14204612.41440  21325408.95240
 -12109901.04500  22766486.21000                  -9281379.85340  22766490.72240
  -4332606.01400  23663936.22600                  -3196896.66440  23663940.12840
  -1600804.88200  25685503.27200                  -1121336.61240  25685508.56940
    455977.77700  25601056.39700                    370961.52100  25601059.79600
 -11804596.89700  22313507.01500                  -8934526.09540  22313510.53040
  -2129480.64800  25202360.74100                  -1546394.38940  25202366.46040
 96  9 11  4 13 30.0030000  0  9  3 14 18 19 22 27 28 29 31
  -4565352.37300  24660585.57700                  -3470407.04340  24660590.56940
  19571218.99900  24298684.60800                  15236687.36040  24298689.63640
 -18640399.16800  21322887.14700                 -14214924.24740  21322890.80440
 -12144473.28800  22759907.42900                  -9308319.25040  22759911.91740
  -4225288.99900  23684357.69400                  -3113273.00240  23684361.51540
  -1663036.74000  25673660.96000                  -1169828.89140  25673664.94440
    482915.71900  25606182.43700                    391952.12400  25606186.28400
 -11738592.40800  22326067.31200                  -8883094.02440  22326070.60440
  -2204323.51100  25188118.78000                  -1604713.45740  25188123.02240
 96  9 11  4 14  0.0030000  0  9  3 14 18 19 22 27 28 29 31
  -4601016.56800  24653798.99900                  -3498197.30540  24653803.39440
  19696754.34900  24322573.78800                  15334507.06740  24322578.13640
 -18653226.17900  21320446.09300                 -14224919.31840  21320449.74940
 -12178834.01800  22753369.13200                  -9335093.83440  22753373.47940
  -4117698.84500  23704830.85800                  -3029436.52540  23704835.92140
  -1725186.85800  25661834.03000                  -1218257.52240  25661839.73740
    510389.60100  25611410.94400                    413360.33200  25611414.49500
 -11672187.07500  22338703.75700                  -8831349.60840  22338707.00340
  -2279119.39800  25173885.53800                  -1662995.95740  25173889.74540
 96  9 11  4 14 30.0030000  0  9  3 14 18 19 22 27 28 29 31
  -4636323.69800  24647080.65500                  -3525709.33940  24647084.76940
  19822434.53500  24346490.11600                  15432439.68740  24346494.83940
 -18665671.54100  21318077.70200                 -14234616.99140  21318081.26540
 -12213003.55700  22746866.84300                  -9361719.43440  22746871.26140
  -4009857.89400  23725353.01500                  -2945404.61240  23725357.49140
  -1787260.64000  25650022.24900                  -1266626.65140  25650027.38240
    538385.65200  25616738.12400                    435175.44900  25616741.94400
 -11605387.81900  22351415.42900                  -8779298.23940  22351418.60440
  -2353882.86100  25159658.44400                  -1721253.17440  25159662.94440
 96  9 11  4 15  0.0030000  0  9  3 14 18 19 22 27 28 29 31
  -4671267.01100  24640430.96800                  -3552937.86340  24640435.86640
  19948237.93700  24370429.73300                  15530468.35440  24370434.44440
 -18677728.24100  21315783.43700                 -14244011.81440  21315787.05840
 -12246980.38900  22740401.17100                  -9388194.86640  22740405.37840
  -3901763.51000  23745922.92100                  -2861175.23240  23745926.97640
  -1849272.49100  25638221.16300                  -1314947.50140  25638224.30440
    566897.23000  25622163.55400                    457392.27300  25622167.31200
 -11538220.44300  22364196.95200                  -8726960.02340  22364200.03440
  -2428603.42300  25145439.27200                  -1779476.95840  25145443.64440
 96  9 11  4 15 30.0030000  0  9  3 14 18 19 22 27 28 29 31
  -4705849.25000  24633849.96800                  -3579885.04740  24633853.56540
  20074164.91600  24394392.76500                  15628593.30740  24394397.38240
 -18689397.17400  21313562.91300                 -14253104.49140  21313566.53440
 -12280775.62400  22733970.11600                  -9414528.80040  22733974.51140
  -3793394.44900  23766545.06200                  -2776731.80740  23766548.81240
  -1911232.74200  25626429.59300                  -1363228.17740  25626433.34340
    595924.54700  25627687.58500                    480010.96800  25627691.00700
 -11470696.48900  22377046.36600                  -8674343.95940  22377049.54240
  -2503263.94400  25131232.10100                  -1837653.94140  25131237.37440
 96  9 11  4 16  0.0030000  0  9  3 14 18 19 22 27 28 29 31
  -4740057.83900  24627340.44400                  -3606541.06340  24627343.77240
  20200217.42600  24418380.07700                  15726816.04740  24418382.65540
 -18700664.62700  21311418.92100                 -14261884.32040  21311422.50740
 -12314386.24900  22727574.24100                  -9440718.85640  22727578.54240
  -3684738.78300  23787221.71800                  -2692065.03740  23787225.62040
  -1973142.66700  25614648.57700                  -1411469.64540  25614654.08540
    625472.10300  25633310.44400                    503035.02900  25633313.83900
 -11402826.53600  22389961.62400                  -8621458.28440  22389964.87040
  -2577837.91000  25117040.99100                  -1895763.55240  25117045.45640
 96  9 11  4 16 30.0030000  0  9  3 14 18 19 22 27 28 29 31
  -4773879.66000  24620903.93700                  -3632895.71140  24620908.12040
  20326398.95100  24442391.09300                  15825139.29840  24442395.07740
 -18711516.55800  21309353.75700                 -14270340.38140  21309357.49540
 -12347799.42200  22721215.61600                  -9466755.07640  22721219.80040
  -3575781.00000  23807955.57700                  -2607162.86240  23807958.82340
  -2035007.10200  25602876.17100                  -1459675.66640  25602880.12040
    655544.70200  25639033.03000                    526468.25400  25639036.18700
 -11334622.85200  22402940.21800                  -8568312.55540  22402943.37040
  -2652305.41400  25102870.19400                  -1953790.12940  25102874.77640
 96  9 11  4 17  0.0030000  0  9  3 14 18 19 22 27 28 29 31
  -4807325.48300  24614539.44400                  -3658957.38340  24614543.19440
  20452718.37900  24466429.20200                  15923570.02740  24466432.72940
 -18721965.03500  21307365.57700                 -14278482.05640  21307369.18740
 -12381011.54000  22714895.39000                  -9492634.63640  22714899.86640
  -3466524.68000  23828746.17900                  -2522028.04540  23828749.85840
  -2096828.37200  25591112.68700                  -1507848.02840  25591116.19040
    686138.53800  25644854.49100                    550307.60700  25644858.10100
 -11266085.83600  22415982.15500                  -8514907.08840  22415985.31940
  -2726689.28900  25088715.23300                  -2011751.55740  25088719.15940
 96  9 11  4 17 30.0030000  0  9  3 14 18 19 22 27 28 29 31
  -4840415.93400  24608242.31900
  20579157.27500  24490489.31900                  16022093.86240  24490494.40540
 -18732039.44300  21305448.56200                 -14286332.24840  21305452.27640
 -12414037.76300  22708611.22600                  -9518369.35140  22708615.45640
  -3357005.36800  23849587.03800                  -2436688.31840  23849590.87040
  -2158612.88200  25579355.58500                  -1555991.78340  25579360.13240
    717236.03900  25650772.18700                    574539.43200  25650775.87800
 -11197212.32200  22429088.40500                  -8461239.42040  22429091.48740
  -2801029.23800  25074568.85100                  -2069678.73340  25074572.51940
 96  9 11  4 18  0.0030000  0  9  3 14 18 19 22 27 28 29 31
  -4873145.75700  24602014.10800
  20705693.98800  24514568.65500                  16120693.93940  24514573.58940
 -18741753.63800  21303599.85800                 -14293901.73040  21303603.53840
 -12446878.32400  22702361.89700                  -9543959.35740  22702366.17540
  -3247235.67300  23870475.46800                  -2351153.49840  23870479.47640
  -2220351.29700  25567606.47600                  -1604099.58740  25567612.15940
    748830.96100  25656784.53800                    599158.87900  25656788.33500
 -11127995.41400  22442259.87400                  -8407304.16940  22442262.96840
  -2875334.94900  25060428.60800                  -2127579.28040  25060433.03840
 96  9 11  4 18 30.0030000  0  9  3 14 18 19 22 27 28 29 31
  -4905491.20300  24595859.46800                     -6691.10550  24595863.32340
  20832347.19300  24538669.84300                  16219384.71940  24538672.01140
 -18751091.03200  21301822.92100                 -14301177.63240  21301826.60140
 -12479497.03700  22696154.67900                  -9569376.50240  22696159.05040
  -3137190.38300  23891416.44400                  -2265403.91240  23891420.06540
  -2282006.71600  25555873.92100                  -1652142.70140  25555879.67540
    780949.40200  25662896.78000                    624186.22700  25662899.93700
 -11058396.84900  22455504.20200                  -8353071.52340  22455507.34340
  -2949600.65200  25046296.45200                  -2185448.62140  25046300.90540
 96  9 11  4 19  0.0030000  0  9  3 14 18 19 22 27 28 29 31
  -4937451.29900  24589777.14700                    -31595.07540  24589780.87440
  20959118.19200  24562794.19400                  16318167.22440  24562798.88240
 -18760038.45100  21300120.50700                 -14308149.64540  21300124.06940
 -12511890.40600  22689990.30400                  -9594618.07340  22689994.76940
  -3026856.01700  23912412.46800                  -2179429.08540  23912416.34740
  -2343561.42200  25544160.56900                  -1700107.39940  25544166.60440
    813599.81000  25669109.44400                    649628.11600  25669113.12800
 -10988408.24300  22468822.68700                  -8298534.94940  22468825.78040
  -3023815.67500  25032173.81900                  -2243278.45340  25032179.05840
 96  9 11  4 19 30.0030000  0  9  3 14 18 19 22 27 28 29 31
  -4969024.51100  24583768.98300                    -56197.57040  24583772.25340
  21086001.17000  24586939.25700                  16417037.13040  24586944.61240
 -18768577.50100  21298495.53000                 -14314803.46240  21298499.15140
 -12544063.49100  22683868.10100                  -9619687.99840  22683872.75340
  -2916232.32000  23933463.03800                  -2093228.79640  23933467.40940
  -2405022.04100  25532465.30400                  -1747998.75340  25532470.10840
    846780.79600  25675423.58500                    675483.44100  25675427.27200
 -10918045.89000  22482212.18700                  -8243707.13940  22482215.37440
  -3097955.06500  25018065.81200                  -2301049.36040  25018068.63640
